[[{"header":{"parameterUnit":"m.s-1","parameterCategory":1,"la1":30.6,"la2":28.766,"lo1":-90.7593,"lo2":-88.6598,"dy":0.0162,"dx":0.0183,"nx":116,"ny":114,"refTime":"2024-05-25T06:00:00:Z","depth":0,"parameterNumber":2,"parameterNumberName":"U-component_of_WINDS"},"data":[0.0,0.0,0.0,0.0,0.0,0.0,0.0,0.0,0.0,0.0,0.0,0.0,0.0,0.0,0.0,0.0,0.0,0.0,0.0,0.0,0.0,0.0,0.0,0.0,0.0,0.0,0.0,0.0,0.0,0.0,0.0,0.0,0.0,0.0,0.0,0.0,0.0,0.0,0.0,0.0,0.0,0.0,0.0,0.0,0.0,0.0,0.0,0.0,0.0,0.0,0.0,0.0,0.0,0.0,0.0,0.0,0.0,0.0,0.0,0.0,0.0,0.0,0.0,0.0,0.0,0.0,0.0,0.0,0.0,0.0,0.0,0.0,0.0,0.0,0.0,0.0,0.0,0.0,0.0,0.0,0.0,0.0,0.0,0.0,0.0,0.0,0.0,0.0,0.0,0.0,0.0,0.0,0.0,0.0,0.0,0.0,0.0,0.0,0.0,0.0,0.0,0.0,0.0,0.0,0.0,0.0,0.0,0.0,0.0,0.0,0.0,0.0,0.0,0.0,0.0,0.0,0.0,0.0,0.0,0.0,0.0,0.0,0.0,0.0,0.0,0.0,0.0,0.0,0.0,0.0,0.0,0.0,0.0,0.0,0.0,0.0,0.0,0.0,0.0,0.0,0.0,0.0,0.0,0.0,0.0,0.0,0.0,0.0,0.0,0.0,0.0,0.0,0.0,0.0,0.0,0.0,0.0,0.0,0.0,0.0,0.0,0.0,0.0,0.0,0.0,0.0,0.0,0.0,0.0,0.0,0.0,0.0,0.0,0.0,0.0,0.0,0.0,0.0,0.0,0.0,0.0,0.0,0.0,0.0,0.0,0.0,0.0,0.0,0.0,0.0,0.0,0.0,0.0,0.0,0.0,0.0,0.0,0.0,0.0,0.0,0.0,0.0,0.0,0.0,0.0,0.0,0.0,0.0,0.0,0.0,0.0,0.0,0.0,0.0,0.0,0.0,0.0,0.0,0.0,0.0,0.0,0.0,0.0,0.0,0.0,0.0,0.0,0.0,0.0,0.0,0.0,0.0,0.0,0.0,0.0,0.0,0.0,0.0,0.0,0.0,0.0,0.0,0.0,0.0,0.0,0.0,0.0,0.0,0.0,0.0,0.0,0.0,0.0,0.0,0.0,0.0,0.0,0.0,0.0,0.0,0.0,0.0,0.0,0.0,0.0,0.0,0.0,0.0,0.0,0.0,0.0,0.0,0.0,0.0,0.0,0.0,0.0,0.0,0.0,0.0,0.0,0.0,0.0,0.0,0.0,0.0,0.0,0.0,0.0,0.0,0.0,0.0,0.0,0.0,0.0,0.0,0.0,0.0,0.0,0.0,0.0,0.0,0.0,0.0,0.0,0.0,0.0,0.0,0.0,0.0,0.0,0.0,0.0,0.0,0.0,0.0,0.0,0.0,0.0,0.0,0.0,0.0,0.0,0.0,0.0,0.0,0.0,0.0,0.0,0.0,0.0,0.0,0.0,0.0,0.0,0.0,0.0,0.0,0.0,0.0,0.0,0.0,0.0,0.0,0.0,0.0,0.0,0.0,0.0,0.0,0.0,0.0,0.0,0.0,0.0,0.0,0.0,0.0,0.0,0.0,0.0,0.0,0.0,0.0,0.0,0.0,0.0,0.0,0.0,0.0,0.0,0.0,0.0,0.0,0.0,0.0,0.0,0.0,0.0,0.0,0.0,0.0,0.0,0.0,0.0,0.0,0.0,0.0,0.0,0.0,0.0,0.0,0.0,0.0,0.0,0.0,0.0,0.0,0.0,0.0,0.0,0.0,0.0,0.0,0.0,0.0,0.0,0.0,0.0,0.0,0.0,0.0,0.0,0.0,0.0,0.0,0.0,0.0,0.0,0.0,0.0,0.0,0.0,0.0,0.0,0.0,0.0,0.0,0.0,0.0,0.0,0.0,0.0,0.0,0.0,0.0,0.0,0.0,0.0,0.0,0.0,0.0,0.0,0.0,0.0,0.0,0.0,0.0,0.0,0.0,0.0,0.0,0.0,0.0,0.0,0.0,0.0,0.0,0.0,0.0,0.0,0.0,0.0,0.0,0.0,0.0,0.0,0.0,0.0,0.0,0.0,0.0,0.0,0.0,0.0,0.0,0.0,0.0,0.0,0.0,0.0,0.0,0.0,0.0,0.0,0.0,0.0,0.0,0.0,0.0,0.0,0.0,0.0,0.0,0.0,0.0,0.0,0.0,0.0,0.0,0.0,0.0,0.0,0.0,0.0,0.0,0.0,0.0,0.0,0.0,0.0,0.0,0.0,0.0,0.0,0.0,0.0,0.0,0.0,0.0,0.0,0.0,0.0,0.0,0.0,0.0,0.0,0.0,0.0,0.0,0.0,0.0,0.0,0.0,0.0,0.0,0.0,0.0,0.0,0.0,0.0,0.0,0.0,0.0,0.0,0.0,0.0,0.0,0.0,0.0,0.0,0.0,0.0,0.0,0.0,0.0,0.0,0.0,0.0,0.0,0.0,0.0,0.0,0.0,0.0,0.0,0.0,0.0,0.0,0.0,0.0,0.0,0.0,0.0,0.0,0.0,0.0,0.0,0.0,0.0,0.0,0.0,0.0,0.0,0.0,0.0,0.0,0.0,0.0,0.0,0.0,0.0,0.0,0.0,0.0,0.0,0.0,0.0,0.0,0.0,0.0,0.0,0.0,0.0,0.0,0.0,0.0,0.0,0.0,0.0,0.0,0.0,0.0,0.0,0.0,0.0,0.0,0.0,0.0,0.0,0.0,0.0,0.0,0.0,0.0,0.0,0.0,0.0,0.0,0.0,0.0,0.0,0.0,0.0,0.0,0.0,0.0,0.0,0.0,0.0,0.0,0.0,0.0,0.0,0.0,0.0,0.0,0.0,0.0,0.0,0.0,0.0,0.0,0.0,0.0,0.0,0.0,0.0,0.0,0.0,0.0,0.0,0.0,0.0,0.0,0.0,0.0,0.0,0.0,0.0,0.0,0.0,0.0,0.0,0.0,0.0,0.0,0.0,0.0,0.0,0.0,0.0,0.0,0.0,0.0,0.0,0.0,0.0,0.0,0.0,0.0,0.0,0.0,0.0,0.0,0.0,0.0,0.0,0.0,0.0,0.0,0.0,0.0,0.0,0.0,0.0,0.0,0.0,0.0,0.0,0.0,0.0,0.0,0.0,0.0,0.0,0.0,0.0,0.0,0.0,0.0,0.0,0.0,0.0,0.0,0.0,0.0,0.0,0.0,0.0,0.0,0.0,0.0,0.0,0.0,0.0,0.0,0.0,0.0,0.0,0.0,0.0,0.0,0.0,0.0,0.0,0.0,0.0,0.0,0.0,0.0,0.0,0.0,0.0,0.0,0.0,0.0,0.0,0.0,0.0,0.0,0.0,0.0,0.0,0.0,0.0,0.0,0.0,0.0,0.0,0.0,0.0,0.0,0.0,0.0,0.0,0.0,0.0,0.0,0.0,0.0,0.0,0.0,0.0,0.0,0.0,0.0,0.0,0.0,0.0,0.0,0.0,0.0,0.0,0.0,0.0,0.0,0.0,0.0,0.0,0.0,0.0,0.0,0.0,0.0,0.0,0.0,0.0,0.0,0.0,0.0,0.0,0.0,0.0,0.0,0.0,0.0,0.0,0.0,0.0,0.0,0.0,0.0,0.0,0.0,0.0,0.0,0.0,0.0,0.0,0.0,0.0,0.0,0.0,0.0,0.0,0.0,0.0,0.0,0.0,0.0,0.0,0.0,0.0,0.0,0.0,0.0,0.0,0.0,0.0,0.0,0.0,0.0,0.0,0.0,0.0,0.0,0.0,0.0,0.0,0.0,0.0,0.0,0.0,0.0,0.0,0.0,0.0,0.0,0.0,0.0,0.0,0.0,0.0,0.0,0.0,0.0,0.0,0.0,0.0,0.0,0.0,0.0,0.0,0.0,0.0,0.0,0.0,0.0,0.0,0.0,0.0,0.0,0.0,0.0,0.0,0.0,0.0,0.0,0.0,0.0,0.0,0.0,0.0,0.0,0.0,0.0,0.0,0.0,0.0,0.0,0.0,0.0,0.0,0.0,0.0,0.0,0.0,0.0,0.0,0.0,0.0,0.0,0.0,0.0,0.0,0.0,0.0,0.0,0.0,0.0,0.0,0.0,0.0,0.0,0.0,0.0,0.0,0.0,0.0,0.0,0.0,0.0,0.0,0.0,0.0,0.0,0.0,0.0,0.0,0.0,0.0,0.0,0.0,0.0,0.0,0.0,0.0,0.0,0.0,0.0,0.0,0.0,0.0,0.0,0.0,0.0,0.0,0.0,0.0,0.0,0.0,0.0,0.0,0.0,0.0,0.0,0.0,0.0,0.0,0.0,0.0,0.0,0.0,0.0,0.0,0.0,0.0,0.0,0.0,0.0,0.0,0.0,0.0,0.0,0.0,0.0,0.0,0.0,0.0,0.0,0.0,0.0,0.0,0.0,0.0,0.0,0.0,0.0,0.0,0.0,0.0,0.0,0.0,0.0,0.0,0.0,0.0,0.0,0.0,0.0,0.0,0.0,0.0,0.0,0.0,0.0,0.0,0.0,0.0,0.0,0.0,0.0,0.0,0.0,0.0,0.0,0.0,0.0,0.0,0.0,0.0,0.0,0.0,0.0,0.0,0.0,0.0,0.0,0.0,0.0,0.0,0.0,0.0,0.0,0.0,0.0,0.0,0.0,0.0,0.0,0.0,0.0,0.0,0.0,0.0,0.0,0.0,0.0,0.0,0.0,0.0,0.0,0.0,0.0,0.0,0.0,0.0,0.0,0.0,0.0,0.0,0.0,0.0,0.0,0.0,0.0,0.0,0.0,0.0,0.0,0.0,0.0,0.0,0.0,0.0,0.0,0.0,0.0,0.0,0.0,0.0,0.0,0.0,0.0,0.0,0.0,0.0,0.0,0.0,0.0,0.0,0.0,0.0,0.0,0.0,0.0,0.0,0.0,0.0,0.0,0.0,0.0,0.0,0.0,0.0,0.0,0.0,0.0,0.0,0.0,0.0,0.0,0.0,0.0,0.0,0.0,0.0,0.0,0.0,0.0,0.0,0.0,0.0,0.0,0.0,0.0,0.0,0.0,0.0,0.0,0.0,0.0,0.0,0.0,0.0,0.0,0.0,0.0,0.0,0.0,0.0,0.0,0.0,0.0,0.0,0.0,0.0,0.0,0.0,0.0,0.0,0.0,0.0,0.0,0.0,0.0,0.0,0.0,0.0,0.0,0.0,0.0,0.0,0.0,0.0,0.0,0.0,0.0,0.0,0.0,0.0,0.0,0.0,0.0,0.0,0.0,0.0,0.0,0.0,0.0,0.0,0.0,0.0,0.0,0.0,0.0,0.0,0.0,0.0,0.0,0.0,0.0,0.0,0.0,0.0,0.0,0.0,0.0,0.0,0.0,0.0,0.0,0.0,0.0,0.0,0.0,0.0,0.0,0.0,0.0,0.0,0.0,0.0,0.0,0.0,0.0,0.0,0.0,0.0,0.0,0.0,0.0,0.0,0.0,0.0,0.0,0.0,0.0,0.0,0.0,0.0,0.0,0.0,0.0,0.0,0.0,0.0,0.0,0.0,0.0,0.0,0.0,0.0,0.0,0.0,0.0,0.0,0.0,0.0,0.0,0.0,0.0,0.0,0.0,0.0,0.0,0.0,0.0,0.0,0.0,0.0,0.0,0.0,0.0,0.0,0.0,0.0,0.0,0.0,0.0,0.0,0.0,0.0,0.0,0.0,0.0,0.0,0.0,0.0,0.0,0.0,0.0,0.0,0.0,0.0,0.0,0.0,0.0,0.0,0.0,0.0,0.0,0.0,0.0,0.0,0.0,0.0,0.0,0.0,0.0,0.0,0.0,0.0,0.0,0.0,0.0,0.0,0.0,0.0,0.0,0.0,0.0,0.0,0.0,0.0,0.0,0.0,0.0,0.0,0.0,0.0,0.0,0.0,0.0,0.0,0.0,0.0,0.0,0.0,0.0,0.0,0.0,0.0,0.0,0.0,0.0,0.0,0.0,0.0,0.0,0.0,0.0,0.0,0.0,0.0,0.0,0.0,0.0,0.0,0.0,0.0,0.0,0.0,0.0,0.0,0.0,0.0,0.0,0.0,-3.6286,-3.456,0.0,0.0,0.0,0.0,0.0,0.0,0.0,0.0,0.0,0.0,0.0,0.0,0.0,0.0,0.0,0.0,0.0,0.0,0.0,0.0,0.0,0.0,0.0,-2.5909,-2.6208,-2.6225,-2.6904,-2.7303,-2.7303,0.0,0.0,0.0,0.0,0.0,-2.5361,-2.5864,-2.651,-2.7371,-2.8337,-2.9685,-3.1367,-3.0898,-2.9766,-2.8164,0.0,0.0,0.0,0.0,0.0,0.0,0.0,0.0,0.0,0.0,0.0,0.0,0.0,0.0,0.0,0.0,0.0,0.0,0.0,0.0,0.0,0.0,0.0,0.0,0.0,0.0,0.0,0.0,0.0,0.0,0.0,0.0,0.0,0.0,0.0,0.0,0.0,0.0,0.0,0.0,0.0,0.0,0.0,0.0,0.0,0.0,0.0,0.0,0.0,0.0,0.0,0.0,0.0,0.0,0.0,0.0,0.0,0.0,0.0,0.0,0.0,0.0,0.0,0.0,0.0,0.0,0.0,0.0,0.0,0.0,-4.0597,-3.8582,0.0,0.0,0.0,0.0,0.0,0.0,0.0,0.0,0.0,0.0,0.0,0.0,0.0,0.0,0.0,0.0,0.0,0.0,0.0,0.0,0.0,-2.5476,-2.572,-2.6364,-2.6977,-2.7326,-2.7912,-2.8329,-2.8427,-2.7584,0.0,0.0,0.0,-2.5741,-2.577,-2.6751,-2.8041,-2.9659,-3.1243,-3.3242,-3.5625,-3.6484,-3.5391,-3.2617,-3.1133,0.0,0.0,0.0,0.0,0.0,0.0,0.0,0.0,0.0,0.0,0.0,0.0,0.0,0.0,0.0,0.0,0.0,0.0,0.0,0.0,0.0,0.0,0.0,0.0,0.0,0.0,0.0,0.0,0.0,0.0,0.0,0.0,0.0,0.0,0.0,0.0,0.0,0.0,0.0,0.0,0.0,0.0,0.0,0.0,0.0,0.0,0.0,0.0,0.0,0.0,0.0,0.0,0.0,0.0,0.0,0.0,0.0,0.0,0.0,0.0,0.0,0.0,0.0,-4.8124,-4.8749,-4.9187,-4.9297,-4.9774,-5.0161,-4.555,-4.3841,-4.4102,-4.1114,0.0,0.0,0.0,0.0,0.0,0.0,0.0,0.0,0.0,0.0,0.0,0.0,0.0,0.0,0.0,0.0,0.0,0.0,0.0,-2.5712,-2.6542,-2.6786,-2.7522,-2.9101,-2.9278,-2.9585,-3.0224,-2.9361,0.0,0.0,-2.8011,-2.7566,-2.764,-2.8566,-2.9576,-3.0639,-3.4529,-3.7383,-3.9219,-4.0117,-4.0273,-3.9687,-3.5781,-3.4375,-3.4726,0.0,0.0,0.0,0.0,0.0,0.0,0.0,0.0,0.0,0.0,0.0,0.0,0.0,0.0,0.0,0.0,0.0,0.0,0.0,0.0,0.0,0.0,0.0,0.0,0.0,0.0,0.0,0.0,0.0,0.0,0.0,0.0,0.0,0.0,0.0,0.0,0.0,0.0,0.0,0.0,0.0,-3.4353,-3.7014,0.0,0.0,0.0,0.0,0.0,0.0,0.0,0.0,0.0,0.0,0.0,0.0,0.0,-4.8515,-4.9505,-5.153,-5.225,-5.1714,-5.3555,-5.3792,-5.2601,-5.3298,-5.3665,-5.3744,-5.3401,0.0,-4.7499,-4.5398,0.0,0.0,0.0,0.0,0.0,0.0,0.0,0.0,0.0,0.0,0.0,0.0,0.0,0.0,0.0,0.0,0.0,0.0,0.0,0.0,0.0,-2.8836,-3.0242,-3.1601,-3.3037,-3.3315,-3.2158,-3.1654,-3.0694,-2.9171,-2.8319,-2.816,-2.8718,-3.0568,-3.3191,-3.6637,-4.0468,-4.2734,-4.3516,-4.4883,-4.5547,-4.5391,-4.25,-3.9805,-3.7226,-3.3906,0.0,0.0,0.0,0.0,0.0,0.0,0.0,0.0,0.0,0.0,0.0,0.0,0.0,0.0,0.0,0.0,0.0,0.0,0.0,0.0,0.0,0.0,0.0,0.0,0.0,0.0,0.0,0.0,0.0,0.0,0.0,0.0,0.0,0.0,0.0,0.0,0.0,0.0,0.0,-3.4435,-3.7815,-3.9892,-3.9931,-3.9392,0.0,0.0,0.0,0.0,0.0,0.0,0.0,0.0,0.0,-4.9732,-5.1396,-5.2556,-5.3078,-5.47,-5.5287,-5.4954,-5.6092,-5.6356,-5.5904,-5.6271,-5.6558,-5.6825,-5.7032,-5.5883,-5.3623,-5.0206,-4.7319,-4.4771,0.0,0.0,0.0,0.0,-4.1625,-4.1735,0.0,0.0,0.0,0.0,0.0,0.0,0.0,0.0,0.0,0.0,0.0,0.0,-2.8884,-3.1113,-3.3109,-3.4514,-3.6176,-3.6487,-3.4881,-3.3697,-3.228,-3.0479,-2.9242,-2.9105,-3.028,-3.3314,-3.7283,-4.2187,-4.4922,-4.6523,-4.6992,-4.8281,-4.8906,-4.8828,-4.7539,-4.4726,-4.0703,-3.7422,-3.4805,-3.2617,0.0,0.0,0.0,0.0,0.0,0.0,0.0,0.0,0.0,0.0,0.0,0.0,0.0,0.0,0.0,0.0,0.0,0.0,0.0,0.0,0.0,0.0,0.0,0.0,0.0,0.0,0.0,0.0,0.0,0.0,0.0,0.0,0.0,0.0,0.0,0.0,0.0,-3.7802,-4.1123,-4.2585,-4.3739,-4.3701,0.0,0.0,0.0,0.0,0.0,0.0,-4.9663,-5.1923,-5.3486,-5.418,-5.5845,-5.6747,-5.6855,-5.76,-5.7995,-5.7951,-5.8079,-5.8304,-5.8621,-5.8524,-5.8687,-5.9031,-5.9046,-5.8909,-5.8386,-5.4272,-5.1337,-4.9185,-4.7196,-4.601,-4.5516,-4.6691,-4.6911,-4.6801,0.0,0.0,0.0,0.0,0.0,0.0,0.0,0.0,0.0,0.0,0.0,-2.88,-3.1327,-3.3147,-3.5243,-3.7829,-3.7401,-3.7588,-3.8994,-3.5266,-3.3274,-3.3904,-3.1641,-3.1196,-3.2969,-3.7291,-4.1289,-4.4805,-4.582,-4.7148,-4.8789,-4.8867,-4.8906,-4.8906,-4.8828,-4.8164,-4.6836,-4.1797,-3.9101,-3.7851,-3.3633,0.0,0.0,0.0,0.0,0.0,0.0,0.0,0.0,0.0,0.0,0.0,0.0,0.0,0.0,0.0,0.0,0.0,0.0,0.0,0.0,0.0,0.0,0.0,0.0,0.0,0.0,0.0,0.0,0.0,0.0,0.0,0.0,0.0,0.0,0.0,0.0,0.0,0.0,-4.5287,-4.6855,0.0,0.0,0.0,0.0,-4.8971,-5.0664,-5.2385,-5.4087,-5.5818,-5.7285,-5.8463,-6.0194,-6.1254,-6.1558,-6.12,-6.099,-6.0965,-6.049,-6.026,-6.0296,-5.9959,-5.9806,-5.9851,-5.995,-6.0021,-5.9792,-5.6822,-5.4815,-5.344,-5.18,-5.0861,-5.0435,-5.0508,-5.1022,-5.1536,0.0,0.0,0.0,0.0,0.0,-2.5308,-2.5308,-2.5308,-2.5423,-2.5731,-2.7962,-3.0298,-3.2416,-3.5596,-3.8427,-4.0546,-4.1492,-4.1488,-4.0455,-3.7827,-3.6493,-3.6824,-3.4383,-3.492,-3.898,-4.1753,-4.4336,-4.668,-4.8125,-4.9141,-4.9766,-5.0273,-5.0508,-5.0508,-4.9961,-4.957,-4.9023,-4.4922,-4.207,-4.0,-3.6797,-3.3594,0.0,0.0,0.0,0.0,0.0,0.0,0.0,0.0,0.0,0.0,0.0,0.0,0.0,0.0,0.0,0.0,0.0,0.0,0.0,0.0,0.0,0.0,0.0,0.0,0.0,0.0,0.0,0.0,0.0,0.0,0.0,0.0,0.0,0.0,0.0,0.0,0.0,-4.9433,-5.1164,0.0,-5.0587,-5.1548,-5.2549,-5.3395,-5.5549,-5.7319,-5.8473,-6.0127,-6.126,-6.1684,-6.2298,-6.2557,-6.2357,-6.2193,-6.1951,-6.1657,-6.1464,-6.1364,-6.1364,-6.1261,-6.1354,-6.1599,-6.0816,-6.0829,-6.1223,-5.9001,-5.7527,-5.6527,-5.5136,-5.4309,-5.3885,-5.3885,-5.4069,-5.4274,0.0,0.0,0.0,0.0,-2.5308,-2.5308,-2.5308,-2.5308,-2.5615,-2.6462,-2.9308,-3.2125,-3.4511,-3.8266,-4.1242,-4.2714,-4.3901,-4.3857,-4.2204,-3.9927,-3.8631,-3.8715,-3.7105,-3.8285,-4.2686,-4.453,-4.6445,-4.8476,-4.9648,-5.0351,-5.0625,-5.1133,-5.1406,-5.1367,-5.0859,-5.0469,-5.0039,-4.7734,-4.5117,-4.2305,-4.0273,-3.7422,-3.4062,0.0,0.0,0.0,0.0,0.0,0.0,0.0,0.0,0.0,0.0,0.0,0.0,0.0,0.0,0.0,0.0,0.0,0.0,0.0,0.0,0.0,0.0,0.0,0.0,0.0,0.0,0.0,0.0,0.0,0.0,0.0,0.0,0.0,0.0,0.0,-5.0115,-5.2115,-5.4395,-5.5318,-5.4164,-5.5626,-5.6857,-5.7396,-5.9511,-6.105,-6.1627,-6.2974,-6.3743,-6.3743,-6.4012,-6.4027,-6.3719,-6.3535,-6.3296,-6.2993,-6.2818,-6.2746,-6.2746,-6.2604,-6.271,-6.2963,-6.2002,-6.1673,-6.1786,-6.0547,-5.942,-5.8275,-5.7416,-5.6846,-5.6381,-5.6381,-5.6381,-5.6345,0.0,0.0,0.0,-2.5308,-2.5308,-2.5308,-2.5308,-2.5308,-2.6192,-2.8742,-3.1314,-3.4237,-3.7623,-4.1085,-4.347,-4.4278,-4.4316,-4.4368,-4.4518,-4.129,-3.9466,-3.9629,-3.9913,-4.1241,-4.3789,-4.5547,-4.7695,-5.0234,-5.0273,-5.0703,-5.1484,-5.1445,-5.1445,-5.1445,-5.1406,-5.0976,-5.0234,-5.0234,-4.8281,-4.5078,-4.4141,-4.1758,-3.8476,0.0,0.0,0.0,0.0,0.0,0.0,0.0,0.0,0.0,0.0,0.0,0.0,0.0,0.0,0.0,0.0,0.0,0.0,0.0,0.0,0.0,0.0,0.0,0.0,0.0,0.0,0.0,0.0,0.0,0.0,0.0,0.0,0.0,-4.5825,-4.9433,-5.2385,-5.328,-5.6357,-5.7742,-5.6049,-5.8934,-6.0896,-6.0896,-6.2397,-6.3346,-6.3346,-6.4166,-6.4628,-6.4628,-6.5474,-6.5897,-6.5897,-6.5403,-6.513,-6.5115,-6.4643,-6.4464,-6.4444,-6.4046,-6.3894,-6.3833,-6.3475,-6.263,-6.1429,-6.1376,-6.0299,-5.8713,-5.8713,-5.8418,-5.7997,-5.7997,-5.7997,-5.7886,0.0,0.0,-2.5308,-2.5308,-2.5308,-2.5308,-2.5308,-2.5308,-2.6,-2.7972,-3.1512,-3.4891,-3.77,-4.1585,-4.4316,-4.5171,-4.4662,-4.4391,-4.4637,-4.1352,-3.9746,-4.0578,-4.3701,-4.578,-4.6523,-4.8242,-4.9766,-5.1055,-5.1719,-5.2461,-5.3281,-5.2656,-5.2344,-5.2305,-5.168,-5.1289,-5.1055,-5.1055,-5.0195,-4.8594,-4.6445,-4.4258,-4.2031,0.0,0.0,0.0,0.0,0.0,0.0,0.0,0.0,0.0,0.0,0.0,0.0,0.0,0.0,0.0,0.0,0.0,0.0,0.0,0.0,0.0,0.0,0.0,0.0,0.0,0.0,0.0,0.0,0.0,0.0,0.0,0.0,-4.9711,-5.0933,-5.3703,-5.6126,-5.7588,-5.9704,-6.0858,-6.0408,-6.1704,-6.2627,-6.2627,-6.3628,-6.4243,-6.4243,-6.5051,-6.5551,-6.5551,-6.5782,-6.5897,-6.5897,-6.5768,-6.5676,-6.5676,-6.5542,-6.5485,-6.5499,-6.5367,-6.5331,-6.5268,-6.4552,-6.3474,-6.2201,-6.1256,-6.0039,-5.8713,-5.8713,-5.8418,-5.7997,-5.7997,-5.7997,-5.7886,0.0,-2.5219,-2.5308,-2.5308,-2.5308,-2.5308,-2.5308,-2.5308,-2.6192,-2.8621,-3.2006,-3.5437,-3.87,-4.1893,-4.4124,-4.4979,-4.4586,-4.3943,-4.3125,-4.1232,-4.1069,-4.3117,-4.5663,-4.7578,-4.8672,-5.0,-5.1094,-5.1953,-5.2812,-5.3516,-5.3984,-5.3476,-5.3242,-5.3203,-5.2344,-5.1953,-5.1914,-5.1562,-5.1133,-5.0547,-4.8672,-4.6875,-4.5078,-4.2891,-4.1172,-3.9726,-3.7617,-3.6953,-3.6914,-3.5664,0.0,0.0,0.0,0.0,0.0,0.0,0.0,0.0,0.0,0.0,0.0,0.0,0.0,0.0,0.0,0.0,0.0,0.0,0.0,0.0,0.0,0.0,0.0,0.0,-5.024,-5.351,-5.5549,-5.6819,-5.828,-6.0358,-6.1473,-6.2216,-6.2551,-6.3358,-6.3858,-6.3858,-6.4666,-6.5282,-6.5628,-6.6128,-6.6551,-6.6936,-6.6936,-6.6936,-6.6936,-6.6936,-6.6744,-6.6397,-6.6397,-6.6244,-6.5897,-6.5897,-6.5897,-6.5859,-6.5359,-6.4178,-6.2529,-6.1578,-6.0191,-5.8693,0.0,0.0,0.0,0.0,-5.7997,-5.7923,0.0,-2.5308,-2.5308,-2.5308,-2.5308,-2.5308,-2.5308,-2.5308,-2.6538,-2.9962,-3.2622,-3.5783,-3.99,-4.2008,-4.3431,-4.4239,-4.4201,-4.3279,-4.1216,-4.1539,-4.3125,-4.6172,-4.6562,-4.7851,-5.0273,-5.1133,-5.2031,-5.3008,-5.3789,-5.4219,-5.4297,-5.418,-5.4141,-5.4101,-5.3242,-5.2773,-5.2656,-5.1875,-5.1484,-5.1328,-5.0625,-4.9336,-4.7695,-4.5976,-4.4805,-4.3828,-4.1367,-4.0039,-3.9219,-3.7578,0.0,0.0,0.0,0.0,0.0,0.0,0.0,0.0,0.0,0.0,0.0,0.0,0.0,0.0,0.0,0.0,0.0,0.0,0.0,0.0,0.0,0.0,0.0,0.0,-5.3857,-5.6857,-5.9319,-5.9127,-5.9588,-6.1831,-6.2178,-6.2551,-6.3358,-6.4243,-6.4743,-6.4743,-6.5551,-6.6359,-6.7051,-6.7167,0.0,0.0,0.0,-6.8385,-6.8385,-6.8385,-6.8013,-6.7244,-6.7128,-6.6744,-6.6013,-6.5936,-6.5897,-6.5897,-6.5897,-6.4715,-6.2719,-6.2197,-6.0698,-5.8652,-5.8172,-5.7997,-5.7997,-5.7997,-5.7997,-5.7997,0.0,-2.5308,-2.5308,-2.5308,-2.5308,-2.5308,-2.5308,-2.5308,-2.6538,-2.9962,-3.2622,-3.5552,-3.913,-4.1662,-4.3431,-4.4239,-4.3701,-4.3217,-4.2901,-4.4392,-4.5625,-4.6289,-4.832,-5.0,-5.1133,-5.1992,-5.3203,-5.4805,-5.4961,-5.539,-5.6094,-5.539,-5.5039,-5.5,-5.4141,-5.3359,-5.2695,-5.2539,-5.2031,-5.1406,-5.1211,-5.0586,-4.9492,-4.7773,-4.6992,-4.6601,-4.4687,-4.4375,-4.4648,-4.3594,-4.2226,-4.0742,-3.9766,0.0,0.0,0.0,0.0,0.0,0.0,0.0,0.0,0.0,0.0,0.0,0.0,0.0,0.0,0.0,0.0,0.0,0.0,0.0,0.0,-5.3164,-5.6011,-5.8434,-6.0281,-6.1012,-6.1562,-6.2062,-6.2666,-6.3397,-6.4282,-6.5128,-6.5628,-6.5628,-6.6397,-6.6936,-6.709,-6.7782,-6.8244,-6.8385,-6.8385,-6.8385,-6.8385,-6.8385,-6.8321,-6.8129,-6.7436,0.0,-6.6859,-6.6205,-6.5897,-6.5897,-6.5897,-6.5022,-6.3604,-6.2788,-6.0987,-5.8652,-5.8172,-5.7997,-5.7997,-5.7997,-5.7997,-5.7997,-2.5308,-2.5308,-2.5308,-2.5308,-2.5308,-2.5308,-2.5308,-2.5308,-2.6385,-2.9352,-3.1621,-3.4083,-3.7084,-3.8892,-4.0046,-4.0469,-4.061,-4.1474,-4.3272,-4.4823,-4.6211,-4.7539,-4.9258,-5.0781,-5.2031,-5.2891,-5.3984,-5.5312,-5.5742,-5.6172,-5.6601,-5.6133,-5.5937,-5.5898,-5.5039,-5.418,-5.332,-5.2891,-5.2187,-5.1406,-5.1406,-5.1172,-5.0625,-4.8906,-4.7969,-4.7422,-4.6133,-4.5937,-4.6172,-4.5273,-4.4414,-4.3476,-4.2187,-4.0312,-3.8008,0.0,0.0,0.0,0.0,0.0,0.0,0.0,0.0,0.0,0.0,0.0,0.0,0.0,0.0,-4.5758,0.0,0.0,-5.3395,-5.5972,-5.7819,-5.9358,-6.0627,-6.155,-6.2255,-6.2666,-6.3435,-6.4282,-6.5166,-6.5628,-6.6051,-6.6474,-6.6859,-6.7475,-6.8359,-6.8821,-6.9244,-6.9629,-6.9667,-6.9667,-6.9667,-6.9667,-6.9436,-6.9052,-6.8167,-6.7513,-6.7051,-6.6282,-6.5897,-6.5897,-6.5897,-6.5269,-6.412,-6.236,-6.0486,-5.8652,-5.8172,-5.7997,-5.7997,-5.7997,-5.7997,-5.7997,-2.5308,-2.5308,-2.5308,-2.5308,-2.5308,-2.5308,-2.5308,-2.5308,-2.6154,-2.8549,-3.0352,-3.2346,-3.4731,-3.5731,-3.6353,-3.6654,-3.8142,-4.0298,0.0,-4.4863,-4.6719,-4.8828,-4.9883,-5.1211,-5.293,-5.3633,-5.4492,-5.5547,-5.625,-5.6601,-5.6601,-5.6601,-5.6601,-5.6562,-5.5859,-5.5078,-5.4219,-5.332,-5.2461,-5.1641,-5.1484,-5.1406,-5.1211,-4.9531,-4.8476,-4.7734,-4.6875,-4.6328,-4.5976,-4.543,-4.5156,-4.4766,-4.3555,-4.2617,-4.1328,-3.8164,-3.75,0.0,0.0,0.0,0.0,0.0,0.0,0.0,0.0,0.0,-4.3737,-4.5894,-4.8304,-5.0598,-5.2489,-5.4698,-5.6703,-5.828,-5.9204,-6.0012,-6.0704,-6.155,-6.232,-6.2974,-6.3974,-6.4936,-6.582,-6.5897,-6.6244,-6.7051,-6.7244,-6.8052,-6.9629,-6.986,-7.0244,-7.0898,-7.0898,-7.0898,-7.0898,-7.0898,-7.0552,-6.9937,-6.9052,-6.8205,-6.7321,-6.6513,-6.6051,-6.5897,-6.5897,-6.5397,-6.4424,-6.195,-6.0209,-5.9,-5.829,-5.7997,-5.7997,-5.7997,-5.7997,-5.7997,0.0,-2.5308,-2.5308,-2.5308,-2.5308,-2.5308,-2.5308,-2.5308,-2.5962,-2.7775,-2.9506,-3.1231,-3.3006,-3.3968,-3.5084,-3.6577,-3.9743,-4.2171,-4.3327,-4.6583,-4.8594,-4.8906,-5.043,-5.207,-5.3828,-5.3945,-5.4805,-5.6445,-5.6562,-5.6601,-5.6601,-5.6601,-5.6601,-5.6601,-5.6484,-5.5976,-5.5117,-5.4219,-5.3359,-5.25,-5.1719,-5.1406,-5.1211,-4.9531,-4.8828,-4.8633,-4.7773,-4.6445,-4.5234,-4.5937,-4.5625,-4.5117,-4.5664,-4.5273,-4.418,-4.2266,0.0,-3.9375,-3.8203,-3.812,-3.9066,-4.2015,-4.2252,-4.3147,0.0,0.0,-5.0303,-5.1351,-5.3575,-5.5369,-5.5528,-5.6898,-5.8319,-5.9204,-6.0089,-6.0704,-6.0781,-6.155,-6.2139,-6.2216,-6.3628,-6.4936,-6.582,-6.5897,-6.6244,-6.7051,-6.7821,-6.8667,-6.9667,-7.0398,-7.0821,-7.0898,-7.0898,-7.0898,-7.0898,-7.0898,-7.086,-7.0744,-6.9937,-6.909,-6.8244,-6.7359,-6.659,-6.5897,-6.5897,-6.5397,-6.4462,-6.2558,-6.1256,-6.032,-5.865,-5.7997,-5.7997,-5.7997,-5.7997,-5.7997,0.0,-2.5308,-2.5308,-2.5308,-2.5308,-2.5308,-2.5308,-2.5308,-2.5731,-2.6967,-2.8198,-2.9198,-2.989,-3.0743,-3.1929,-3.366,-3.7549,-4.0471,-4.1863,-4.6312,-4.8906,-4.8906,-5.0508,-5.2226,-5.3945,-5.3984,-5.4844,-5.6601,-5.6601,-5.6601,-5.6601,-5.6601,-5.6601,-5.6601,-5.6601,-5.582,-5.4531,-5.4141,-5.3203,-5.1914,-5.1562,-5.1406,-5.1289,-5.0117,-4.9336,-4.8711,-4.7344,-4.6055,0.0,0.0,-4.5703,-4.5156,-4.6016,-4.5703,-4.4766,-4.3516,-4.3008,0.0,-4.3047,-4.3788,0.0,0.0,-4.7738,-4.9622,-5.2021,-5.3094,-5.3959,-5.5326,-5.6687,-5.7797,-5.8247,-5.9118,-5.9858,0.0,-6.055,-6.0781,-6.0781,-6.155,-6.2101,-6.2101,-6.3128,-6.4205,-6.5051,-6.559,-6.6436,-6.7744,-6.8205,-6.8975,-7.0321,-7.0706,-7.0898,-7.0898,-7.0898,-7.0898,-7.0898,-7.0898,-7.0898,-7.0898,-7.009,-6.9513,-6.9129,-6.7744,-6.6667,-6.5897,-6.5897,-6.5397,-6.4462,-6.2634,-6.1442,-6.0505,-5.8708,-5.7997,-5.7997,-5.7997,-5.7997,-5.7997,0.0,-2.5308,-2.5308,-2.5308,-2.5308,-2.5308,-2.5308,-2.5308,-2.5538,-2.6154,-2.7005,-2.7621,-2.7857,-2.8813,-2.9967,-3.1237,-3.5387,-3.8659,-4.0432,-4.529,-4.8358,-4.8867,-5.0273,-5.1992,-5.3945,-5.3984,-5.4844,-5.6601,-5.6601,-5.6601,-5.6601,-5.6601,-5.6601,-5.6601,-5.6601,-5.5781,-5.4336,-5.4101,-5.3125,-5.1758,-5.1484,-5.1289,-5.0976,-5.0156,-4.8984,-4.7656,-4.6406,-4.5234,0.0,0.0,-4.4297,-4.4062,-4.4687,-4.4766,-4.457,-4.418,-4.4687,-4.5508,-4.6133,0.0,0.0,-4.9657,-5.2209,-5.4718,-5.4851,-5.5804,-5.7028,-5.832,-5.903,-5.9599,-6.0227,-6.0604,-6.0781,-6.0781,-6.1012,-6.105,-6.0819,-6.155,-6.2024,-6.1793,-6.2474,-6.3205,-6.3858,-6.4897,-6.6359,-6.8282,-6.8385,-6.9129,-7.0821,-7.0898,-7.0898,-7.0898,-7.0898,-7.0898,-7.0898,-7.0898,-7.0898,-7.0898,-7.0321,-6.9898,-6.9629,-6.7898,-6.6667,-6.5897,-6.5897,-6.5551,-6.4821,-6.3144,-6.1888,-6.0863,-5.9197,-5.834,-5.7997,-5.7997,-5.7997,-5.7997,0.0,0.0,-2.5308,-2.5308,-2.5308,-2.5308,-2.5308,-2.5308,-2.5308,-2.5346,-2.6115,-2.6967,-2.7818,-2.939,-3.0385,-3.0423,-3.4432,-3.7717,-3.9536,-4.3734,-4.7015,-4.8828,-4.9766,-5.1406,-5.3945,-5.3984,-5.4844,-5.6601,-5.6601,-5.6601,-5.6601,-5.6601,-5.6601,-5.6601,-5.6601,-5.6094,-5.5195,-5.4375,-5.3476,-5.2578,-5.1758,-5.0937,-5.0156,-4.9258,-4.7344,-4.5117,-4.5078,0.0,0.0,0.0,-4.0625,-4.1328,-4.1367,-4.2461,0.0,-4.4726,-4.5586,0.0,0.0,0.0,-5.0507,-5.1999,-5.4365,-5.655,-5.7377,-5.8861,-6.0085,-6.0272,-6.0792,-6.1244,-6.1244,-6.1,-6.0781,-6.0781,-6.1524,-6.1793,-6.0935,-6.155,-6.1793,-6.0935,-6.1589,-6.2139,0.0,-6.3666,-6.5705,-6.8192,-6.8385,-6.9129,-7.0821,-7.0898,-7.0898,-7.0898,-7.0898,-7.0898,-7.0898,-7.0898,-7.0898,-7.0898,-7.0898,-7.0437,-6.9629,-6.7898,-6.6667,-6.5897,-6.5897,-6.5859,-6.5756,-6.4403,-6.3047,-6.1729,-6.0466,-5.9143,-5.7997,-5.7997,-5.7997,-5.7997,0.0,0.0,0.0,-2.5308,-2.5308,-2.5308,-2.5308,-2.5308,-2.55,-2.6077,-2.6928,0.0,0.0,0.0,0.0,0.0,0.0,-3.6789,-3.8572,-4.2813,-4.5833,-4.6976,-4.9061,-5.0859,-5.2226,-5.2851,-5.3711,-5.4883,-5.4883,-5.4883,-5.4883,-5.4883,-5.4883,-5.4883,-5.4883,-5.4375,-5.3555,-5.3242,-5.2969,-5.2578,-5.1172,-5.0742,-5.0781,-4.8789,-4.6755,-4.4637,0.0,0.0,0.0,-3.9838,-3.9685,-3.9687,-4.0859,0.0,0.0,-4.3711,-4.5976,-4.8164,0.0,0.0,-5.3867,-5.4958,-5.7143,-5.9135,-5.9409,-6.0385,-6.1007,-6.0411,-6.0364,-6.0215,-5.9551,-5.9689,-5.9935,-5.9935,-6.1127,-6.1793,-6.0935,-6.2012,-6.2358,-6.0973,-6.1562,0.0,0.0,0.0,0.0,-6.7398,-6.809,-6.9129,-7.0821,-7.0898,-7.0898,-7.0898,-7.0898,-7.0898,-7.0898,-7.0898,-7.0898,-7.0898,-7.0898,-7.0167,-6.8821,-6.8244,-6.7205,-6.5897,-6.5897,-6.5897,-6.5795,-6.4456,-6.3101,-6.1766,-6.0524,-5.9202,-5.7997,-5.7997,-5.7997,-5.7997,0.0,0.0,0.0,0.0,0.0,0.0,0.0,0.0,0.0,0.0,0.0,0.0,0.0,0.0,0.0,0.0,0.0,0.0,-3.7204,-4.0604,-4.3359,-4.5141,-4.6639,-4.8242,-5.0,-5.0273,-5.1133,-5.2656,-5.2656,-5.2773,-5.3086,-5.3086,-5.3086,-5.3086,-5.3086,-5.2617,-5.1797,-5.1797,-5.1641,-5.1211,-4.9844,-4.9375,-4.9336,-4.7029,-4.4872,0.0,0.0,0.0,-3.7182,-3.7404,-3.7767,0.0,0.0,0.0,0.0,-4.4609,-4.7109,-4.9766,-5.1523,-5.4062,-5.6523,-5.7656,-5.9414,-6.0859,-6.0859,-6.1055,-6.0975,-5.9963,-5.9178,-5.842,-5.773,-5.74,-5.7665,-5.8858,-6.0242,-6.1166,-6.1243,-6.2435,-6.2897,-6.182,-6.1935,-6.2216,0.0,0.0,0.0,-6.6551,-6.7744,-6.9013,-7.0398,-7.0744,-7.0898,-7.0898,-7.0898,-7.0898,-7.0898,-7.0898,-7.0898,-7.0898,-7.0898,-7.0014,-6.8385,-6.8385,-6.7475,-6.5897,-6.5897,-6.5897,-6.5846,-6.498,-6.3724,-6.2237,-6.113,-5.9743,-5.84,-5.8107,-5.7997,-5.7997,0.0,0.0,0.0,0.0,0.0,0.0,0.0,0.0,0.0,0.0,0.0,0.0,0.0,0.0,0.0,0.0,0.0,0.0,0.0,0.0,0.0,-4.3281,-4.2812,-4.4023,-4.7344,-4.668,-4.7539,-5.0,-5.0,-5.039,-5.1133,-5.1132,-5.1132,-5.1132,-5.1133,-5.0703,-5.0,-5.0,-4.9531,-4.8672,-4.7773,-4.6914,-4.5976,-4.416,0.0,0.0,0.0,0.0,0.0,0.0,0.0,0.0,0.0,0.0,0.0,0.0,-4.9062,-5.1172,-5.4531,-5.6719,-5.8437,-6.0078,-6.1094,-6.168,-6.164,-6.0976,-6.0038,-5.8992,-5.7354,-5.5969,0.0,0.0,-5.4318,-5.7588,-5.8973,-6.0204,-6.187,-6.2858,-6.3385,0.0,0.0,0.0,0.0,0.0,0.0,-6.5897,0.0,-6.8821,-6.9706,-7.0475,-7.0898,-7.0898,-7.0898,-7.0898,-7.0898,-7.0898,-7.0898,-7.0898,-7.0898,-7.0052,-6.8475,-6.8436,-6.7513,-6.5974,-6.5897,-6.5897,-6.5897,-6.5897,-6.4794,-6.301,-6.2218,-6.0798,-5.9074,-5.829,-5.7997,-5.7997,0.0,0.0,0.0,0.0,0.0,0.0,0.0,0.0,0.0,0.0,0.0,0.0,0.0,0.0,0.0,0.0,0.0,0.0,0.0,0.0,0.0,0.0,-4.2001,-4.3742,-4.4687,-4.5742,-4.6641,-4.7305,-4.7179,-4.7247,-4.7442,-4.7406,-4.7384,-4.7387,-4.7428,-4.7325,-4.7131,-4.7264,-4.7146,-4.6743,0.0,-4.4461,-4.4038,0.0,0.0,0.0,0.0,0.0,0.0,0.0,0.0,0.0,0.0,0.0,-4.7383,0.0,0.0,-5.4453,-5.664,-5.8476,-6.0039,-6.1094,-6.1523,-6.1523,-6.0898,-6.0117,-5.8865,-5.6563,-5.512,-5.3636,0.0,0.0,0.0,-5.5318,-5.8819,0.0,-6.2062,-6.3897,0.0,-6.3474,0.0,-6.4743,-6.432,-6.559,0.0,0.0,-6.7782,-6.9052,-7.0514,-7.0783,-7.0898,-7.0898,-7.0898,-7.0898,-7.0898,-7.0898,-7.0898,-7.0898,-7.0898,-7.036,-6.936,-6.8706,-6.7821,-6.6744,-6.6167,-6.5897,-6.5897,-6.5897,-6.4794,-6.301,-6.2218,-6.0798,-5.9074,-5.829,-5.7997,-5.7997,0.0,0.0,0.0,0.0,0.0,0.0,0.0,0.0,0.0,0.0,0.0,0.0,0.0,0.0,0.0,0.0,0.0,0.0,0.0,0.0,0.0,-3.7141,-3.9098,-4.0498,-4.1306,-4.2669,-4.338,-4.3393,0.0,0.0,-4.3872,-4.3802,-4.3806,-4.3778,-4.3785,-4.3802,-4.3804,-4.3915,0.0,0.0,0.0,0.0,0.0,0.0,0.0,0.0,0.0,0.0,0.0,0.0,0.0,-4.4492,-4.6601,-4.8476,-5.0351,-5.293,0.0,-5.6836,-5.8515,-5.9961,-6.1094,-6.1562,-6.1406,-6.082,-5.957,-5.8359,-5.66,-5.3516,-5.1767,0.0,0.0,0.0,0.0,0.0,0.0,0.0,-6.2358,-6.3858,-6.482,0.0,-6.5513,0.0,-6.6244,-6.7128,-6.7821,0.0,-6.8706,-6.9398,-7.0321,-7.0706,-7.0898,-7.0898,-7.0898,-7.0898,-7.0898,-7.0898,-7.0898,-7.0898,-7.0898,-7.0475,-6.9667,-6.8821,-6.7936,-6.7051,-6.6244,-6.5897,-6.5897,-6.5897,-6.5008,-6.3596,-6.2746,-6.1321,-5.9648,-5.8841,-5.829,-5.7997,0.0,0.0,0.0,0.0,0.0,0.0,0.0,0.0,0.0,0.0,0.0,0.0,0.0,0.0,0.0,0.0,0.0,0.0,0.0,0.0,0.0,-3.5525,-3.5751,-3.6575,-3.8075,-3.9006,-3.9474,0.0,0.0,0.0,0.0,0.0,0.0,0.0,0.0,0.0,0.0,0.0,0.0,0.0,0.0,0.0,0.0,0.0,0.0,0.0,0.0,0.0,0.0,0.0,-4.5848,-4.7422,-5.0039,-5.2031,-5.3867,-5.6367,-5.7656,-5.8555,-6.0156,-6.1133,-6.1719,-6.1719,-6.0937,-5.9765,-5.8125,-5.6172,-5.3785,-5.0356,0.0,-4.6662,-4.5666,-4.6252,-4.8277,-5.2358,0.0,-5.8462,-6.2692,-6.3385,-6.4359,-6.6821,-6.659,-6.6859,-6.8436,-6.8667,-6.9052,-6.9821,-6.986,-6.986,-6.986,-7.0514,-7.0898,-7.0898,-7.0898,-7.0898,-7.0898,-7.0898,-7.0898,-7.0898,-7.0898,-7.0514,-6.9821,-6.8859,-6.7975,-6.7205,-6.6282,-6.5897,-6.5897,-6.5808,-6.523,-6.4294,-6.3371,-6.1948,-6.0309,-5.9478,-5.8694,-5.7997,0.0,0.0,0.0,0.0,0.0,0.0,0.0,0.0,0.0,0.0,-3.2769,-3.1737,0.0,0.0,0.0,0.0,0.0,0.0,0.0,0.0,0.0,0.0,-3.595,-3.6854,-3.7212,0.0,0.0,0.0,0.0,0.0,0.0,0.0,0.0,0.0,0.0,0.0,0.0,0.0,0.0,0.0,0.0,0.0,0.0,0.0,0.0,0.0,0.0,0.0,0.0,0.0,-4.7413,-5.0976,-5.3594,-5.5586,-5.7344,-5.9219,-5.9844,-6.0195,-6.1211,-6.1562,-6.1719,-6.1719,-6.0462,-5.8809,-5.7187,-5.4288,0.0,0.0,0.0,-4.4922,-4.3973,-4.5556,0.0,-5.1694,0.0,0.0,0.0,0.0,-6.5051,0.0,0.0,0.0,0.0,0.0,0.0,0.0,-7.0706,-7.0706,-7.0706,-7.0821,-7.0898,-7.0898,-7.0898,-7.0898,-7.0898,-7.0898,-7.0898,-7.0898,-7.0898,-7.0821,-7.0629,-6.909,-6.8321,-6.809,-6.6551,-6.5897,-6.5885,-6.5432,-6.4921,-6.4275,-6.3018,-6.1656,-6.0309,-5.9478,-5.8694,-5.7997,0.0,0.0,0.0,0.0,0.0,0.0,0.0,-3.2391,-3.3583,-3.7046,-3.6392,-3.5315,-3.4353,-3.343,-3.2891,0.0,0.0,0.0,0.0,0.0,0.0,0.0,0.0,0.0,0.0,0.0,0.0,0.0,0.0,0.0,0.0,0.0,0.0,0.0,0.0,0.0,0.0,0.0,0.0,0.0,0.0,0.0,0.0,0.0,0.0,0.0,0.0,0.0,0.0,0.0,-4.7803,-5.1875,-5.4492,-5.6484,-5.8242,-5.9922,-6.039,-6.0586,-6.1445,-6.1719,-6.1719,-6.1719,-5.999,-5.7666,-5.5155,0.0,0.0,0.0,0.0,-4.2541,-4.2113,0.0,0.0,0.0,0.0,0.0,0.0,0.0,0.0,0.0,0.0,0.0,0.0,0.0,0.0,-7.0898,-7.0898,-7.0898,-7.0898,-7.0898,-7.0898,-7.0898,-7.0898,-7.0898,-7.0898,-7.0898,-7.0898,-7.0898,-7.0898,-7.0898,-7.0821,-6.9167,-6.8385,-6.8321,-6.6628,-6.5897,-6.5872,-6.5306,-6.4816,-6.4294,-6.3381,-6.1937,-6.0346,-5.9979,-5.9061,-5.7997,0.0,0.0,0.0,0.0,0.0,0.0,0.0,-3.4468,-3.5815,-3.9631,-3.9785,-3.8777,-3.6776,-3.5045,-3.3853,0.0,0.0,0.0,0.0,0.0,0.0,0.0,0.0,0.0,0.0,0.0,0.0,0.0,0.0,0.0,0.0,0.0,0.0,0.0,0.0,0.0,0.0,0.0,0.0,0.0,0.0,0.0,0.0,0.0,0.0,0.0,0.0,0.0,0.0,0.0,-4.7025,-5.0508,-5.3086,-5.5742,-5.8164,-5.9492,-6.0117,-6.0586,-6.1445,-6.1719,-6.1719,-6.1719,-5.94,-5.6326,-5.3358,-4.9452,0.0,0.0,-4.131,-4.0601,-4.1007,0.0,0.0,0.0,0.0,0.0,0.0,0.0,0.0,0.0,0.0,0.0,0.0,0.0,0.0,-7.0898,-7.0898,-7.0898,-7.0898,-7.0898,-7.0898,-7.0898,-7.0898,-7.0898,-7.0898,-7.0898,-7.0898,-7.0898,-7.0898,-7.0898,-7.0821,-6.9167,-6.8385,-6.8321,-6.6628,-6.5897,-6.5872,-6.5306,-6.4816,-6.4332,-6.3808,-6.2285,-6.0419,-6.0419,-5.9391,-5.7997,0.0,0.0,0.0,0.0,0.0,0.0,0.0,-3.5385,-3.7154,-4.2085,-4.1362,-4.0285,-4.0054,-3.8546,-3.693,0.0,0.0,0.0,0.0,0.0,0.0,0.0,0.0,0.0,0.0,0.0,0.0,0.0,0.0,0.0,0.0,0.0,0.0,0.0,0.0,0.0,0.0,0.0,0.0,0.0,0.0,0.0,0.0,0.0,0.0,0.0,0.0,0.0,0.0,0.0,0.0,-4.6055,-4.8672,-5.3359,-5.793,-5.8086,0.0,0.0,-6.1445,-6.1719,-6.1719,-6.1719,-5.8402,-5.4745,-5.3082,0.0,0.0,-4.2354,-4.0886,-4.024,-4.1696,-4.2248,0.0,0.0,0.0,0.0,0.0,0.0,0.0,0.0,0.0,0.0,0.0,0.0,0.0,-7.0898,-7.0898,-7.0898,-7.0898,-7.0898,-7.0898,-7.0898,-7.0898,-7.0898,-7.0898,-7.0898,-7.0898,-7.0898,-7.0898,-7.0898,-7.0821,-6.9167,-6.8385,-6.8321,-6.6628,-6.5897,-6.5872,-6.5306,-6.4816,-6.4332,-6.3808,-6.2285,-6.0419,-6.0419,-5.9391,-5.7997,0.0,0.0,0.0,0.0,0.0,0.0,-3.5615,-3.5808,-3.75,-4.3085,-4.2816,-4.2047,-4.2047,-4.0508,-3.843,-3.5731,0.0,0.0,0.0,0.0,0.0,0.0,0.0,0.0,0.0,0.0,0.0,0.0,0.0,0.0,0.0,0.0,0.0,0.0,0.0,0.0,0.0,0.0,0.0,0.0,0.0,0.0,0.0,0.0,0.0,0.0,0.0,0.0,0.0,0.0,0.0,0.0,-4.5,-4.8437,0.0,0.0,-5.7187,-5.8515,-6.039,-6.1289,-6.1562,-6.0963,-5.7821,-5.4208,-5.1605,0.0,-4.2913,-4.1698,-4.0422,-3.9902,-4.1089,-4.1754,-4.2856,-4.5106,-4.645,-4.8774,0.0,0.0,0.0,0.0,0.0,0.0,0.0,0.0,-7.0898,-7.0898,-7.0898,-7.0898,-7.0898,-7.0898,-7.0898,-7.0898,-7.0898,-7.0898,-7.0898,-7.0898,-7.0898,-7.0898,-7.0898,-7.0898,-7.0821,-6.9167,-6.8385,-6.8321,-6.6628,-6.5897,-6.5872,-6.5306,-6.5003,-6.4765,-6.4275,-6.2963,-6.13,-6.13,-6.0087,-5.8482,0.0,0.0,0.0,0.0,0.0,-3.1731,-3.5731,-3.6077,-3.7692,-4.2893,-4.3278,-4.3008,-4.2739,-4.1393,-3.9438,-3.6853,-3.6154,0.0,0.0,0.0,0.0,0.0,0.0,0.0,0.0,0.0,0.0,0.0,0.0,0.0,0.0,0.0,0.0,0.0,0.0,0.0,0.0,0.0,0.0,0.0,0.0,0.0,0.0,0.0,0.0,0.0,0.0,0.0,0.0,0.0,0.0,0.0,0.0,0.0,0.0,0.0,-5.4922,-5.6797,-5.9336,-6.0664,-6.1131,-6.0393,-5.7343,-5.3763,0.0,0.0,-4.2572,-4.1269,-4.0198,-3.9768,-4.0694,-4.137,-4.2159,-4.3314,-4.4429,-4.6644,-5.0854,0.0,0.0,0.0,0.0,0.0,0.0,0.0,-7.0898,-7.0898,-7.0898,-7.0898,-7.0898,-7.0898,-7.0898,-7.0898,-7.0898,-7.0898,-7.0898,-7.0898,-7.0898,-7.0898,-7.0898,-7.0783,-7.0514,-6.9052,-6.8282,-6.7936,-6.6513,-6.5897,-6.5885,-6.5475,-6.5261,-6.5083,-6.4731,-6.3479,-6.1917,-6.1917,-6.0642,-5.8951,0.0,0.0,0.0,0.0,0.0,0.0,-3.5,-3.6192,-3.7923,-4.1385,-4.2585,-4.2777,-4.1923,-4.1046,-4.0169,-3.9323,-3.77,0.0,0.0,0.0,0.0,0.0,0.0,0.0,0.0,0.0,-4.2074,-4.2074,-4.3148,0.0,0.0,0.0,0.0,0.0,0.0,0.0,0.0,0.0,0.0,0.0,0.0,0.0,0.0,0.0,0.0,0.0,0.0,0.0,0.0,0.0,0.0,0.0,0.0,0.0,0.0,0.0,-5.2656,-5.5898,-5.8515,-5.9805,-6.0389,-6.0237,-5.6987,-5.3123,0.0,-4.596,-4.2063,-4.117,-4.0311,-3.9958,-4.0857,-4.1014,-4.1617,-4.3398,-4.5055,-4.7588,-5.1882,0.0,0.0,0.0,0.0,0.0,0.0,0.0,-7.0898,-7.0898,-7.0898,-7.0898,-7.0898,-7.0898,-7.0898,-7.0898,-7.0898,-7.0898,-7.0898,-7.0898,-7.0898,-7.0898,-7.0898,-7.0475,-6.9667,-6.8821,-6.7936,-6.7051,-6.6244,-6.5897,-6.5897,-6.5897,-6.5569,-6.5099,-6.5099,-6.3774,-6.1917,-6.1917,-6.0823,-5.9319,0.0,0.0,0.0,0.0,0.0,0.0,0.0,-3.4314,-3.5545,-3.9585,-3.9815,-3.9931,-4.0816,-4.0169,-3.9785,-4.0092,-3.8584,0.0,0.0,0.0,0.0,0.0,0.0,0.0,0.0,0.0,-4.3284,-4.3864,-4.4944,-4.5156,-4.4566,0.0,0.0,0.0,0.0,0.0,0.0,0.0,0.0,0.0,0.0,0.0,0.0,0.0,0.0,0.0,0.0,0.0,0.0,0.0,0.0,0.0,0.0,0.0,0.0,0.0,0.0,0.0,-5.332,-5.4922,-5.5701,-5.4374,-5.2608,-5.0503,-4.7908,-4.518,-4.2817,-4.1438,-4.084,-4.0662,-4.0937,-4.1016,-4.2155,-4.5646,-4.6748,0.0,0.0,0.0,0.0,0.0,0.0,0.0,0.0,0.0,-7.0898,-7.0898,-7.0898,-7.0898,-7.0898,-7.0898,-7.0898,-7.0898,-7.0898,-7.0898,-7.0898,-7.0898,-7.0898,-7.0898,-7.0898,-7.0475,-6.9667,-6.8821,-6.7936,-6.7051,-6.6244,-6.5897,-6.5897,-6.5897,-6.5795,-6.5663,-6.5663,-6.4507,-6.2863,-6.2863,-6.1597,-5.9901,0.0,0.0,0.0,0.0,0.0,0.0,0.0,-3.3314,-3.4468,-3.7469,-3.793,-3.8623,-4.0323,-3.9785,-3.9746,-4.0893,-4.0046,0.0,0.0,0.0,0.0,0.0,0.0,0.0,-4.1769,-4.2848,-4.3989,-4.5192,-4.6584,-4.6992,-4.6484,-4.6701,-4.5958,0.0,0.0,0.0,0.0,0.0,0.0,0.0,0.0,0.0,0.0,0.0,0.0,0.0,0.0,0.0,0.0,0.0,0.0,0.0,0.0,0.0,0.0,0.0,-4.4297,0.0,0.0,-5.1953,-5.2811,-5.1911,-5.0629,-4.8963,-4.6623,-4.4571,-4.2761,-4.1484,-4.1129,-4.1078,-4.1078,-4.1078,-4.2173,-4.5454,-4.6052,0.0,0.0,0.0,0.0,0.0,0.0,0.0,0.0,-7.0514,-7.0898,-7.0898,-7.0898,-7.0898,-7.0898,-7.0898,-7.0898,-7.0898,-7.0898,-7.0898,-7.0898,-7.0898,-7.0898,-7.0898,-7.0898,-7.0321,-6.9206,-6.8667,-6.7744,-6.6628,-6.6128,-6.5897,0.0,-6.5897,-6.5897,-6.5859,-6.5551,-6.4551,-6.3281,-6.2974,-6.1812,-6.0365,0.0,0.0,0.0,0.0,0.0,0.0,0.0,-3.3083,-3.443,-3.5269,-3.6815,-3.843,-4.0054,-3.9631,-3.9892,-4.1546,0.0,0.0,0.0,0.0,0.0,0.0,0.0,0.0,-4.1885,-4.2876,-4.4253,-4.6091,-4.791,-4.8828,-4.8906,-4.9592,-4.8597,-4.6171,-4.592,0.0,0.0,0.0,0.0,0.0,0.0,0.0,0.0,0.0,0.0,0.0,0.0,0.0,0.0,0.0,0.0,0.0,0.0,0.0,0.0,0.0,0.0,0.0,0.0,0.0,0.0,0.0,-5.0143,-4.8045,-4.6247,-4.4049,0.0,-4.1367,-4.1211,-4.125,-4.1367,-4.1328,-4.1914,-4.3867,-4.4219,0.0,0.0,0.0,0.0,0.0,0.0,0.0,-6.8436,-6.9975,-7.0898,-7.0898,-7.0898,-7.0898,-7.0898,-7.0898,-7.0898,-7.0898,-7.0898,-7.0898,-7.0898,-7.0898,-7.086,-7.0821,-7.0821,-6.9937,-6.8321,-6.8321,-6.7436,-6.5897,-6.5897,-6.5897,-6.5897,-6.5897,-6.5897,-6.582,-6.4936,-6.4089,-6.3192,-6.2397,-6.155,-6.0746,0.0,0.0,0.0,0.0,0.0,0.0,0.0,0.0,0.0,0.0,-3.543,-3.6462,-3.7469,-3.8007,-3.8969,0.0,0.0,0.0,0.0,0.0,0.0,0.0,0.0,0.0,-4.2777,-4.3105,-4.4437,-4.6904,-4.7482,-4.8154,-4.8906,-4.9061,-4.8427,-4.7069,-4.634,-4.4922,0.0,0.0,0.0,0.0,0.0,0.0,0.0,0.0,0.0,0.0,0.0,-4.0781,0.0,0.0,0.0,0.0,0.0,0.0,0.0,0.0,-3.9726,-3.9687,-4.1758,0.0,-4.539,-4.4919,-4.4843,-4.4648,0.0,-4.2811,-4.2187,0.0,0.0,0.0,-4.2891,-4.2578,-4.3555,-4.7969,0.0,0.0,0.0,0.0,0.0,0.0,0.0,0.0,-7.0206,-7.0667,-7.0898,-7.0898,-7.0898,-7.0898,-7.0898,-7.0898,-7.0898,-7.0898,-7.0898,-7.0898,-7.0898,-7.0898,-7.0591,-6.9975,-6.9975,-6.909,-6.7398,-6.7398,-6.6859,-6.5897,-6.5897,-6.5897,-6.5897,-6.5897,-6.5897,-6.582,-6.4936,-6.4089,-6.3192,-6.2397,-6.155,-6.0769,0.0,0.0,0.0,0.0,0.0,0.0,0.0,0.0,0.0,0.0,0.0,-3.6385,-3.7199,-3.8084,0.0,0.0,0.0,0.0,0.0,0.0,0.0,0.0,0.0,-4.1739,-4.3085,-4.3561,-4.5099,-4.78,-4.8326,-4.9083,-5.0039,-5.0039,-4.9292,-4.7925,-4.622,-4.4894,0.0,0.0,0.0,0.0,0.0,0.0,0.0,0.0,0.0,0.0,-3.9961,-3.9961,0.0,-4.1328,-4.1758,-4.1758,0.0,0.0,0.0,0.0,-3.8359,-3.8125,-3.8594,-4.0859,-4.3086,-4.3008,-4.3359,-4.3594,-4.3086,0.0,0.0,0.0,0.0,0.0,0.0,0.0,0.0,0.0,0.0,0.0,0.0,0.0,0.0,0.0,0.0,-6.9436,0.0,-7.0667,-7.0898,-7.0898,-7.0898,-7.0898,-7.0898,-7.0898,-7.0898,-7.0898,-7.0552,-7.0514,-7.0898,-7.0514,-7.0129,-6.9706,-6.9283,-6.8398,-6.709,-6.709,-6.6667,-6.5897,-6.5897,-6.5897,-6.5897,-6.5897,-6.5667,-6.5205,-6.4359,-6.3474,-6.2666,-6.182,-6.1204,-6.0781,0.0,0.0,0.0,0.0,0.0,0.0,0.0,0.0,0.0,0.0,0.0,0.0,0.0,0.0,0.0,0.0,0.0,0.0,0.0,0.0,0.0,0.0,-4.1923,-4.22,-4.3085,-4.3996,-4.5735,-4.831,-4.9409,-5.0447,-5.1406,-5.1523,-5.0542,-4.8589,-4.6169,-4.5036,0.0,0.0,0.0,0.0,0.0,0.0,0.0,0.0,0.0,0.0,0.0,0.0,0.0,-4.1289,-4.1875,-4.1992,-4.1835,0.0,0.0,0.0,0.0,0.0,-3.7578,-4.0,-4.2539,-4.3164,-4.3516,-4.3711,0.0,0.0,0.0,0.0,0.0,0.0,0.0,0.0,0.0,0.0,0.0,0.0,0.0,0.0,0.0,0.0,0.0,0.0,-6.9436,-7.0129,-7.0514,-7.0514,-7.0514,-7.0514,-7.0514,-7.0514,-7.0514,-7.0514,-6.986,-6.9821,-7.0514,-6.986,-6.9436,-6.9283,-6.8552,-6.7744,-6.6898,-6.6898,-6.6551,-6.5897,-6.5897,-6.5897,-6.5897,-6.5743,-6.5282,-6.4512,-6.3512,-6.2704,-6.1985,-6.1127,-6.0781,-6.0781,0.0,0.0,0.0,0.0,0.0,0.0,0.0,0.0,0.0,0.0,0.0,0.0,0.0,0.0,0.0,0.0,0.0,0.0,0.0,0.0,0.0,-4.3932,-4.2547,-4.22,-4.3085,-4.3926,-4.5343,-4.741,-4.9032,-5.0371,-5.1406,-5.2148,-5.1128,-4.8628,-4.7369,-4.6473,-4.588,-4.5891,0.0,0.0,0.0,0.0,0.0,0.0,0.0,0.0,0.0,0.0,0.0,-3.8736,-3.9563,-4.0156,-3.9282,0.0,0.0,0.0,0.0,0.0,-3.8906,-4.0937,-4.2266,-4.1719,-4.2656,-4.3711,-4.3711,0.0,0.0,0.0,0.0,0.0,0.0,0.0,0.0,0.0,0.0,0.0,0.0,0.0,0.0,0.0,0.0,-6.7628,-6.8513,-6.8706,-6.8783,-6.8783,-6.8783,-6.8783,-6.8783,-6.8783,-6.8783,-6.8783,-6.8667,-6.8667,-6.8783,-6.8667,-6.8244,-6.7513,-6.7359,-6.6859,-6.609,-6.609,-6.6013,-6.5897,-6.5897,-6.5897,-6.582,-6.5089,-6.4705,-6.4436,-6.2897,-6.2216,-6.1985,-6.1127,-6.0781,-6.0781,0.0,0.0,0.0,0.0,0.0,0.0,0.0,0.0,0.0,0.0,0.0,0.0,0.0,0.0,0.0,0.0,0.0,0.0,0.0,0.0,-4.4509,-4.4979,-4.3816,-4.3355,-4.3739,-4.5102,-4.6739,-4.8587,-5.0403,-5.1839,-5.2773,-5.1659,-4.9994,-4.7964,-4.6941,-4.6367,-4.6091,-4.6195,0.0,0.0,0.0,0.0,0.0,0.0,0.0,0.0,0.0,0.0,0.0,0.0,-3.93,-4.0274,-3.938,0.0,0.0,0.0,0.0,0.0,-3.7461,-3.9726,-4.1758,-4.1836,-4.3828,-4.5664,-4.5195,0.0,0.0,0.0,0.0,0.0,0.0,0.0,0.0,0.0,0.0,0.0,0.0,0.0,-6.4337,0.0,0.0,-6.7244,-6.7667,-6.8129,-6.8385,-6.8385,-6.8385,-6.8385,-6.8385,-6.8385,-6.8385,-6.8385,-6.7936,-6.7705,-6.7705,-6.7282,-6.7051,-6.709,-6.6667,-6.6244,-6.5897,-6.5897,-6.5897,-6.5897,-6.5897,-6.5628,-6.5166,-6.4782,-6.4051,-6.3166,-6.2409,-6.1831,-6.137,-6.0935,-6.0781,-6.0781,0.0,0.0,0.0,0.0,0.0,0.0,0.0,0.0,0.0,0.0,0.0,0.0,0.0,0.0,0.0,0.0,0.0,0.0,0.0,-4.3855,-4.4701,-4.5556,-4.5163,-4.4893,-4.4893,-4.652,-4.8299,-5.011,-5.2158,-5.3578,-5.4258,-5.1659,-4.9478,-4.7652,-4.6693,-4.6193,-4.6093,-4.6247,-4.6289,0.0,0.0,0.0,0.0,0.0,0.0,0.0,0.0,0.0,0.0,0.0,0.0,0.0,0.0,0.0,0.0,-3.7962,-3.6952,-3.6445,-3.7031,-3.918,-4.1445,-4.2461,0.0,-4.7344,-4.7461,0.0,0.0,0.0,0.0,0.0,0.0,0.0,0.0,0.0,0.0,0.0,-6.2729,-6.3953,-6.5082,-6.582,-6.6436,-6.6821,-6.6821,-6.7436,-6.7821,-6.7821,-6.7821,-6.7821,-6.7821,-6.7821,-6.7821,-6.7821,-6.7167,-6.6821,-6.6821,-6.6205,-6.6205,-6.6821,-6.6205,-6.5897,-6.5897,-6.5897,-6.5782,-6.559,-6.559,-6.5089,-6.4282,-6.4089,-6.3243,-6.2101,-6.187,-6.1408,-6.0781,-6.0781,-6.0781,-6.0781,0.0,0.0,0.0,0.0,0.0,0.0,0.0,0.0,0.0,0.0,0.0,0.0,0.0,0.0,0.0,0.0,0.0,0.0,0.0,-4.3855,-4.4701,-4.5556,-4.6317,-4.6692,-4.6692,-4.7688,-4.912,-5.1001,-5.3643,-5.5023,-5.5156,-5.3217,-5.0967,-4.8552,-4.7682,-4.6862,-4.6093,-4.6247,-4.6289,-4.6133,0.0,0.0,0.0,0.0,0.0,0.0,0.0,0.0,0.0,0.0,0.0,0.0,0.0,0.0,-3.9531,-3.8596,-3.7802,-3.7734,-4.0156,-4.1016,-4.1601,-4.3203,-4.5,0.0,-5.0312,-5.0342,0.0,-5.1669,0.0,0.0,0.0,0.0,0.0,0.0,0.0,-6.2945,-6.363,0.0,-6.5062,-6.582,-6.5936,-6.5974,-6.5974,-6.6051,-6.609,-6.609,-6.609,-6.609,-6.609,-6.609,-6.609,-6.609,-6.6013,-6.5974,-6.5974,-6.5936,-6.5936,-6.5974,-6.5936,-6.5897,-6.5897,-6.5897,-6.5474,-6.4705,-6.4705,-6.4205,-6.3358,-6.2589,-6.2216,-6.2024,-6.1204,-6.0858,-6.0781,-6.0781,-6.0781,-6.0781,0.0,0.0,0.0,0.0,0.0,0.0,0.0,0.0,0.0,0.0,0.0,0.0,0.0,0.0,0.0,0.0,0.0,0.0,0.0,-4.3547,-4.4701,-4.5556,-4.5932,-4.6586,-4.7625,-4.9637,-5.152,-5.3333,-5.5077,-5.5407,-5.4453,-5.2051,-4.9897,-4.7962,-4.7001,-4.6458,-4.6245,-4.6289,-4.6289,-4.6211,-4.5,0.0,0.0,0.0,0.0,0.0,0.0,0.0,0.0,0.0,-3.7006,-3.8025,-3.7522,-3.8391,-3.9474,-3.8623,-3.7881,-3.7539,-3.8516,-4.0703,-4.2773,-4.2851,-4.582,0.0,0.0,-5.1209,-5.2181,-5.3898,-5.4251,0.0,0.0,0.0,0.0,0.0,0.0,-6.3651,-6.3786,-6.4952,-6.5846,-6.6028,-6.6148,-6.6176,-6.6056,-6.6035,-6.5997,-6.5923,-6.5897,-6.5897,-6.5897,-6.5897,-6.5897,-6.5897,-6.5897,-6.5897,-6.5897,-6.5897,-6.5897,-6.5897,-6.5897,-6.5897,-6.5859,-6.532,-6.4897,-6.4589,-6.4051,-6.332,-6.2512,-6.2216,-6.1793,-6.1243,-6.0935,-6.0781,-6.0781,-6.0781,-6.0781,-6.0781,0.0,0.0,0.0,0.0,0.0,0.0,0.0,0.0,0.0,0.0,0.0,0.0,0.0,0.0,0.0,0.0,0.0,0.0,-4.1769,-4.2854,-4.4008,-4.5133,-4.5441,-4.6394,-4.8048,-5.0675,-5.2763,-5.4281,-5.571,-5.5394,-5.3472,-5.1158,-4.9328,-4.7969,-4.6709,-4.6359,-4.668,-4.6406,-4.6289,-4.6211,-4.5351,-4.4492,0.0,0.0,0.0,0.0,0.0,0.0,0.0,0.0,-3.6725,-3.7606,-3.7623,-3.8564,-3.9505,-3.8945,-3.8654,-3.8476,-3.8203,-4.0664,-4.3281,0.0,0.0,0.0,-5.1445,-5.2695,-5.414,-5.6402,-5.644,0.0,0.0,0.0,0.0,0.0,-6.2191,-6.3661,-6.3886,-6.5088,-6.603,-6.6165,-6.6312,-6.632,-6.6137,-6.6109,-6.6039,-6.5923,-6.5897,-6.5897,-6.5897,-6.5897,-6.5897,-6.5897,-6.5897,-6.5897,-6.5897,-6.5897,-6.5743,-6.5474,-6.5474,-6.5474,-6.5474,-6.4859,-6.432,-6.3782,-6.3166,-6.2435,-6.1678,-6.1678,-6.1331,-6.0781,-6.0781,-6.0781,-6.0781,-6.0781,-6.0781,-6.0781,0.0,0.0,0.0,0.0,0.0,0.0,0.0,0.0,0.0,0.0,0.0,0.0,0.0,0.0,0.0,0.0,0.0,0.0,-4.1731,-4.1808,-4.2547,-4.4201,-4.5133,-4.6355,-4.8048,-5.0538,-5.2385,-5.3412,-5.5411,-5.5026,-5.2416,-5.0894,-4.9726,-4.8789,-4.707,-4.6797,-4.7539,-4.668,-4.6289,-4.6211,-4.5351,-4.4492,0.0,0.0,0.0,0.0,0.0,0.0,0.0,0.0,-3.6846,-3.7,-3.8738,-3.9414,-3.9618,-3.9607,-4.0346,-4.1016,-4.0156,-4.1133,-4.2851,0.0,0.0,0.0,-5.4141,-5.5312,-5.6248,-5.9532,0.0,-5.8014,-5.9022,0.0,0.0,-6.0234,-6.1559,-6.2852,-6.3946,-6.4681,-6.5408,-6.627,-6.6393,-6.6281,-6.6098,-6.607,-6.6039,-6.5923,-6.5897,-6.5897,-6.5897,-6.5897,-6.5859,-6.5859,-6.5859,-6.5859,-6.5859,-6.5859,-6.5436,-6.4589,-6.4589,-6.4589,-6.4589,-6.4589,-6.3666,-6.2101,-6.2101,-6.1601,-6.0781,-6.0781,-6.0781,-6.0781,-6.0781,-6.0781,-6.0781,-6.0781,-6.0781,-6.0781,0.0,0.0,0.0,0.0,0.0,0.0,0.0,0.0,0.0,0.0,0.0,0.0,0.0,0.0,0.0,0.0,0.0,0.0,-4.0893,-4.147,-4.2316,-4.3393,-4.4239,-4.5201,-4.6317,-4.824,-5.061,-5.339,-5.4091,-5.2851,-4.9803,-4.9449,-4.8476,-4.707,-4.7187,-4.7031,-4.668,-4.6406,-4.6289,-4.6289,-4.6016,-4.5039,0.0,0.0,0.0,0.0,0.0,0.0,0.0,0.0,0.0,0.0,-3.7315,-3.8827,-4.0165,-3.9007,-3.9808,-4.0881,-4.0116,-4.2031,0.0,0.0,0.0,0.0,0.0,0.0,0.0,0.0,-6.0386,-5.9684,-6.0,0.0,0.0,-6.0351,-6.1683,-6.2832,-6.3133,-6.3893,-6.4501,-6.4735,-6.4872,-6.5045,-6.5355,-6.5404,-6.5523,-6.587,-6.5897,-6.5628,-6.5013,-6.4974,-6.4705,-6.4089,-6.4089,-6.4089,-6.4089,-6.4089,-6.3935,-6.3705,-6.3705,-6.3705,-6.3666,-6.3089,-6.2563,-6.2062,-6.1447,-6.105,-6.0781,-6.0781,-6.0781,-6.0781,-6.0781,-6.0781,-6.0781,-6.0781,-6.0781,-6.0781,0.0,0.0,0.0,0.0,0.0,0.0,0.0,0.0,0.0,0.0,0.0,0.0,0.0,0.0,0.0,0.0,0.0,0.0,0.0,-4.1508,-4.22,-4.3047,-4.3855,-4.4855,-4.6086,-4.7432,-4.8976,-5.0819,-5.1677,-5.0728,-4.8119,-4.9015,-4.8672,-4.7383,-4.8242,-4.8164,-4.7305,-4.6953,-4.6601,-4.6289,-4.6289,-4.5273,-4.3633,0.0,0.0,0.0,0.0,0.0,0.0,0.0,0.0,0.0,-3.6231,-3.7365,-3.8666,-3.8397,-3.9624,-4.1198,-4.1757,0.0,0.0,0.0,0.0,0.0,0.0,0.0,0.0,0.0,0.0,-6.0508,-6.0859,-6.0583,0.0,-6.0859,-6.1697,-6.2407,-6.2824,-6.3336,-6.3804,-6.4156,-6.4254,-6.4358,-6.4582,-6.4591,-6.4668,-6.4869,-6.4859,-6.4628,-6.4128,-6.4089,-6.3858,-6.332,-6.3308,-6.3308,-6.3308,-6.3308,-6.3128,-6.282,-6.282,-6.2627,-6.232,-6.2166,-6.1908,-6.155,-6.1012,-6.0781,-6.0781,-6.0781,-6.0781,-6.0781,-6.0781,-6.0781,-6.0781,-6.0781,-6.0781,-6.0781,0.0,0.0,0.0,0.0,0.0,0.0,0.0,0.0,0.0,0.0,-4.0516,0.0,0.0,0.0,0.0,0.0,0.0,0.0,0.0,-4.1923,-4.2316,-4.3162,-4.397,-4.5163,-4.674,-4.7509,-4.7509,-4.6778,-4.8729,-4.8788,-4.7125,-4.9124,-4.9609,-4.8828,-4.9687,-4.9531,-4.8594,-4.7734,-4.6875,-4.6055,-4.6133,-4.5156,-4.3594,-4.3594,0.0,0.0,0.0,0.0,0.0,0.0,0.0,0.0,-3.5624,-3.5707,-3.6115,-3.7732,-3.9614,-4.1718,0.0,0.0,0.0,0.0,0.0,0.0,0.0,0.0,0.0,0.0,0.0,-6.0742,-6.1562,-6.0962,-6.0634,-6.1562,-6.1585,-6.1846,-6.2734,-6.289,-6.3164,-6.3984,-6.4062,-6.3967,-6.3692,-6.3663,-6.3581,-6.3318,-6.3308,-6.3281,-6.3205,-6.3205,-6.3166,-6.3089,-6.3089,-6.3089,-6.3089,-6.3089,-6.2704,-6.1985,-6.1985,-6.1562,-6.0819,-6.1639,-6.155,-6.0781,-6.0781,-6.0781,-6.0781,-6.0781,-6.0781,-6.0781,-6.0781,-6.0781,-6.0781,-6.0781,-6.0781,-6.0781,0.0,0.0,0.0,0.0,0.0,0.0,0.0,0.0,0.0,0.0,0.0,0.0,0.0,0.0,0.0,0.0,0.0,0.0,0.0,-4.2816,-4.3201,-4.4008,-4.4855,-4.5518,-4.5855,-4.6056,-4.6056,-4.5902,-4.783,-4.7889,-4.6234,-4.8226,-4.8711,-4.793,-4.8789,-4.832,-4.6797,-4.5937,-4.5078,-4.4336,-4.5,-4.4258,-4.2695,-4.2695,-4.0976,0.0,0.0,0.0,0.0,0.0,0.0,0.0,-3.6462,-3.6681,-3.6805,-3.723,-3.9097,-4.1306,0.0,0.0,0.0,0.0,0.0,0.0,0.0,0.0,0.0,0.0,0.0,-6.1484,-6.168,-6.1522,-6.1443,-6.164,-6.1679,-6.1717,-6.1953,-6.1992,-6.2031,-6.2226,-6.2265,-6.2404,-6.2752,-6.2795,-6.2913,-6.3279,-6.3308,-6.3012,-6.2397,-6.237,-6.205,-6.1358,-6.1358,-6.1358,-6.1358,-6.1358,-6.1243,-6.1089,-6.1089,-6.0973,-6.0819,-6.0973,-6.0973,-6.0781,-6.0781,-6.0781,-6.0781,-6.0781,-6.0781,-6.0781,-6.0781,-6.0781,-6.0781,-6.0781,-6.0781,-6.0781,0.0,0.0,0.0,0.0,0.0,0.0,0.0,0.0,0.0,0.0,0.0,0.0,0.0,0.0,0.0,0.0,0.0,0.0,0.0,-4.347,-4.4047,-4.4902,-4.5364,-4.5594,-4.5594,-4.521,-4.5171,-4.5594,-4.6323,-4.6614,-4.6554,-4.8969,-4.9844,-4.9453,-5.0312,-4.9531,-4.7461,-4.6172,-4.5117,-4.4336,-4.4375,-4.3594,-4.2344,-4.1953,-4.0234,-3.793,-3.7461,0.0,0.0,0.0,0.0,0.0,0.0,0.0,-3.5499,-3.6754,-3.8141,-3.9873,0.0,0.0,0.0,0.0,0.0,0.0,0.0,0.0,0.0,0.0,-6.1719,-6.1719,-6.1719,-6.1719,-6.1719,-6.1719,-6.1719,-6.1719,-6.1719,-6.1719,-6.1719,-6.1719,-6.1719,-6.1787,-6.1985,-6.2006,-6.2112,-6.2314,-6.2258,-6.2032,-6.1608,-6.1516,-6.1281,-6.0819,-6.0781,-6.0781,-6.0781,-6.0781,-6.0781,-6.0781,-6.0781,-6.0781,-6.0781,-6.0781,-6.0781,-6.0781,-6.0781,-6.0781,-6.0781,-6.0781,-6.0781,-6.0781,-6.0781,-6.0781,-6.0781,-6.0781,-6.0781,-6.0781,0.0,0.0,0.0,0.0,0.0,0.0,0.0,0.0,0.0,0.0,0.0,0.0,0.0,0.0,0.0,0.0,0.0,0.0,0.0,-4.4085,-4.4855,-4.5556,-4.5594,-4.5518,-4.5364,-4.4662,-4.4662,-4.5364,-4.4909,-4.5754,-4.7925,-5.014,-5.1289,-5.1445,-5.1992,-5.0859,-4.8359,-4.6601,-4.5195,-4.4062,-4.3516,-4.2656,-4.168,-4.1016,-3.9297,-3.7266,-3.7148,-3.6597,-3.5913,-3.5913,0.0,0.0,0.0,0.0,-3.396,-3.6115,-3.7027,-3.8242,0.0,0.0,0.0,0.0,0.0,0.0,0.0,0.0,0.0,0.0,-6.1719,-6.1719,-6.1719,-6.1719,-6.1719,-6.1719,-6.1719,-6.1719,-6.1719,-6.1719,-6.1719,-6.1719,-6.1679,-6.1631,-6.1509,-6.1491,-6.1409,-6.1295,-6.115,-6.104,-6.1006,-6.0874,-6.0839,-6.0781,-6.0781,-6.0781,-6.0781,-6.0781,-6.0781,-6.0781,-6.0781,-6.0781,-6.0781,-6.0781,-6.0781,-6.0781,-6.0781,-6.0781,-6.0781,-6.0781,-6.0781,-6.0781,-6.0781,-6.0781,-6.0781,-6.0781,-6.0781,-6.0781,0.0,0.0,0.0,0.0,0.0,0.0,0.0,0.0,0.0,0.0,0.0,-4.2701,-4.2038,-4.2547,0.0,0.0,0.0,0.0,-4.4085,0.0,0.0,-4.5594,-4.5594,-4.5248,-4.447,-4.4355,-4.4355,-4.447,-4.4516,-4.6607,-5.059,-5.0414,-5.0742,-5.1367,-5.0781,-4.9101,-4.6523,-4.4805,-4.2695,-4.0625,-4.1289,-4.0547,-3.9101,-3.8984,-3.8242,-3.7187,-3.6445,-3.6094,-3.5976,-3.5976,-3.5975,0.0,0.0,0.0,0.0,-3.4921,-3.6094,0.0,0.0,0.0,0.0,0.0,0.0,0.0,0.0,0.0,0.0,0.0,-6.1719,-6.1719,-6.1719,-6.1719,-6.1719,-6.1719,-6.1719,-6.1719,-6.1719,-6.1719,-6.1719,-6.1719,-6.1585,-6.1515,-6.1504,-6.1387,-6.1306,-6.1289,-6.1265,-6.1186,-6.1014,-6.097,-6.0925,-6.0793,-6.0781,-6.0781,-6.0781,-6.0781,-6.0781,-6.0781,-6.0781,-6.0781,-6.0781,-6.0781,-6.0781,-6.0781,-6.0781,-6.0781,-6.0781,-6.0781,-6.0781,-6.0781,-6.0781,-6.0781,-6.0781,-6.0781,-6.0781,-6.0781,0.0,0.0,0.0,0.0,0.0,0.0,0.0,0.0,0.0,0.0,0.0,-4.3624,-4.3239,-4.2701,0.0,0.0,0.0,0.0,-4.3585,-4.4393,0.0,-4.4855,-4.5325,-4.521,-4.4316,-4.3855,-4.3855,-4.4316,-4.349,-4.6034,-5.1668,-5.1076,-5.234,-5.4922,-5.2617,-5.0703,-4.8906,-4.5234,-4.2773,-4.125,-4.0703,-4.0859,-4.1211,-3.8789,-3.8555,-3.918,-3.6836,-3.6016,-3.6016,-3.6016,-3.6016,-3.6016,-3.6016,0.0,0.0,0.0,0.0,0.0,0.0,0.0,0.0,0.0,0.0,0.0,0.0,0.0,0.0,0.0,-6.1719,-6.1719,-6.1719,-6.1719,-6.1719,-6.1719,-6.1719,-6.1719,-6.1719,-6.1719,-6.1719,-6.1719,-6.1637,-6.1629,-6.1629,-6.1573,-6.1517,-6.1517,-6.1435,-6.1344,-6.1186,-6.1065,-6.0925,-6.0793,-6.0781,-6.0781,-6.0781,-6.0781,-6.0781,-6.0781,-6.0781,-6.0781,-6.0781,-6.0781,-6.0781,-6.0781,-6.0781,-6.0781,-6.0781,-6.0781,-6.0781,-6.0781,-6.0781,-6.0781,-6.0781,-6.0781,-6.0781,-6.0781,0.0,0.0,0.0,0.0,0.0,0.0,0.0,0.0,0.0,0.0,0.0,0.0,-4.4316,0.0,0.0,0.0,0.0,0.0,-4.2701,0.0,0.0,0.0,-4.4932,-4.4863,-4.4008,-4.3393,-4.3278,-4.3662,-4.2746,-4.5673,-5.2126,-5.1978,-5.4385,-5.8668,-5.5234,-5.2734,-5.082,-4.6523,-4.4062,-4.293,-4.1445,-4.1875,-4.3125,-4.0781,-4.0976,-4.207,-3.8789,-3.75,-3.7187,-3.6289,-3.6016,-3.5976,-3.5742,-3.4766,0.0,0.0,0.0,0.0,0.0,0.0,0.0,0.0,0.0,0.0,0.0,0.0,0.0,0.0,-6.1562,-6.1719,-6.1719,-6.1719,-6.1719,-6.1719,-6.1719,-6.1719,-6.1719,-6.1719,-6.1719,-6.1719,-6.1678,-6.1677,-6.1719,-6.1678,-6.1678,-6.1719,-6.1627,-6.1488,-6.1295,-6.1165,-6.0991,-6.0793,-6.0781,-6.0781,-6.0781,-6.0781,-6.0781,-6.0781,-6.0781,-6.0781,-6.0781,-6.0781,-6.0781,-6.0781,-6.0781,-6.0781,-6.0781,-6.0781,-6.0781,-6.0781,-6.0781,-6.0781,-6.0781,-6.0781,-6.0781,-6.0781,0.0,0.0,0.0,0.0,0.0,0.0,0.0,0.0,0.0,0.0,0.0,0.0,-4.4393,-4.3547,-4.2701,-4.1885,0.0,0.0,0.0,0.0,0.0,0.0,0.0,0.0,-4.3162,-4.3124,-4.2739,-4.1923,-4.267,-4.6167,-5.2218,-5.3151,-5.6344,-6.1161,-5.7886,-5.4101,-5.0156,-4.8203,-4.6406,-4.4766,-4.3867,-4.3086,-4.2812,-4.5898,-4.6641,-4.5703,-4.3008,-4.1562,-4.043,-3.7109,-3.6016,-3.5859,-3.5039,-3.4726,-3.4336,0.0,0.0,0.0,0.0,0.0,0.0,0.0,0.0,0.0,0.0,0.0,0.0,0.0,-6.1133,-6.1719,-6.1719,-6.1719,-6.1719,-6.1719,-6.1719,-6.1719,-6.1719,-6.1719,-6.1719,-6.1719,-6.1582,-6.1573,-6.1679,-6.1582,-6.1573,-6.1679,-6.168,-6.1579,-6.1301,-6.1277,-6.1151,-6.0804,-6.0781,-6.0781,-6.0781,-6.0781,-6.0781,-6.0781,-6.0781,-6.0781,-6.0781,-6.0781,-6.0781,-6.0781,-6.0781,-6.0781,-6.0781,-6.0781,-6.0781,-6.0781,-6.0781,-6.0781,-6.0781,-6.0781,-6.0781,-6.0781,0.0,0.0,0.0,0.0,0.0,0.0,0.0,0.0,0.0,0.0,0.0,0.0,0.0,-4.4393,-4.3547,-4.2701,-4.1316,0.0,0.0,0.0,0.0,0.0,0.0,0.0,0.0,-4.3085,-4.2662,-4.1808,-4.1546,-4.4221,-4.9594,-5.0142,-5.2282,-5.5567,-5.5143,-5.4375,-5.3125,-4.8086,-4.5586,-4.4961,-4.4648,-4.5703,-4.7344,-4.6914,-4.8281,-4.9922,-4.6211,-4.3984,-4.2617,-4.1367,-3.9492,-3.7539,-3.6641,-3.5234,-3.3555,-3.1875,0.0,0.0,0.0,0.0,0.0,0.0,0.0,0.0,0.0,0.0,0.0,-5.8789,-5.9883,-6.0859,-6.0859,-6.1328,-6.1719,-6.1719,-6.1719,-6.1719,-6.1719,-6.1719,-6.1719,-6.1719,-6.1677,-6.1636,-6.1719,-6.1677,-6.1637,-6.1719,-6.1719,-6.1631,-6.1421,-6.1339,-6.1179,-6.0954,-6.0845,-6.0781,-6.0781,-6.0781,-6.0781,-6.0781,-6.0781,-6.0781,-6.0781,-6.0781,-6.0781,-6.0781,-6.0781,-6.0781,-6.0781,-6.0781,-6.0781,-6.0781,-6.0781,-6.0781,-6.0781,-6.0781,-6.0781,-6.0781,0.0,0.0,0.0,0.0,0.0,0.0,0.0,0.0,-4.3508,-4.3508,0.0,0.0,0.0,0.0,-4.397,-4.3162,-4.1777,-4.0931,-4.0931,-4.12,0.0,0.0,0.0,0.0,0.0,-4.3355,-4.2931,-4.1808,-4.1508,-4.3426,-4.7345,-4.8183,-4.9932,-5.2356,-5.2291,-5.3242,-5.4531,-4.9648,-4.7422,-4.7187,-4.7461,-4.8789,-5.0625,-5.0937,-5.2266,-5.3594,-5.0469,-4.8008,-4.6094,-4.4961,-4.2656,-4.0,-3.8281,-3.5547,-3.2734,-3.1328,-3.1914,0.0,0.0,0.0,0.0,0.0,0.0,0.0,0.0,0.0,0.0,-5.6914,-5.8398,-5.9648,-5.9922,-6.0469,-6.1055,-6.1601,-6.1719,-6.1719,-6.1719,-6.1719,-6.1719,-6.1719,-6.1719,-6.1719,-6.1719,-6.1719,-6.1719,-6.1719,-6.1719,-6.1635,-6.1507,-6.1364,-6.1179,-6.0925,-6.0856,-6.0781,-6.0781,-6.0781,-6.0781,-6.0781,-6.0781,-6.0781,-6.0781,-6.0781,-6.0781,-6.0781,-6.0781,-6.0781,-6.0781,-6.0781,-6.0781,-6.0781,-6.0781,-6.0781,-6.0781,-6.0781,-6.0781,-6.0781,0.0,0.0,0.0,0.0,0.0,0.0,0.0,0.0,-4.4316,-4.4316,0.0,0.0,0.0,0.0,0.0,-4.3239,-4.2393,-4.1846,-4.1808,-4.1008,0.0,0.0,0.0,0.0,-4.3085,-4.3855,-4.347,-4.1808,-4.2624,-4.3952,-4.5705,-4.7515,-4.9765,-5.2197,-4.9876,-5.0703,-5.375,-5.2812,-5.2031,-5.1484,-5.2226,-5.2148,-5.2226,-5.8047,-5.8789,-5.6601,-5.5742,-5.375,-5.1055,-4.7734,-4.5351,-4.3203,-3.9687,-3.5664,-3.2109,-3.1211,-3.1601,0.0,0.0,0.0,0.0,0.0,0.0,0.0,0.0,0.0,0.0,-5.4765,-5.6523,-5.8008,-5.8945,-5.914,-5.9687,-6.1367,-6.164,-6.168,-6.1719,-6.1719,-6.1719,-6.1719,-6.1719,-6.1719,-6.1719,-6.1719,-6.1719,-6.1719,-6.1719,-6.1636,-6.1509,-6.1369,-6.1135,-6.0827,-6.0804,-6.0793,-6.0793,-6.0793,-6.0781,-6.0781,-6.0781,-6.0781,-6.0781,-6.0781,-6.0781,-6.0781,-6.0781,-6.0781,-6.0781,-6.0781,-6.0781,-6.0781,-6.0781,-6.0781,-6.0781,-6.0781,-6.0781,-6.0781,0.0,0.0,0.0,0.0,0.0,-4.4316,-4.4316,-4.4316,-4.4316,0.0,0.0,0.0,-4.5594,-4.5364,-4.5171,-4.494,-4.4124,-4.3085,-4.1885,-4.1585,-4.1546,-4.1769,-4.2624,-4.3085,-4.3085,-4.3316,-4.2893,-4.1808,-4.1393,-4.1809,-4.2942,-4.4199,-4.5874,-4.7809,-4.7918,-4.8476,-4.9219,-4.7109,-4.8203,-5.125,-4.9648,-5.1875,-5.6133,-5.6562,-5.7812,-5.9258,-5.8437,-5.6836,-5.5039,-5.4062,-5.0547,-4.5469,-3.9531,-3.5976,-3.3828,-3.2969,-3.3789,-3.4687,-3.3398,0.0,0.0,0.0,0.0,0.0,0.0,0.0,0.0,-5.0976,-5.2461,-5.4023,-5.6797,-5.7812,-5.8633,-5.9726,-6.039,-6.0976,-6.1601,-6.1719,-6.1719,-6.1719,-6.1719,-6.1719,-6.1719,-6.1719,-6.1719,-6.1719,-6.1719,-6.1679,-6.1636,-6.1512,-6.1359,-6.1189,-6.1027,-6.0935,-6.0935,-6.0856,-6.0781,-6.0781,-6.0781,-6.0781,-6.0781,-6.0781,-6.0781,-6.0781,-6.0781,-6.0781,-6.0781,-6.0781,-6.0781,-6.0781,-6.0781,-6.0781,-6.0781,-6.0781,-6.0781,-6.0781,0.0,0.0,0.0,-4.5594,-4.547,-4.5393,-4.5393,-4.5393,-4.5393,0.0,0.0,0.0,-4.6086,-4.7095,-4.7287,-4.624,-4.5355,-4.4124,-4.247,-4.2,-4.1662,-4.1277,-4.2431,-4.3085,-4.3085,-4.3778,-4.355,-4.2401,-4.1861,-4.1556,-4.1396,-4.2398,-4.321,-4.3884,-4.4541,-4.5033,-4.5269,-4.3046,-4.5078,-4.9883,-5.0547,-5.3008,-5.6406,-5.7539,-5.8789,-5.9922,-6.0156,-5.914,-5.7695,-5.7695,-5.3437,-4.7187,-4.1719,-3.8555,-3.6562,-3.4961,-3.5703,0.0,0.0,0.0,0.0,0.0,0.0,0.0,-4.332,-4.4258,0.0,0.0,-5.0312,-5.1719,-5.4453,-5.539,-5.625,-5.7851,-5.8515,-5.9375,-6.0937,-6.1172,-6.1289,-6.164,-6.1719,-6.1719,-6.1719,-6.1719,-6.1719,-6.1719,-6.1719,-6.1679,-6.1631,-6.1525,-6.1421,-6.1289,-6.1112,-6.0997,-6.0997,-6.086,-6.0781,-6.0781,-6.0781,-6.0781,-6.0781,-6.0781,-6.0781,-6.0781,-6.0781,-6.0781,-6.0781,-6.0781,-6.0781,-6.0781,-6.0781,-6.0781,-6.0781,-6.0781,-6.0781,-6.0781,0.0,0.0,-4.5633,-4.5748,-4.6394,-4.6962,-4.7163,-4.7077,-4.7095,0.0,-4.678,-4.6728,-4.7683,-4.9622,-4.9951,-4.767,-4.6488,-4.5133,-4.3355,-4.2431,-4.1508,-4.0554,-4.2162,-4.3047,-4.297,-4.4586,-4.4685,-4.3053,-4.3053,-4.2272,-4.08,-4.1595,-4.1529,-4.075,-4.0825,-4.1287,-4.1924,-4.0777,-4.3125,-4.8008,-5.2617,-5.4492,-5.5078,-5.957,-6.0547,-5.9687,-6.1172,-6.0742,-5.9414,-5.914,-5.4922,-4.9101,-4.5312,-4.2578,-4.0195,-3.7383,-3.7812,0.0,-3.8008,-3.8437,0.0,0.0,0.0,0.0,-4.4492,-4.4414,-4.4336,0.0,-4.8789,-4.9922,-5.1797,-5.2226,-5.3086,-5.5508,-5.6133,-5.7226,-5.9883,-6.0273,-6.0547,-6.1328,-6.1406,-6.1406,-6.1406,-6.1406,-6.1445,-6.1562,-6.164,-6.1637,-6.152,-6.1515,-6.1481,-6.1339,-6.1179,-6.1065,-6.104,-6.0902,-6.0816,-6.0781,-6.0781,-6.0781,-6.0781,-6.0781,-6.0781,-6.0781,-6.0781,-6.0781,-6.0781,-6.0781,-6.0781,-6.0781,-6.0781,-6.0781,-6.0781,-6.0781,-6.0781,-6.0781,0.0,-4.5594,-4.5825,-4.6509,-4.6778,-4.7355,-4.8702,-4.8317,-4.839,-4.99,-5.0661,-5.1647,-5.3164,-5.2492,-5.1726,-5.1223,-4.899,-4.6586,-4.4201,-4.3316,-4.2124,-4.0554,-4.2162,-4.2777,-4.2085,-4.3701,-4.3798,-4.224,-4.224,-4.1716,-4.0704,-4.0935,-4.0585,-3.9684,-3.984,-3.9998,-4.032,-4.2126,-4.472,-4.7695,-4.8711,-5.2734,-5.8203,-5.8515,-5.9726,-6.125,-6.1562,-6.1484,-6.0898,-5.8828,-5.6797,-5.4141,-4.8594,-4.6484,-4.5312,-4.1367,-4.1367,-4.2383,-4.0859,-4.1562,0.0,0.0,0.0,0.0,-4.0508,-4.0937,-4.207,0.0,-4.3789,-4.4883,-4.8008,-4.918,-5.0039,-5.125,-5.3164,-5.5664,-5.8984,-5.9414,-5.9492,-5.9687,-5.9687,-5.9687,-5.9687,-5.9687,-5.9961,-6.0586,-6.1289,-6.1679,-6.1677,-6.1677,-6.1637,-6.1631,-6.1498,-6.1364,-6.124,-6.1048,-6.0905,-6.0781,-6.0781,-6.0781,-6.0781,-6.0781,-6.0781,-6.0781,-6.0781,-6.0781,-6.0781,-6.0781,-6.0781,-6.0781,-6.0781,-6.0781,-6.0781,-6.0781,-6.0781,-6.0781,-4.5594,-4.5594,-4.5855,-4.674,-4.7231,-4.8086,-4.9779,-4.9663,-5.0073,-5.1903,-5.3763,-5.4752,-5.429,-5.4148,-5.3405,-5.17,-4.944,-4.7201,-4.5086,-4.3778,-4.2508,-4.12,-4.2008,-4.247,-4.247,-4.3278,-4.3335,-4.2589,-4.1782,-4.0891,-4.0051,-3.9699,-3.9658,-3.9934,-3.9198,-3.9832,-4.1596,-4.2102,-4.4089,-4.7226,-5.0234,-5.457,-5.9297,-6.0117,-6.125,-6.2344,-6.2344,-6.207,-6.125,-5.8242,-5.6953,-5.5781,-5.1016,-4.9805,-4.9375,0.0,-4.5273,-4.582,-4.3672,-4.3711,0.0,-4.3281,-4.3398,0.0,0.0,-4.2109,-4.2266,-4.3984,-4.332,-4.332,-4.6406,-4.6953,-4.7539,-4.9258,-5.0976,-5.2851,-5.5,-5.6797,-5.8047,-5.8515,-5.8555,-5.8555,-5.8555,-5.8945,-5.9375,-5.9765,-6.0195,-6.0625,-6.1015,-6.1055,-6.125,-6.168,-6.1577,-6.146,-6.1289,-6.1112,-6.0916,-6.0781,-6.0781,-6.0781,-6.0781,-6.0781,-6.0781,-6.0781,-6.0781,-6.0781,-6.0781,-6.0781,-6.0781,-6.0781,-6.0781,-6.0781,-6.0781,-6.0781,-6.0781,-6.0781,-4.5594,-4.5594,-4.5855,-4.674,-4.7702,-4.8933,-5.0664,-5.1048,-5.1913,-5.3938,-5.6436,-5.7381,-5.5599,-5.623,-5.579,-5.3339,-5.0662,-4.8432,-4.6894,-4.4932,-4.3355,-4.2316,-4.2124,-4.2393,-4.3085,-4.3085,-4.295,-4.2705,-4.1356,-4.0239,-3.9398,-3.8745,-3.9077,-4.0215,-3.9083,-4.0403,0.0,0.0,0.0,-4.8203,-5.3281,-5.625,-5.8047,-6.1094,-6.2148,-6.207,-6.2578,-6.2305,-6.125,-5.832,-5.7344,-5.6719,-5.3242,-5.2851,-5.3008,0.0,-4.9062,-4.9336,-4.6914,0.0,0.0,-4.6562,-4.5976,-4.5469,0.0,0.0,0.0,-4.5234,-4.3984,0.0,0.0,0.0,0.0,0.0,0.0,0.0,0.0,-5.3242,0.0,-5.6523,-5.6797,-5.6914,-5.6914,-5.7539,-5.8164,-5.8672,-5.8555,-5.8945,-6.0117,-6.0156,-6.0547,-6.1406,-6.1351,-6.129,-6.1328,-6.1165,-6.0982,-6.0834,-6.0816,-6.0781,-6.0781,-6.0781,-6.0781,-6.0781,-6.0781,-6.0781,-6.0781,-6.0781,-6.0781,-6.0781,-6.0781,-6.0781,-6.0781,-6.0781,-6.0781,-6.0781,-4.5594,-4.5594,-4.5855,-4.674,-4.8202,-4.9817,-5.15,-5.2433,-5.3896,-5.6664,-5.8819,-6.0544,-6.1795,-6.0496,-6.0005,-6.1083,-5.5935,-5.2202,-5.1231,-4.8231,-4.574,-4.4085,-4.3316,-4.3008,-4.3085,-4.3085,-4.241,-4.0969,-4.0775,-4.0239,-3.9398,-3.932,-3.9348,-3.9446,-4.0113,0.0,0.0,0.0,-4.7802,0.0,-5.4726,-5.4101,-5.2812,-5.7773,-5.914,-5.8789,-6.1055,-6.1797,-6.1523,-6.0351,-5.9961,-5.9375,-5.5937,-5.5976,-5.6484,-5.2226,0.0,0.0,0.0,0.0,-5.2109,-4.8398,-4.957,-5.0117,-4.418,0.0,-4.5273,-4.3242,0.0,0.0,0.0,0.0,0.0,0.0,0.0,0.0,-4.8008,-4.9023,-5.0351,-5.1953,-5.2812,-5.3281,-5.3281,-5.3398,-5.4414,-5.6719,-5.6172,-5.6797,-5.9219,-5.9336,-5.9726,-6.0508,-6.0546,-6.0848,-6.1449,-6.1334,-6.1172,-6.1,-6.0877,-6.0781,-6.0781,-6.0781,-6.0781,-6.0781,-6.0781,-6.0781,-6.0781,-6.0781,-6.0781,-6.0781,-6.0781,-6.0781,-6.0781,-6.0781,-6.0781,-6.0781,-4.5594,-4.5594,-4.5855,-4.674,-4.7471,-4.8856,-5.15,-5.5307,-5.8014,-5.8281,-6.0843,-6.293,-6.3672,-6.1953,-6.1223,-6.2435,-5.8166,-5.4857,-5.351,-5.024,-4.7817,-4.6547,-4.4778,-4.3816,-4.3816,-4.2854,-4.2009,-4.1359,-3.9862,-3.8935,-3.8595,-3.8054,-3.8923,-4.0926,-4.1806,0.0,-4.7891,0.0,-4.8934,0.0,0.0,-5.2383,-5.2148,-5.8867,-6.1172,-6.0937,-6.1484,-6.1719,-6.1406,-5.957,-5.9297,-5.9375,-5.7422,-5.7305,-5.7422,-5.5117,0.0,0.0,0.0,-5.2305,-5.2578,-4.9805,-5.0195,-5.0078,-4.5664,-4.5117,-4.5078,-4.3476,0.0,0.0,0.0,0.0,0.0,0.0,-4.4297,0.0,0.0,0.0,-4.6523,-5.0273,0.0,-5.0156,-5.1133,-5.125,-5.1914,-5.3476,-5.3242,-5.418,-5.6797,-5.7422,-5.832,-5.9648,-6.0156,-6.0502,-6.0723,-6.119,-6.1339,-6.1179,-6.1136,-6.1018,-6.0925,-6.1027,-6.0974,-6.0793,-6.0892,-6.0871,-6.0781,-6.0781,-6.0781,-6.0781,-6.0781,-6.0781,-6.0781,-6.0781,-6.0781,-6.0781,-4.5594,0.0,0.0,-4.6432,-4.6932,-4.8462,-5.2038,-5.6745,-5.9718,-5.924,-6.1743,-6.3945,-6.4922,-6.365,-6.3369,-6.4893,-6.1682,-5.8708,-5.6714,-5.3164,-5.0741,-4.9894,-4.674,-4.524,-4.5701,-4.3355,-4.2038,-4.1808,-3.9508,-3.8469,-3.8661,-3.7815,-3.9044,-4.2071,-4.3435,-4.6571,-5.0816,0.0,-5.1049,-5.3047,-5.3398,-5.4101,-5.5469,-6.0156,-6.2539,-6.3203,-6.2109,-6.1719,-6.1367,-5.9297,-5.9023,-5.9375,-5.8515,-5.8398,-5.8437,-5.7578,0.0,0.0,-5.3828,-5.3828,-5.3789,-5.0937,-5.0351,-4.9648,-4.6328,-4.5664,-4.5391,-4.4297,-4.3672,0.0,0.0,0.0,-4.2344,-4.2695,0.0,-4.3398,0.0,-4.2226,0.0,0.0,0.0,-4.793,-4.9687,-4.9219,-4.9414,-5.0976,-5.0391,-5.1445,-5.4765,-5.5547,-5.6797,-5.8789,-5.9648,-6.0113,-6.0241,-6.1083,-6.1432,-6.1344,-6.1306,-6.1227,-6.1097,-6.1234,-6.1182,-6.0953,-6.0991,-6.0935,-6.0867,-6.0816,-6.0781,-6.0781,-6.0781,-6.0781,-6.0781,-6.0781,-6.0781,-6.0781,-4.5594,-4.5594,0.0,-4.5633,-4.6971,-4.951,-5.378,-5.552,-5.7225,-5.9638,-6.102,-6.3086,-6.6445,-6.658,-6.7712,-7.0914,-6.7945,-6.4754,-6.2047,-5.7868,-5.5126,-5.4318,-4.951,-4.7586,-4.9202,-4.5163,-4.2662,-4.1808,-4.0085,-3.9669,-4.04,-3.9592,-4.0195,-4.2098,-4.4724,-4.7441,-5.0159,-5.1832,-5.5469,-6.0,-5.9258,-6.0937,-6.3555,-6.0508,-6.1367,-6.4023,-6.2305,-6.1719,-6.1562,-6.0625,-6.0351,-6.0234,-5.9414,-5.9687,-6.0156,-5.9336,-5.9648,-5.9844,-5.8164,-5.832,-5.7578,-5.168,-5.0781,-5.0039,-4.4922,-4.5703,-4.7031,-4.5312,-4.6914,-4.8164,-4.6484,-4.5469,-4.4609,-4.3789,-4.3672,0.0,0.0,0.0,0.0,0.0,0.0,0.0,-4.8789,-4.6641,-4.6562,-4.9961,-4.7891,-4.8672,-5.3789,-5.4062,-5.5273,-5.7851,-5.8789,-5.9609,-6.039,-6.1145,-6.1501,-6.1498,-6.1354,-6.1283,-6.1277,-6.1283,-6.1283,-6.1265,-6.1089,-6.0997,-6.097,-6.0867,-6.0781,-6.0781,-6.0781,-6.0781,-6.0781,-6.0781,-6.0781,-6.0781,0.0,0.0,0.0,0.0,0.0,-4.7918,-5.2241,-5.7095,-6.0784,-6.2309,-6.4439,-6.7121,-7.055,-7.0277,-7.0725,-7.2977,-7.0805,-6.8191,-6.5564,-6.1985,-5.955,-5.8704,-5.4357,-5.1664,-5.1087,-4.8009,-4.5432,-4.3431,-4.1777,-4.1085,-4.1354,-4.0477,-4.1119,-4.3034,-4.5663,-4.9037,0.0,0.0,0.0,0.0,0.0,-6.2578,-6.4961,-6.3242,-6.293,-6.3281,-6.2109,-6.1719,-6.164,-6.1367,-6.0898,-6.0469,-6.0742,-6.0273,-5.9648,-5.9922,-5.9805,-5.9492,-5.8906,-5.9375,-5.8945,-5.4648,-5.2891,-5.1055,-4.6484,-4.6992,-4.7461,-4.3984,-4.6289,-4.8008,-4.5117,-4.4336,-4.4023,-4.375,-4.3203,-4.2344,0.0,0.0,0.0,0.0,0.0,0.0,0.0,-4.4531,-4.5234,-4.5859,-4.6133,-4.7812,-5.1289,-5.2539,-5.4062,-5.6094,-5.7578,-5.875,-5.9609,-6.0388,-6.1047,-6.1633,-6.1582,-6.1512,-6.146,-6.1517,-6.1481,-6.1283,-6.1227,-6.1128,-6.0979,-6.0867,-6.0781,-6.0781,-6.0781,-6.0781,-6.0781,-6.0781,-6.0781,-6.0781,-4.7317,-4.7077,-4.674,-4.6163,-4.6826,-4.865,-5.2395,-5.8261,-6.2771,-6.3985,-6.6873,-6.9841,-7.2599,-7.2674,-7.2997,-7.4242,-7.3143,-7.085,-6.7334,-6.5089,-6.3205,-6.1743,-5.8204,-5.5742,-5.4615,-5.1885,-4.8887,-4.5663,-4.4345,-4.3343,-4.2662,-4.1816,-4.2312,-4.3981,0.0,-4.9908,-5.3672,-5.6055,-5.8594,0.0,0.0,-6.457,-6.5976,-6.5078,-6.4219,-6.332,-6.2109,-6.1719,-6.1719,-6.1719,-6.1328,-6.0976,-6.1523,-6.0976,-6.0195,-6.0703,-6.0508,-6.0039,-5.9726,-6.0,-5.957,-5.6133,-5.4453,-5.2422,-4.7812,-4.832,-4.8828,-4.5391,-4.6953,-4.8476,-4.7148,-4.5664,-4.4609,-4.4609,-4.3633,-4.207,0.0,-3.8476,0.0,0.0,0.0,0.0,0.0,0.0,-4.3594,-4.4531,-4.4531,-4.6016,-4.9531,-5.1328,-5.3047,-5.4765,-5.6836,-5.8164,-5.8711,-5.957,-6.039,-6.125,-6.125,-6.1364,-6.1579,-6.1677,-6.1627,-6.1424,-6.1383,-6.1283,-6.1097,-6.0945,-6.0845,-6.0793,-6.0867,-6.0871,-6.0871,-6.0871,-6.0871,-6.085,-4.8163,-4.7663,-4.7192,-4.7192,-4.9202,-5.1674,-5.4241,-5.8974,-6.2935,-6.4793,-6.8268,-7.119,-7.2825,-7.3893,-7.465,-7.5108,-7.5094,-7.2882,-6.7808,-6.7398,-6.6244,-6.3782,-6.1243,-5.9831,-5.9727,-5.6488,-5.2724,-4.8412,-4.7523,-4.6201,-4.447,-4.3585,-4.3722,-4.4863,-4.7341,0.0,-5.3008,-5.6445,-6.039,-6.4492,-6.6211,-6.6914,-6.6797,-6.5937,-6.5078,-6.414,-6.2383,-6.1758,-6.1719,-6.1719,-6.1719,-6.1719,-6.1719,-6.1719,-6.1719,-6.1719,-6.1719,-6.1523,-6.0703,-6.0469,-5.9687,-5.6367,-5.5469,-5.4062,-4.9101,-4.9883,-5.1172,-4.9453,-4.918,-4.9961,-5.2187,-4.9219,-4.6406,-4.6328,-4.4844,-4.2539,-3.9219,0.0,0.0,0.0,0.0,0.0,0.0,0.0,-4.1719,-4.5703,-4.3125,-4.3555,-4.8555,-5.0391,-5.2109,-5.3867,-5.6445,-5.7812,-5.789,-5.8711,-5.9531,-6.0351,-6.039,-6.082,-6.164,-6.168,-6.1719,-6.168,-6.1573,-6.1409,-6.1277,-6.1105,-6.0916,-6.0839,-6.0963,-6.1023,-6.1031,-6.1006,-6.1006,-6.0988,-4.9202,-5.0433,-5.1587,-5.1587,-5.2125,-5.3433,-5.5983,-5.9656,-6.3669,-6.7896,-7.1056,-7.4022,-7.6922,-7.6944,-7.6779,-7.6925,-7.6199,-7.4882,-7.286,-7.1591,-7.0321,-6.9013,-6.6513,-6.4324,-6.2569,-5.8592,-5.5404,-5.2996,-4.9051,-4.71,-4.7086,-4.497,-4.4541,-4.5646,0.0,0.0,-5.3867,-5.6719,-6.0742,-6.5351,-6.6445,-6.6914,-6.6797,-6.5937,-6.5469,-6.5039,-6.3281,-6.2265,-6.1719,-6.1719,-6.1719,-6.1719,-6.1719,-6.1719,-6.1719,-6.1719,-6.1719,-6.164,-6.1445,-6.1367,-6.1015,-5.9453,-5.7656,-5.5742,-5.3789,-5.4336,-5.4609,-5.2226,-5.3281,-5.3867,-5.1328,-4.9414,-4.7812,-4.6523,-4.4844,-4.2969,0.0,0.0,0.0,-4.0469,0.0,0.0,0.0,-4.1367,-4.2383,-4.1601,-4.3086,-4.5156,-4.7773,-4.8945,-5.0625,-5.2969,-5.4922,-5.6601,-5.789,-5.8125,-5.8672,-5.9531,-6.0117,-6.0508,-6.0742,-6.1406,-6.1719,-6.168,-6.1573,-6.1409,-6.1283,-6.124,-6.1112,-6.0973,-6.115,-6.1301,-6.133,-6.1081,-6.1105,-6.12,-5.1087,-5.3703,-5.5857,-5.5511,-5.6626,-5.7973,-5.9061,-6.1473,-6.4628,-6.8629,-7.214,-7.4868,-7.6339,-7.7802,-7.8367,-7.7524,-7.6913,-7.5745,-7.3745,-7.3399,-7.2437,-7.0475,-6.9321,-6.7663,-6.5296,-6.2236,-5.8886,-5.5288,-5.1722,-4.9174,-4.7548,0.0,0.0,0.0,0.0,-4.9706,-5.3164,-5.7656,-6.168,-6.5117,-6.5976,-6.6562,0.0,-6.6367,-6.5937,-6.5469,-6.4492,-6.332,-6.2226,-6.1836,-6.1719,-6.1719,-6.1719,-6.1719,-6.1719,-6.1719,-6.1719,-6.1719,-6.1719,-6.1719,-6.1562,-6.1094,-5.9883,-5.8398,-5.6797,-5.6836,-5.6758,-5.5273,-5.4922,-5.4726,-5.4219,-5.1289,-4.8203,-4.6094,-4.4258,-4.2695,0.0,0.0,0.0,0.0,-4.0547,0.0,0.0,-3.9492,-4.0781,-4.0508,-4.1914,-4.3672,-4.5781,-4.8164,-5.0273,-5.207,-5.418,-5.5937,-5.7305,-5.7344,-5.7969,-5.9219,-5.9648,-6.0273,-6.0976,-6.1484,-6.1719,-6.1719,-6.1631,-6.1509,-6.1378,-6.1378,-6.1295,-6.1158,-6.1328,-6.1485,-6.1573,-6.131,-6.1273,-6.1359,-5.3549,-5.7011,-5.955,-5.8627,-6.132,-6.3512,-6.3128,-6.4436,-6.6397,-6.9052,-7.3032,-7.5345,-7.4581,-7.7808,-7.9379,-7.7622,-7.7361,-7.5976,-7.2899,-7.4053,-7.3514,-7.0475,-7.0937,-7.0182,-6.8006,-6.5965,-6.2153,-5.6534,-5.4396,-5.1152,-4.6885,0.0,0.0,0.0,0.0,0.0,0.0,-5.8789,-6.2617,-6.4375,-6.5234,-6.6133,-6.6914,-6.6914,-6.6445,-6.5742,-6.5625,-6.4492,-6.289,-6.2148,-6.1797,-6.1719,-6.1719,-6.1719,-6.1719,-6.1719,-6.1719,-6.1719,-6.1719,-6.1719,-6.1719,-6.1719,-6.1719,-6.1133,-5.8906,-5.8398,-5.8398,-5.8398,-5.5898,-5.4765,-5.8203,-5.3516,-4.8242,-4.5742,-4.4062,-4.2812,0.0,0.0,0.0,0.0,0.0,0.0,-3.7734,-3.7695,0.0,-4.0547,-4.0195,-4.1016,-4.3555,-4.7305,-4.9961,-5.1367,-5.3711,-5.5508,-5.6601,-5.6601,-5.7422,-5.9023,-5.914,-6.0039,-6.1523,-6.164,-6.1719,-6.1719,-6.1719,-6.1632,-6.1504,-6.1515,-6.1474,-6.1354,-6.1491,-6.1582,-6.1677,-6.1573,-6.1512,-6.1491,-5.6291,-5.9215,-6.1127,-5.9588,-6.2704,-6.609,-6.8052,-6.9167,-7.0975,-7.4245,-7.715,-7.9167,-7.9708,-7.9807,-7.9437,-7.8376,-7.7669,-7.6746,-7.5399,-7.5592,-7.5207,-7.3899,-7.3322,-7.2324,-7.0829,-6.6327,-6.2504,-5.9366,-5.4125,-4.9975,-4.6885,-4.6009,0.0,0.0,0.0,0.0,-5.4704,-5.8865,-6.2031,-6.4375,-6.5234,-6.6133,-6.6914,-6.6914,-6.6797,-6.6562,-6.5859,-6.4492,-6.2969,-6.2812,-6.2305,-6.1719,-6.1719,-6.1719,-6.1719,-6.1719,-6.1719,-6.1719,-6.1719,-6.1719,-6.1719,-6.1719,-6.1719,-6.1562,-6.1133,-6.1015,-6.1015,-6.1015,-5.9961,-5.8633,-5.7305,-5.3164,-4.9336,-4.7461,-4.6875,-4.6406,0.0,0.0,0.0,0.0,0.0,-4.1953,0.0,0.0,0.0,0.0,0.0,-4.1016,-4.3555,-4.4414,-4.6836,-5.125,-5.2539,-5.4258,-5.6562,-5.6601,-5.7109,-5.8125,-5.8867,-5.9687,-6.0664,-6.1367,-6.1719,-6.1719,-6.1719,-6.1632,-6.1509,-6.1631,-6.1637,-6.1633,-6.1677,-6.1629,-6.1566,-6.1634,-6.1585,-6.1501,-6.0858,0.0,0.0,-6.4128,-6.6936,-7.0014,-7.2591,-7.4437,-7.5476,-7.5361,-7.6784,-7.7977,-7.84,-7.9669,-8.0131,-7.9246,-7.84,-7.7553,-7.6746,-7.6245,-7.563,-7.4745,-7.3937,-7.2816,-7.1365,-6.7623,-6.3806,-5.9925,-5.5255,-5.1111,-4.7509,-4.6201,-4.5202,0.0,0.0,-5.1264,0.0,-5.9099,-6.1914,-6.4375,-6.5234,-6.6133,-6.6914,-6.6914,-6.6914,-6.6836,-6.6318,-6.5295,-6.4088,-6.328,-6.2734,-6.2305,-6.1836,-6.1719,-6.1719,-6.1719,-6.1719,-6.1719,-6.1719,-6.1719,-6.1719,-6.1719,-6.1719,-6.1719,-6.1719,-6.1719,-6.1719,-6.1719,-6.0664,-5.8867,-5.582,-5.2812,-5.0547,-4.9726,-4.8476,-4.7617,0.0,0.0,0.0,0.0,0.0,0.0,0.0,0.0,0.0,0.0,0.0,-4.0156,-4.2305,-4.3672,-4.6328,-5.0625,-5.2031,-5.375,-5.5898,-5.6836,-5.7695,-5.8594,-5.9414,-6.0273,-6.1094,-6.1523,-6.1719,-6.1719,-6.1719,-6.1678,-6.1629,-6.1679,-6.1719,-6.1719,-6.1719,-6.1677,-6.1629,-6.1679,-6.1677,-6.1588,-6.5243,-6.6128,-6.7167,-6.8667,-7.1206,-7.3668,-7.5707,-7.8323,-7.9131,-7.6399,-7.6669,-7.7092,-7.7092,-7.9477,-8.0746,-7.99,-7.9015,-7.8169,-7.7361,-7.6476,-7.5707,-7.5014,-7.4207,-7.3125,-7.1771,-6.9051,-6.5238,-6.0334,-5.6738,-5.2638,-4.8086,-4.674,-4.6018,-4.5947,-4.9045,-5.2848,-5.7049,-5.9363,-6.1991,-6.4648,-6.5312,-6.6133,-6.6914,-6.6914,-6.6874,-6.6831,-6.6678,-6.6135,-6.5308,-6.3921,-6.3191,-6.2764,-6.2144,-6.1794,-6.1678,-6.1679,-6.1719,-6.1719,-6.1719,-6.1719,-6.1719,-6.1719,-6.1719,-6.1719,-6.1719,-6.1719,-6.1679,-6.1678,-6.0309,-5.8121,-5.4796,-5.3123,-5.1992,-5.1209,-4.957,-4.8515,-4.8826,0.0,0.0,0.0,0.0,0.0,-4.0195,0.0,0.0,0.0,0.0,-3.8984,-4.1094,-4.3086,-4.5937,-4.9805,-5.1562,-5.3242,-5.5,-5.6953,-5.8359,-5.9219,-6.0039,-6.0859,-6.1719,-6.1719,-6.1719,-6.1719,-6.1719,-6.1719,-6.1719,-6.1719,-6.1719,-6.1719,-6.1719,-6.1679,-6.1677,-6.1679,-6.1679,-6.1677,-6.7859,-6.8744,-6.9629,-7.0514,-7.3437,-7.5707,-7.5976,-7.8823,-8.0862,-8.0554,-8.0554,-8.0631,-8.0631,-8.09,-8.0746,-7.99,-7.9015,-7.8169,-7.7361,-7.6476,-7.5976,-7.5861,-7.5053,-7.4256,-7.3485,-7.0212,-6.6361,-6.2056,-5.7901,-5.321,-4.8086,-4.7932,-4.8673,-5.0173,-5.1386,-5.4388,-5.8666,-5.9768,-6.2248,-6.5508,-6.5586,-6.6133,-6.6914,-6.6914,-6.6788,-6.6628,-6.6619,-6.6477,-6.6139,-6.5211,-6.3854,-6.2551,-6.2655,-6.2134,-6.1525,-6.1678,-6.1719,-6.1719,-6.1719,-6.1719,-6.1719,-6.1719,-6.1719,-6.1719,-6.1719,-6.1719,-6.1678,-6.1527,-6.0146,-5.8094,-5.5312,-5.4884,-5.3865,-5.0584,-5.0615,-5.0506,-4.8951,0.0,-4.6833,0.0,0.0,0.0,0.0,-3.9258,0.0,0.0,-3.6601,-3.7695,-4.1016,-4.1445,-4.3867,-4.8867,-5.0664,-5.2344,-5.4101,-5.664,-5.8359,-5.9219,-6.0039,-6.0859,-6.1719,-6.1719,-6.1719,-6.1719,-6.1719,-6.1719,-6.1719,-6.1719,-6.1719,-6.1719,-6.1719,-6.1632,-6.1522,-6.1677,-6.1632,-6.1522,-7.2899,-7.2437,-7.2706,-7.5053,-7.5745,-7.6707,-7.8746,-8.0208,-8.1093,-8.1093,-8.1093,-8.1093,-8.1093,-8.1093,-8.0977,-8.0592,-7.9285,-7.8361,-7.8015,-7.6746,-7.6015,-7.6015,-7.5168,-7.434,-7.3601,-7.1235,-6.7892,-6.3681,-6.0468,-5.6521,-5.1933,-5.1395,-5.1818,-5.3031,-5.4508,-5.6788,-5.9654,-6.1666,-6.3726,-6.5664,-6.6172,-6.6601,-6.6875,-6.6784,-6.668,-6.6564,-6.6373,-6.6283,-6.6157,-6.5732,-6.4898,-6.3914,-6.3066,-6.2551,-6.2217,-6.1794,-6.1719,-6.1719,-6.1719,-6.1719,-6.1719,-6.1719,-6.1719,-6.1719,-6.1719,-6.1719,-6.1677,-6.1517,-6.0056,-5.8121,-5.6046,-5.4905,-5.4167,-5.3732,-5.232,-5.1367,-5.16,-4.9674,0.0,-4.7115,0.0,0.0,0.0,-4.0153,-3.9258,0.0,-3.707,-3.7305,-4.0273,-4.0937,-4.3086,-4.7226,-4.9961,-5.1992,-5.3203,-5.6836,-5.8867,-5.9219,-6.0547,-6.1367,-6.1719,-6.1719,-6.1719,-6.1719,-6.1719,-6.1719,-6.1719,-6.1719,-6.1719,-6.1719,-6.1719,-6.1678,-6.1632,-6.1679,-6.1678,-6.1632,-7.6592,-7.5592,-7.5592,-7.8707,-7.8284,-7.8323,-8.0746,-8.1093,-8.1093,-8.1093,-8.1093,-8.1093,-8.1093,-8.1093,-8.1093,-8.1093,-7.9746,-7.8746,-7.853,-7.7169,-7.6284,-7.6015,-7.5399,-7.4707,-7.386,-7.2168,-6.959,-6.609,-6.3012,-5.9742,-5.6319,-5.4972,-5.5049,-5.6406,-5.767,-5.9483,-6.1629,-6.3579,-6.4999,-6.6055,-6.664,-6.6914,-6.6874,-6.6683,-6.656,-6.6507,-6.6212,-6.6061,-6.6035,-6.5946,-6.5638,-6.5126,-6.3862,-6.3132,-6.2613,-6.2222,-6.1914,-6.1719,-6.1719,-6.1719,-6.1679,-6.1637,-6.1678,-6.1679,-6.1637,-6.1678,-6.1598,-6.114,-5.9776,-5.8208,-5.6717,-5.5306,-5.4585,-5.533,-5.3475,-5.2178,-5.2782,-5.0449,0.0,-4.8103,-4.5712,-4.3587,-4.2416,-4.0852,0.0,0.0,-3.8789,-3.8789,-4.0898,-4.1367,-4.3242,-4.6953,-5.0117,-5.2187,-5.3086,-5.7148,-5.9219,-5.9219,-6.0898,-6.1719,-6.1719,-6.1719,-6.1719,-6.1719,-6.1719,-6.1719,-6.1719,-6.1719,-6.1719,-6.1719,-6.1719,-6.1719,-6.1719,-6.1719,-6.1719,-6.1719,-7.7977,-7.7823,-7.8054,-8.0631,-8.1054,-8.1054,-8.1093,-8.1093,-8.1093,-8.1093,-8.1093,-8.1093,-8.1093,-8.1093,-8.1093,-8.1093,-8.0285,-7.9438,-7.8554,-7.7746,-7.6899,-7.6053,-7.5976,-7.5592,-7.4707,-7.3053,-7.136,-6.9629,-6.5359,-6.2397,-6.0666,-5.8138,-5.8292,-6.0704,-6.0754,-6.2356,-6.5031,-6.5076,-6.5769,-6.6875,-6.6914,-6.6914,-6.6874,-6.6683,-6.6516,-6.6368,-6.6161,-6.6014,-6.591,-6.5897,-6.591,-6.5789,-6.525,-6.389,-6.2585,-6.2881,-6.2383,-6.1719,-6.1719,-6.1719,-6.1678,-6.1522,-6.1587,-6.1678,-6.152,-6.1588,-6.1399,-6.0234,-5.9216,-5.8169,-5.7191,-5.6536,-5.5602,-5.3919,-5.3709,-5.316,-5.1381,-4.9712,0.0,-4.7165,-4.4257,-4.2338,-4.2305,-4.0853,0.0,0.0,-4.1875,-4.2695,-4.3594,-4.2851,-4.4375,-4.8711,-5.1367,-5.3086,-5.3984,-5.7461,-5.9219,-5.9219,-6.0898,-6.1719,-6.1719,-6.1719,-6.1719,-6.1719,-6.1719,-6.1719,-6.1719,-6.1719,-6.1719,-6.1719,-6.1719,-6.1719,-6.1719,-6.1719,-6.1719,-6.1719,-8.0092,-8.0054,-8.0131,-8.0977,-8.1093,-8.1093,-8.1093,-8.1093,-8.1093,-8.1093,-8.1093,-8.1093,-8.1093,-8.1093,-8.1093,-8.1093,-7.9746,-7.8784,-7.853,-7.7169,-7.6284,-7.6015,-7.6015,-7.5592,-7.4707,-7.4168,-7.2783,-7.0514,-6.859,-6.6513,-6.4243,-6.282,-6.2935,-6.4282,-6.4859,-6.5672,-6.67,-6.7391,-6.7984,-6.8486,-6.8552,-6.8198,-6.7542,-6.7413,-6.6873,-6.6191,-6.6003,-6.5958,-6.5897,-6.5897,-6.5897,-6.5893,-6.5957,-6.5213,-6.4104,-6.3232,-6.2812,-6.2421,-6.174,-6.1575,-6.152,-6.1387,-6.1387,-6.1424,-6.1498,-6.1478,-6.1162,-6.0188,-5.9141,-5.8081,-5.7187,-5.6348,-5.5694,-5.5249,-5.4319,-5.32,-5.1981,-4.9917,-4.8156,-4.7055,-4.5143,-4.3934,-4.3938,-4.299,-4.2526,-4.289,-4.2529,-4.2408,-4.2773,-4.4258,-4.5976,-4.7969,-5.1055,-5.3398,-5.4883,-5.7734,-5.9492,-6.0039,-6.1172,-6.1719,-6.1719,-6.1719,-6.1719,-6.1719,-6.1719,-6.1719,-6.1719,-6.1719,-6.1719,-6.1719,-6.1719,-6.1719,-6.1719,-6.1719,-6.1719,-6.1719,-8.1093,-8.1093,-8.1093,-8.1093,-8.1093,-8.1093,-8.1093,-8.1093,-8.1093,-8.1093,-8.1093,-8.1093,-8.1093,-8.1093,-8.1093,-8.1093,-7.9823,-7.8861,-7.853,-7.7246,-7.6322,-7.6015,-7.6015,-7.5745,-7.5207,-7.4861,-7.3937,-7.2322,-7.086,-6.9013,-6.6821,-6.6282,-6.632,-6.6859,-6.7359,-6.7699,-6.7891,-6.851,-6.891,-6.9089,-6.9198,-6.8837,-6.8257,-6.8104,-6.7446,-6.6574,-6.6406,-6.6167,-6.5897,-6.5897,-6.5897,-6.5982,-6.6307,-6.6037,-6.5395,-6.4287,-6.3515,-6.2851,-6.2212,-6.1798,-6.1481,-6.1323,-6.1283,-6.1312,-6.1396,-6.1354,-6.1116,-6.0514,-5.9523,-5.8473,-5.7627,-5.678,-5.6105,-5.5921,-5.4541,-5.3185,-5.2242,-4.9995,-4.7908,-4.6562,-4.566,-4.5001,-4.4676,-4.4848,-4.4992,-4.5006,-4.5318,-4.5284,-4.4795,-4.6054,-4.7617,-4.9453,-5.2226,-5.4492,-5.625,-5.8203,-5.9609,-6.039,-6.1289,-6.1719,-6.1719,-6.1719,-6.1719,-6.1719,-6.1719,-6.1719,-6.1719,-6.1719,-6.1719,-6.1719,-6.1719,-6.1719,-6.1719,-6.1719,-6.1719,-6.1719,-8.1093,-8.1093,-8.1093,-8.1093,-8.1093,-8.1093,-8.1093,-8.1093,-8.1093,-8.1093,-8.1093,-8.1093,-8.1093,-8.1093,-8.1093,-8.1093,-8.0285,-7.9438,-7.8554,-7.7746,-7.6899,-7.6053,-7.6015,-7.6015,-7.6015,-7.5207,-7.4784,-7.4707,-7.2206,-7.0206,-6.8667,-6.859,-6.8577,-6.8577,-6.8577,-6.8639,-6.877,-6.8751,-6.8894,-6.907,-6.9084,-6.9045,-6.8932,-6.8771,-6.8171,-6.7444,-6.7203,-6.6628,-6.5974,-6.5897,-6.5897,-6.597,-6.6291,-6.6381,-6.629,-6.5771,-6.4453,-6.3164,-6.3008,-6.2287,-6.1513,-6.1351,-6.1271,-6.1271,-6.1271,-6.1271,-6.1227,-6.104,-6.0218,-5.9242,-5.8434,-5.7588,-5.6722,-5.596,-5.4444,-5.3058,-5.2066,-4.991,-4.771,-4.5915,-4.5989,-4.5794,-4.4866,-4.6519,-4.7557,-4.7296,-4.9591,-5.0391,-4.8969,-4.8353,-4.9453,-5.2617,-5.4453,-5.6211,-5.7969,-5.8867,-5.9687,-6.0508,-6.1328,-6.1719,-6.1719,-6.1719,-6.1719,-6.1719,-6.1719,-6.1719,-6.1719,-6.1719,-6.1719,-6.1719,-6.1719,-6.1719,-6.1719,-6.1719,-6.1719,-6.1719,-8.1093,-8.1093,-8.1093,-8.1093,-8.1093,-8.1093,-8.1093,-8.1093,-8.1093,-8.1093,-8.1093,-8.1093,-8.1093,-8.1093,-8.1093,-8.1093,-8.0285,-7.9438,-7.8554,-7.7746,-7.6899,-7.6053,-7.6015,-7.6015,-7.6015,-7.5784,-7.5361,-7.4707,-7.2822,-7.1668,-7.1283,-7.0629,-7.0321,-7.0321,-7.0321,-7.0323,-7.0375,-7.0496,-7.0632,-7.066,-7.0829,-7.0378,-6.9672,-6.9614,-6.8994,-6.8077,-6.7346,-6.6974,-6.6705,-6.609,-6.5897,-6.5933,-6.61,-6.6275,-6.629,-6.5771,-6.5312,-6.4687,-6.3259,-6.2606,-6.2129,-6.1291,-6.1081,-6.1081,-6.1081,-6.1081,-6.1065,-6.1014,-6.0218,-5.9242,-5.8434,-5.7588,-5.6567,-5.5202,-5.4103,-5.2632,-5.0484,-4.9747,-4.8755,-4.6957,-4.7994,-4.8545,-4.7631,-4.9048,-4.9503,-4.8287,-4.9985,-5.094,-5.0603,-5.1789,-5.2539,-5.2695,-5.5039,-5.7148,-5.8867,-5.9726,-6.0547,-6.1406,-6.1601,-6.1719,-6.1719,-6.1719,-6.1719,-6.1719,-6.1719,-6.1719,-6.1719,-6.1719,-6.1719,-6.1719,-6.1719,-6.1719,-6.1719,-6.1719,-6.1719,-6.1719,-8.1093,-8.1093,-8.1093,-8.1093,-8.1093,-8.1093,-8.1093,-8.1093,-8.1093,-8.1093,-8.1093,-8.1093,-8.1093,-8.1093,-8.1093,-8.1093,-8.0285,-7.9438,-7.8554,-7.7746,-7.6899,-7.6053,-7.6015,-7.6015,-7.6015,-7.6015,-7.5553,-7.4707,-7.3783,-7.2937,-7.2168,-7.1706,-7.1283,-7.0898,-7.0898,-7.0898,-7.0912,-7.1016,-7.105,-7.1074,-7.119,-7.0887,-7.0367,-7.0367,-6.9784,-6.8936,-6.8475,-6.8013,-6.7552,-6.6744,-6.6436,-6.6408,-6.6281,-6.6305,-6.6374,-6.624,-6.5898,-6.535,-6.4255,-6.3306,-6.2329,-6.1195,-6.0954,-6.097,-6.0935,-6.0963,-6.097,-6.0935,-6.047,-5.9858,-5.9011,-5.8165,-5.7065,-5.5402,-5.4108,-5.2563,-5.0417,-4.9814,-4.9262,-4.8261,-4.9413,-5.0254,-5.0058,-5.123,-5.1647,-5.0804,-5.1994,-5.264,-5.2403,-5.4507,-5.5307,-5.4492,-5.625,-5.8008,-5.9726,-6.0586,-6.1211,-6.1719,-6.1719,-6.1719,-6.1719,-6.1719,-6.1719,-6.1719,-6.1719,-6.1719,-6.1719,-6.1719,-6.1719,-6.1719,-6.1719,-6.1719,-6.1719,-6.1719,-6.1719,-6.1719,-8.1093,-8.1093,-8.1093,-8.1093,-8.1093,-8.1093,-8.1093,-8.1093,-8.1093,-8.1093,-8.1093,-8.1093,-8.1093,-8.1093,-8.1093,-8.1093,-8.0439,-7.9554,-7.8554,-7.7861,-7.7053,-7.6053,-7.6015,-7.6015,-7.6015,-7.6015,-7.563,-7.4899,-7.4784,-7.3976,-7.2552,-7.2322,-7.1822,-7.1091,-7.0975,-7.0898,-7.0898,-7.0898,-7.0898,-7.0898,-7.0898,-7.0898,-7.0898,-7.0898,-7.0475,-6.986,-6.9744,-6.9206,-6.8475,-6.759,-6.7205,-6.7036,-6.6614,-6.6443,-6.6412,-6.6729,-6.6283,-6.5654,-6.5382,-6.3955,-6.2306,-6.1274,-6.0969,-6.0925,-6.085,-6.0902,-6.0925,-6.0839,-6.0781,-6.0512,-5.9665,-5.8858,-5.7703,-5.5818,-5.4203,-5.2587,-5.075,-5.0086,-4.9758,-4.9643,-5.0703,-5.1664,-5.2079,-5.2988,-5.3561,-5.3576,-5.4304,-5.4613,-5.4399,-5.6521,-5.756,-5.7187,-5.789,-5.9023,-6.0586,-6.1328,-6.1719,-6.1719,-6.1719,-6.1719,-6.1719,-6.1719,-6.1719,-6.1719,-6.1719,-6.1719,-6.1719,-6.1719,-6.1719,-6.1719,-6.1719,-6.1719,-6.1719,-6.1719,-6.1719,-6.1719,-8.1093,-8.1093,-8.1093,-8.1093,-8.1093,-8.1093,-8.1093,-8.1093,-8.1093,-8.1093,-8.1093,-8.1093,-8.1093,-8.1093,-8.1093,-8.1093,-8.0977,-8.0208,-7.8592,-7.8361,-7.763,-7.6053,-7.6015,-7.6015,-7.6015,-7.6015,-7.5938,-7.5784,-7.5053,-7.4591,-7.4284,-7.286,-7.2129,-7.1975,-7.1245,-7.0898,-7.0898,-7.0898,-7.0898,-7.0898,-7.0898,-7.0898,-7.0898,-7.0898,-7.0821,-7.0629,-6.9937,-6.9629,-6.936,-6.8475,-6.7705,-6.7077,-6.7022,-6.6608,-6.6179,-6.6406,-6.6379,-6.6127,-6.5464,-6.3842,-6.2257,-6.1951,-6.1366,-6.085,-6.0793,-6.0827,-6.0839,-6.0793,-6.0781,-6.0512,-5.9665,-5.8858,-5.7511,-5.5088,-5.3857,-5.2356,-4.9933,-5.0808,-5.1424,-5.0767,-5.2717,-5.3878,-5.3235,-5.386,-5.4361,-5.4491,-5.4731,-5.5536,-5.7013,-5.7606,-5.8476,-5.9765,-5.9922,-6.0508,-6.1484,-6.164,-6.1719,-6.1719,-6.1719,-6.1719,-6.1719,-6.1719,-6.1719,-6.1719,-6.1719,-6.1719,-6.1719,-6.1719,-6.1719,-6.1719,-6.1719,-6.1719,-6.1719,-6.1719,-6.1719,-6.1719,-8.1093,-8.1093,-8.1093,-8.1093,-8.1093,-8.1093,-8.1093,-8.1093,-8.1093,-8.1093,-8.1093,-8.1093,-8.1093,-8.1093,-8.1093,-8.1093,-8.1093,-8.0554,-7.9285,-7.8746,-7.7938,-7.6746,-7.6245,-7.6015,-7.6015,-7.6015,-7.6015,-7.6015,-7.5592,-7.5168,-7.4668,-7.3899,-7.3322,-7.286,-7.1975,-7.1591,-7.1552,-7.1091,-7.0898,-7.0898,-7.0898,-7.0898,-7.0898,-7.0898,-7.0898,-7.086,-7.0475,-7.036,-7.0206,-6.9398,-6.8821,-6.8437,-6.8019,-6.7392,-6.6814,-6.6995,-6.6737,-6.6192,-6.5278,-6.4283,-6.3301,-6.2329,-6.1793,-6.1358,-6.0896,-6.0781,-6.0781,-6.0781,-6.0781,-6.0666,-6.0281,-5.9165,-5.7934,-5.6742,-5.4664,-5.2933,-5.2241,-5.2068,-5.2373,-5.3377,-5.4525,-5.5451,-5.5991,-5.6354,-5.6609,-5.6847,-5.6897,-5.7412,-5.8463,-5.8983,-5.9609,-6.039,-6.0859,-6.1289,-6.1719,-6.1719,-6.1719,-6.1719,-6.1719,-6.1719,-6.1719,-6.1719,-6.1719,-6.1719,-6.1719,-6.1719,-6.1719,-6.1719,-6.1719,-6.1719,-6.1719,-6.1719,-6.1719,-6.1719,-6.1719,-6.1719,-8.1093,-8.1093,-8.1093,-8.1093,-8.1093,-8.1093,-8.1093,-8.1093,-8.1093,-8.1093,-8.1093,-8.1093,-8.1093,-8.1093,-8.1093,-8.1093,-8.1093,-8.0823,-8.0169,-7.9285,-7.8361,-7.7323,-7.6476,-7.6015,-7.6015,-7.6015,-7.6015,-7.6015,-7.6015,-7.5668,-7.5014,-7.4784,-7.4361,-7.3745,-7.2899,-7.2514,-7.2437,-7.1552,-7.1206,-7.1168,-7.0975,-7.0898,-7.0898,-7.0898,-7.0898,-7.0898,-7.0898,-7.0898,-7.0821,-7.0206,-6.986,-6.9592,-6.9026,-6.8281,-6.7609,-6.7581,-6.698,-6.6135,-6.5312,-6.4872,-6.4282,-6.3012,-6.2409,-6.1908,-6.1243,-6.0935,-6.0781,-6.0781,-6.0781,-6.0781,-6.0781,-5.9588,-5.8434,-5.805,-5.5626,-5.3933,-5.4434,-5.351,-5.3587,-5.5742,-5.6165,-5.6819,-5.8165,-5.8319,-5.8404,-5.8642,-5.8665,-5.8901,-5.9409,-6.0039,-6.0508,-6.0703,-6.1367,-6.1719,-6.1719,-6.1719,-6.1719,-6.1719,-6.1719,-6.1719,-6.1719,-6.1719,-6.1719,-6.1719,-6.1719,-6.1719,-6.1719,-6.1719,-6.1719,-6.1719,-6.1719,-6.1719,-6.1719,-6.1719,-6.1719,-6.1719,-8.1093,-8.1093,-8.1093,-8.1093,-8.1093,-8.1093,-8.1093,-8.1093,-8.1093,-8.1093,-8.1093,-8.1093,-8.1093,-8.1093,-8.1093,-8.1093,-8.1093,-8.1054,-8.1016,-8.0208,-7.8977,-7.7361,-7.6476,-7.6015,-7.6015,-7.6015,-7.6015,-7.6015,-7.6015,-7.5976,-7.5899,-7.5091,-7.4668,-7.4591,-7.3783,-7.3399,-7.336,-7.2476,-7.2091,-7.2014,-7.1245,-7.0898,-7.0898,-7.0898,-7.0898,-7.0898,-7.0898,-7.0898,-7.0898,-7.0821,-7.0321,-6.9706,-6.9655,-6.9001,-6.8231,-6.7598,-6.6796,-6.6098,-6.6041,-6.5335,-6.4589,-6.4436,-6.3243,-6.2101,-6.2024,-6.1358,-6.0781,-6.0781,-6.0781,-6.0781,-6.0781,-6.005,-5.8896,-5.7368,-5.6203,-5.528,-5.4587,-5.5011,-5.578,-5.6791,-5.7627,-5.8165,-5.828,-5.8319,-5.8361,-5.851,-5.8636,-5.9138,-6.006,-6.0305,-6.0781,-6.1562,-6.168,-6.1719,-6.1719,-6.1719,-6.1719,-6.1719,-6.1719,-6.1719,-6.1719,-6.1719,-6.1719,-6.1719,-6.1719,-6.1719,-6.1719,-6.1719,-6.1719,-6.1719,-6.1719,-6.1719,-6.1719,-6.1719,-6.1719,-6.1719,-8.1093,-8.1093,-8.1093,-8.1093,-8.1093,-8.1093,-8.1093,-8.1093,-8.1093,-8.1093,-8.1093,-8.1093,-8.1093,-8.1093,-8.1093,-8.1093,-8.1093,-8.1093,-8.1093,-8.0285,-7.9054,-7.7361,-7.6476,-7.6015,-7.6015,-7.6015,-7.6015,-7.6015,-7.6015,-7.6015,-7.5976,-7.5668,-7.5515,-7.5476,-7.463,-7.4245,-7.4207,-7.336,-7.3014,-7.2937,-7.2052,-7.1706,-7.1629,-7.1091,-7.0898,-7.0898,-7.0898,-7.0898,-7.0898,-7.0898,-7.0706,-7.0437,-7.0437,-6.986,-6.8924,-6.7625,-6.6966,-6.6619,-6.6117,-6.5688,-6.5282,-6.4743,-6.4128,-6.3358,-6.2332,-6.1831,-6.1447,-6.0896,-6.0781,-6.0781,-6.0781,-6.0089,-5.9473,-5.9358,-5.7753,-5.6742,-5.7511,-5.6973,-5.7022,-5.8396,-5.8858,-5.9281,-5.9781,-5.9858,-5.9903,-6.005,-6.0222,-6.0536,-6.099,-6.1124,-6.1367,-6.168,-6.1719,-6.1719,-6.1719,-6.1719,-6.1719,-6.1719,-6.1719,-6.1719,-6.1719,-6.1719,-6.1719,-6.1719,-6.1719,-6.1719,-6.1719,-6.1719,-6.1719,-6.1719,-6.1719,-6.1719,-6.1719,-6.1719,-6.1719,-6.1719,-8.1093,-8.1093,-8.1093,-8.1093,-8.1093,-8.1093,-8.1093,-8.1093,-8.1093,-8.1093,-8.1093,-8.1093,-8.1093,-8.1093,-8.1093,-8.1093,-8.1093,-8.1093,-8.1093,-8.0285,-7.9169,-7.7746,-7.6861,-7.6399,-7.6399,-7.613,-7.6015,-7.6015,-7.6015,-7.6015,-7.6015,-7.6015,-7.6015,-7.5976,-7.5399,-7.513,-7.5053,-7.4245,-7.3899,-7.3822,-7.2937,-7.2591,-7.2552,-7.1937,-7.1552,-7.1321,-7.1321,-7.1129,-7.0898,-7.0898,-7.0898,-7.0898,-7.0898,-7.036,-6.9475,-6.8282,-6.7513,-6.6974,-6.6436,-6.609,-6.5743,-6.5166,-6.4782,-6.4282,-6.3128,-6.2486,-6.1947,-6.132,-6.0973,-6.0781,-6.0781,-6.0319,-6.0012,-6.0319,-5.8934,-5.8204,-5.9358,-5.8511,-5.8319,-5.9742,-5.9896,-6.0127,-6.0742,-6.0781,-6.0834,-6.0945,-6.1158,-6.1369,-6.1532,-6.1637,-6.1719,-6.1719,-6.1719,-6.1719,-6.1719,-6.1719,-6.1719,-6.1719,-6.1719,-6.1719,-6.1719,-6.1719,-6.1719,-6.1719,-6.1719,-6.1719,-6.1719,-6.1719,-6.1719,-6.1719,-6.1719,-6.1719,-6.1719,-6.1719,-6.1719,-6.1719,-8.1093,-8.1093,-8.1093,-8.1093,-8.1093,-8.1093,-8.1093,-8.1093,-8.1093,-8.1093,-8.1093,-8.1093,-8.1093,-8.1093,-8.1093,-8.1093,-8.1093,-8.1093,-8.1093,-8.0285,-7.9438,-7.8554,-7.7746,-7.7323,-7.7284,-7.6438,-7.6015,-7.6015,-7.6015,-7.6015,-7.6015,-7.6015,-7.6015,-7.6015,-7.6015,-7.6015,-7.5938,-7.5091,-7.4707,-7.463,-7.3808,-7.3514,-7.3514,-7.3514,-7.2976,-7.2206,-7.2206,-7.1629,-7.0898,-7.0898,-7.0898,-7.0898,-7.0898,-7.036,-6.9706,-6.9706,-6.8475,-6.7128,-6.709,-6.6513,-6.5897,-6.5897,-6.5243,-6.4628,-6.4589,-6.332,-6.2139,-6.2101,-6.1408,-6.0819,-6.0781,-6.0781,-6.0512,-5.9665,-5.9511,-5.9511,-5.9511,-5.9511,-5.9819,-6.0704,-6.0781,-6.0781,-6.0781,-6.0781,-6.0781,-6.0793,-6.112,-6.1404,-6.1679,-6.1719,-6.1719,-6.1719,-6.1719,-6.1719,-6.1719,-6.1719,-6.1719,-6.1719,-6.1719,-6.1719,-6.1719,-6.1719,-6.1719,-6.1719,-6.1719,-6.1719,-6.1719,-6.1719,-6.1719,-6.1719,-6.1719,-6.1719,-6.1719,-6.1719,-6.1719,-6.1719,-8.1093,-8.1093,-8.1093,-8.1093,-8.1093,-8.1093,-8.1093,-8.1093,-8.1093,-8.1093,-8.1093,-8.1093,-8.1093,-8.1093,-8.1093,-8.1093,-8.1093,-8.1093,-8.1093,-8.0862,-8.0592,-8.0323,-7.89,-7.7861,-7.7323,-7.7053,-7.6592,-7.6015,-7.6015,-7.6015,-7.6015,-7.6015,-7.6015,-7.6015,-7.6015,-7.6015,-7.5976,-7.5707,-7.563,-7.5553,-7.4668,-7.4361,-7.4284,-7.3692,-7.336,-7.3014,-7.2399,-7.2014,-7.1706,-7.1091,-7.0898,-7.0898,-7.0898,-7.0744,-7.0437,-6.986,-6.9321,-6.8667,-6.7436,-6.6898,-6.659,-6.6051,-6.5705,-6.5359,-6.4743,-6.4205,-6.3512,-6.2332,-6.1908,-6.1524,-6.0896,-6.0781,-6.0704,-6.0435,-6.0396,-6.0396,-6.0396,-6.0396,-6.0512,-6.0781,-6.0781,-6.0781,-6.0781,-6.0781,-6.0834,-6.0916,-6.1238,-6.1512,-6.1679,-6.1719,-6.1719,-6.1719,-6.1719,-6.1719,-6.1719,-6.1719,-6.1719,-6.1719,-6.1588,-6.1573,-6.1573,-6.1573,-6.1573,-6.1575,-6.1677,-6.1719,-6.1719,-6.1719,-6.1719,-6.1719,-6.1719,-6.1719,-6.1719,-6.1719,-6.1719,-6.1719,-8.1093,-8.1093,-8.1093,-8.1093,-8.1093,-8.1093,-8.1093,-8.1093,-8.1093,-8.1093,-8.1093,-8.1093,-8.1093,-8.1093,-8.1093,-8.1093,-8.1093,-8.1093,-8.1093,-8.1093,-8.1093,-8.1093,-8.0092,-7.8977,-7.7784,-7.7438,-7.6861,-7.6015,-7.6015,-7.6015,-7.6015,-7.6015,-7.6015,-7.6015,-7.6015,-7.6015,-7.6015,-7.6015,-7.6015,-7.5938,-7.5438,-7.5207,-7.5168,-7.4668,-7.4284,-7.3899,-7.3399,-7.2745,-7.2129,-7.1591,-7.1206,-7.0898,-7.0898,-7.0898,-7.0783,-7.0321,-6.9937,-6.9475,-6.8398,-6.7628,-6.6974,-6.6513,-6.6128,-6.5743,-6.5243,-6.4859,-6.432,-6.3281,-6.2563,-6.1947,-6.1408,-6.1012,-6.0781,-6.0781,-6.0781,-6.0781,-6.0781,-6.0781,-6.0781,-6.0781,-6.0781,-6.0781,-6.0781,-6.0856,-6.0963,-6.1182,-6.14,-6.1573,-6.168,-6.1719,-6.1679,-6.1631,-6.1631,-6.1585,-6.1525,-6.1525,-6.1577,-6.1631,-6.1525,-6.1485,-6.1413,-6.152,-6.1568,-6.1507,-6.1635,-6.1719,-6.1719,-6.1636,-6.1631,-6.163,-6.1573,-6.1579,-6.1631,-6.1631,-6.1638,-6.1719,-8.1093,-8.1093,-8.1093,-8.1093,-8.1093,-8.1093,-8.1093,-8.1093,-8.1093,-8.1093,-8.1093,-8.1093,-8.1093,-8.1093,-8.1093,-8.1093,-8.1093,-8.1093,-8.1093,-8.1093,-8.1093,-8.1093,-8.1093,-8.0323,-7.8631,-7.7823,-7.6976,-7.613,-7.6053,-7.6015,-7.6015,-7.6015,-7.6015,-7.6015,-7.6015,-7.6015,-7.6015,-7.6015,-7.6015,-7.6015,-7.6015,-7.6015,-7.6015,-7.6015,-7.5515,-7.4822,-7.4745,-7.3707,-7.2399,-7.2245,-7.1629,-7.0898,-7.0898,-7.0898,-7.0898,-7.0898,-7.0398,-6.9783,-6.9706,-6.8552,-6.7282,-6.7128,-6.6551,-6.5974,-6.5897,-6.5282,-6.4705,-6.4628,-6.3397,-6.2293,-6.2139,-6.1447,-6.0896,-6.0819,-6.0781,-6.0781,-6.0781,-6.0781,-6.0781,-6.0781,-6.0781,-6.0793,-6.0827,-6.0944,-6.1175,-6.1491,-6.1509,-6.1575,-6.1679,-6.1679,-6.1631,-6.1495,-6.1491,-6.1409,-6.1289,-6.1271,-6.1339,-6.1491,-6.1446,-6.1392,-6.1277,-6.1522,-6.158,-6.1446,-6.1588,-6.1678,-6.1638,-6.152,-6.1491,-6.1485,-6.1339,-6.1364,-6.1491,-6.1501,-6.1579,-6.1679,-8.1093,-8.1093,-8.1093,-8.1093,-8.1093,-8.1093,-8.1093,-8.1093,-8.1093,-8.1093,-8.1093,-8.1093,-8.1093,-8.1093,-8.1093,-8.1093,-8.1093,-8.1093,-8.1093,-8.1093,-8.1093,-8.1093,-8.1093,-8.0592,-7.9554,-7.8669,-7.7823,-7.7015,-7.6322,-7.6015,-7.6015,-7.6015,-7.6015,-7.6015,-7.6015,-7.6015,-7.6015,-7.6015,-7.6015,-7.6015,-7.6015,-7.6015,-7.6015,-7.6015,-7.5861,-7.563,-7.4938,-7.4476,-7.3976,-7.2629,-7.1629,-7.0898,-7.0898,-7.0898,-7.0898,-7.0898,-7.0783,-7.0514,-6.986,-6.9436,-6.8821,-6.7436,-6.6974,-6.6667,-6.6051,-6.5743,-6.5436,-6.4743,-6.432,-6.3666,-6.2332,-6.1947,-6.1601,-6.0896,-6.0781,-6.0781,-6.0781,-6.0781,-6.0781,-6.0781,-6.0781,-6.0845,-6.0944,-6.122,-6.1421,-6.1501,-6.1585,-6.1632,-6.1566,-6.1527,-6.1491,-6.1339,-6.1334,-6.1318,-6.1289,-6.115,-6.1172,-6.1334,-6.1168,-6.1081,-6.1073,-6.1126,-6.114,-6.1111,-6.1323,-6.1378,-6.1373,-6.1349,-6.1334,-6.1334,-6.1301,-6.1306,-6.1349,-6.1478,-6.1512,-6.1573,-8.1093,-8.1093,-8.1093,-8.1093,-8.1093,-8.1093,-8.1093,-8.1093,-8.1093,-8.1093,-8.1093,-8.1093,-8.1093,-8.1093,-8.1093,-8.1093,-8.1093,-8.1093,-8.1093,-8.1093,-8.1093,-8.1093,-8.1093,-8.09,-8.0439,-7.9554,-7.8515,-7.7284,-7.6823,-7.6399,-7.6015,-7.6015,-7.6015,-7.6015,-7.6015,-7.6015,-7.6015,-7.6015,-7.6015,-7.6015,-7.6015,-7.6015,-7.6015,-7.6015,-7.6015,-7.5938,-7.5476,-7.5053,-7.4437,-7.2783,-7.1898,-7.1437,-7.1014,-7.0898,-7.0898,-7.0898,-7.0898,-7.0821,-7.0398,-6.9975,-6.9475,-6.8552,-6.7705,-6.6898,-6.609,-6.5897,-6.5782,-6.532,-6.4897,-6.432,-6.3435,-6.2935,-6.2397,-6.1562,-6.1396,-6.1281,-6.0858,-6.0781,-6.0781,-6.0781,-6.0877,-6.0991,-6.1214,-6.1404,-6.1517,-6.1584,-6.1587,-6.1579,-6.1507,-6.1424,-6.1334,-6.1172,-6.1165,-6.112,-6.1053,-6.0964,-6.0964,-6.1053,-6.1006,-6.0982,-6.0905,-6.1056,-6.1097,-6.1014,-6.1214,-6.1283,-6.1277,-6.12,-6.1165,-6.1158,-6.1095,-6.1112,-6.1186,-6.1349,-6.1495,-6.1627,-8.1093,-8.1093,-8.1093,-8.1093,-8.1093,-8.1093,-8.1093,-8.1093,-8.1093,-8.1093,-8.1093,-8.1093,-8.1093,-8.1093,-8.1093,-8.1093,-8.1093,-8.1093,-8.1093,-8.1093,-8.1093,-8.1093,-8.1093,-8.1093,-8.1093,-8.04,-7.9285,-7.7746,-7.7592,-7.713,-7.6438,-7.6284,-7.6207,-7.6207,-7.6053,-7.6015,-7.6015,-7.6015,-7.6015,-7.6015,-7.6015,-7.6015,-7.6015,-7.6015,-7.6015,-7.6015,-7.6015,-7.5438,-7.4476,-7.3091,-7.2552,-7.2283,-7.1398,-7.1129,-7.1091,-7.0937,-7.0898,-7.0898,-7.0898,-7.0398,-6.986,-6.9744,-6.859,-6.7321,-6.6513,-6.609,-6.5897,-6.5897,-6.532,-6.4782,-6.4628,-6.4012,-6.3281,-6.2435,-6.2332,-6.2012,-6.1127,-6.1012,-6.0997,-6.0861,-6.0991,-6.1195,-6.1452,-6.1504,-6.1566,-6.1677,-6.1525,-6.1435,-6.1417,-6.1318,-6.1165,-6.0982,-6.0982,-6.0915,-6.0781,-6.0781,-6.0781,-6.0793,-6.0915,-6.0905,-6.0804,-6.1087,-6.1112,-6.0991,-6.1128,-6.12,-6.1186,-6.1023,-6.0982,-6.0954,-6.0845,-6.086,-6.097,-6.1214,-6.1474,-6.1678,-8.1093,-8.1093,-8.1093,-8.1093,-8.1093,-8.1093,-8.1093,-8.1093,-8.1093,-8.1093,-8.1093,-8.1093,-8.1093,-8.1093,-8.1093,-8.1093,-8.1093,-8.1093,-8.1093,-8.1093,-8.1093,-8.1093,-8.1093,-8.1093,-8.1093,-8.0977,-8.0439,-7.9477,-7.8707,-7.8284,-7.813,-7.7438,-7.713,-7.7092,-7.6322,-7.6015,-7.6015,-7.6015,-7.6015,-7.6015,-7.6015,-7.6015,-7.6015,-7.6015,-7.6015,-7.6015,-7.6015,-7.5438,-7.4668,-7.4437,-7.3899,-7.3168,-7.2283,-7.2014,-7.186,-7.1129,-7.0898,-7.0898,-7.0898,-7.0821,-7.0552,-6.986,-6.9513,-6.9129,-6.8282,-6.6936,-6.5897,-6.5897,-6.582,-6.5474,-6.4743,-6.4512,-6.4128,-6.3281,-6.3128,-6.2858,-6.2062,-6.1908,-6.1692,-6.1041,-6.1244,-6.1439,-6.1501,-6.1504,-6.1507,-6.1517,-6.1392,-6.1259,-6.1058,-6.1065,-6.0973,-6.0823,-6.085,-6.0827,-6.0781,-6.0781,-6.0781,-6.0781,-6.0827,-6.0827,-6.0793,-6.0834,-6.0845,-6.0811,-6.0845,-6.0867,-6.0867,-6.0823,-6.085,-6.0839,-6.0804,-6.0816,-6.0877,-6.1165,-6.1387,-6.1527,-8.1093,-8.1093,-8.1093,-8.1093,-8.1093,-8.1093,-8.1093,-8.1093,-8.1093,-8.1093,-8.1093,-8.1093,-8.1093,-8.1093,-8.1093,-8.1093,-8.1093,-8.1093,-8.1093,-8.1093,-8.1093,-8.1093,-8.1093,-8.1093,-8.1093,-8.1093,-8.09,-8.0516,-7.9669,-7.8977,-7.8477,-7.813,-7.7707,-7.7284,-7.6899,-7.6476,-7.6015,-7.6015,-7.6015,-7.6015,-7.6015,-7.6015,-7.6015,-7.6015,-7.6015,-7.6015,-7.6015,-7.5745,-7.5361,-7.4861,-7.4476,-7.4014,-7.3206,-7.2591,-7.2129,-7.1745,-7.1283,-7.0898,-7.0898,-7.0898,-7.0821,-7.0475,-7.0014,-6.959,-6.9206,-6.7782,-6.6551,-6.6551,-6.6205,-6.5782,-6.5397,-6.532,-6.5051,-6.4166,-6.4051,-6.3743,-6.2897,-6.2358,-6.1819,-6.1086,-6.1126,-6.1256,-6.1373,-6.1378,-6.1378,-6.1378,-6.1246,-6.1105,-6.1006,-6.0945,-6.085,-6.0793,-6.0781,-6.0781,-6.0781,-6.0781,-6.0781,-6.0781,-6.0781,-6.0781,-6.0781,-6.0781,-6.0781,-6.0781,-6.0781,-6.0781,-6.0781,-6.0781,-6.0781,-6.0781,-6.0781,-6.0856,-6.0954,-6.1193,-6.1378,-6.1515]},{"header":{"parameterUnit":"m.s-1","parameterCategory":1,"la1":30.6,"la2":28.766,"lo1":-90.7593,"lo2":-88.6598,"dy":0.0162,"dx":0.0183,"nx":116,"ny":114,"refTime":"2024-05-25T06:00:00:Z","depth":0,"parameterNumber":3,"parameterNumberName":"V-component_of_WINDS"},"data":[0.0,0.0,0.0,0.0,0.0,0.0,0.0,0.0,0.0,0.0,0.0,0.0,0.0,0.0,0.0,0.0,0.0,0.0,0.0,0.0,0.0,0.0,0.0,0.0,0.0,0.0,0.0,0.0,0.0,0.0,0.0,0.0,0.0,0.0,0.0,0.0,0.0,0.0,0.0,0.0,0.0,0.0,0.0,0.0,0.0,0.0,0.0,0.0,0.0,0.0,0.0,0.0,0.0,0.0,0.0,0.0,0.0,0.0,0.0,0.0,0.0,0.0,0.0,0.0,0.0,0.0,0.0,0.0,0.0,0.0,0.0,0.0,0.0,0.0,0.0,0.0,0.0,0.0,0.0,0.0,0.0,0.0,0.0,0.0,0.0,0.0,0.0,0.0,0.0,0.0,0.0,0.0,0.0,0.0,0.0,0.0,0.0,0.0,0.0,0.0,0.0,0.0,0.0,0.0,0.0,0.0,0.0,0.0,0.0,0.0,0.0,0.0,0.0,0.0,0.0,0.0,0.0,0.0,0.0,0.0,0.0,0.0,0.0,0.0,0.0,0.0,0.0,0.0,0.0,0.0,0.0,0.0,0.0,0.0,0.0,0.0,0.0,0.0,0.0,0.0,0.0,0.0,0.0,0.0,0.0,0.0,0.0,0.0,0.0,0.0,0.0,0.0,0.0,0.0,0.0,0.0,0.0,0.0,0.0,0.0,0.0,0.0,0.0,0.0,0.0,0.0,0.0,0.0,0.0,0.0,0.0,0.0,0.0,0.0,0.0,0.0,0.0,0.0,0.0,0.0,0.0,0.0,0.0,0.0,0.0,0.0,0.0,0.0,0.0,0.0,0.0,0.0,0.0,0.0,0.0,0.0,0.0,0.0,0.0,0.0,0.0,0.0,0.0,0.0,0.0,0.0,0.0,0.0,0.0,0.0,0.0,0.0,0.0,0.0,0.0,0.0,0.0,0.0,0.0,0.0,0.0,0.0,0.0,0.0,0.0,0.0,0.0,0.0,0.0,0.0,0.0,0.0,0.0,0.0,0.0,0.0,0.0,0.0,0.0,0.0,0.0,0.0,0.0,0.0,0.0,0.0,0.0,0.0,0.0,0.0,0.0,0.0,0.0,0.0,0.0,0.0,0.0,0.0,0.0,0.0,0.0,0.0,0.0,0.0,0.0,0.0,0.0,0.0,0.0,0.0,0.0,0.0,0.0,0.0,0.0,0.0,0.0,0.0,0.0,0.0,0.0,0.0,0.0,0.0,0.0,0.0,0.0,0.0,0.0,0.0,0.0,0.0,0.0,0.0,0.0,0.0,0.0,0.0,0.0,0.0,0.0,0.0,0.0,0.0,0.0,0.0,0.0,0.0,0.0,0.0,0.0,0.0,0.0,0.0,0.0,0.0,0.0,0.0,0.0,0.0,0.0,0.0,0.0,0.0,0.0,0.0,0.0,0.0,0.0,0.0,0.0,0.0,0.0,0.0,0.0,0.0,0.0,0.0,0.0,0.0,0.0,0.0,0.0,0.0,0.0,0.0,0.0,0.0,0.0,0.0,0.0,0.0,0.0,0.0,0.0,0.0,0.0,0.0,0.0,0.0,0.0,0.0,0.0,0.0,0.0,0.0,0.0,0.0,0.0,0.0,0.0,0.0,0.0,0.0,0.0,0.0,0.0,0.0,0.0,0.0,0.0,0.0,0.0,0.0,0.0,0.0,0.0,0.0,0.0,0.0,0.0,0.0,0.0,0.0,0.0,0.0,0.0,0.0,0.0,0.0,0.0,0.0,0.0,0.0,0.0,0.0,0.0,0.0,0.0,0.0,0.0,0.0,0.0,0.0,0.0,0.0,0.0,0.0,0.0,0.0,0.0,0.0,0.0,0.0,0.0,0.0,0.0,0.0,0.0,0.0,0.0,0.0,0.0,0.0,0.0,0.0,0.0,0.0,0.0,0.0,0.0,0.0,0.0,0.0,0.0,0.0,0.0,0.0,0.0,0.0,0.0,0.0,0.0,0.0,0.0,0.0,0.0,0.0,0.0,0.0,0.0,0.0,0.0,0.0,0.0,0.0,0.0,0.0,0.0,0.0,0.0,0.0,0.0,0.0,0.0,0.0,0.0,0.0,0.0,0.0,0.0,0.0,0.0,0.0,0.0,0.0,0.0,0.0,0.0,0.0,0.0,0.0,0.0,0.0,0.0,0.0,0.0,0.0,0.0,0.0,0.0,0.0,0.0,0.0,0.0,0.0,0.0,0.0,0.0,0.0,0.0,0.0,0.0,0.0,0.0,0.0,0.0,0.0,0.0,0.0,0.0,0.0,0.0,0.0,0.0,0.0,0.0,0.0,0.0,0.0,0.0,0.0,0.0,0.0,0.0,0.0,0.0,0.0,0.0,0.0,0.0,0.0,0.0,0.0,0.0,0.0,0.0,0.0,0.0,0.0,0.0,0.0,0.0,0.0,0.0,0.0,0.0,0.0,0.0,0.0,0.0,0.0,0.0,0.0,0.0,0.0,0.0,0.0,0.0,0.0,0.0,0.0,0.0,0.0,0.0,0.0,0.0,0.0,0.0,0.0,0.0,0.0,0.0,0.0,0.0,0.0,0.0,0.0,0.0,0.0,0.0,0.0,0.0,0.0,0.0,0.0,0.0,0.0,0.0,0.0,0.0,0.0,0.0,0.0,0.0,0.0,0.0,0.0,0.0,0.0,0.0,0.0,0.0,0.0,0.0,0.0,0.0,0.0,0.0,0.0,0.0,0.0,0.0,0.0,0.0,0.0,0.0,0.0,0.0,0.0,0.0,0.0,0.0,0.0,0.0,0.0,0.0,0.0,0.0,0.0,0.0,0.0,0.0,0.0,0.0,0.0,0.0,0.0,0.0,0.0,0.0,0.0,0.0,0.0,0.0,0.0,0.0,0.0,0.0,0.0,0.0,0.0,0.0,0.0,0.0,0.0,0.0,0.0,0.0,0.0,0.0,0.0,0.0,0.0,0.0,0.0,0.0,0.0,0.0,0.0,0.0,0.0,0.0,0.0,0.0,0.0,0.0,0.0,0.0,0.0,0.0,0.0,0.0,0.0,0.0,0.0,0.0,0.0,0.0,0.0,0.0,0.0,0.0,0.0,0.0,0.0,0.0,0.0,0.0,0.0,0.0,0.0,0.0,0.0,0.0,0.0,0.0,0.0,0.0,0.0,0.0,0.0,0.0,0.0,0.0,0.0,0.0,0.0,0.0,0.0,0.0,0.0,0.0,0.0,0.0,0.0,0.0,0.0,0.0,0.0,0.0,0.0,0.0,0.0,0.0,0.0,0.0,0.0,0.0,0.0,0.0,0.0,0.0,0.0,0.0,0.0,0.0,0.0,0.0,0.0,0.0,0.0,0.0,0.0,0.0,0.0,0.0,0.0,0.0,0.0,0.0,0.0,0.0,0.0,0.0,0.0,0.0,0.0,0.0,0.0,0.0,0.0,0.0,0.0,0.0,0.0,0.0,0.0,0.0,0.0,0.0,0.0,0.0,0.0,0.0,0.0,0.0,0.0,0.0,0.0,0.0,0.0,0.0,0.0,0.0,0.0,0.0,0.0,0.0,0.0,0.0,0.0,0.0,0.0,0.0,0.0,0.0,0.0,0.0,0.0,0.0,0.0,0.0,0.0,0.0,0.0,0.0,0.0,0.0,0.0,0.0,0.0,0.0,0.0,0.0,0.0,0.0,0.0,0.0,0.0,0.0,0.0,0.0,0.0,0.0,0.0,0.0,0.0,0.0,0.0,0.0,0.0,0.0,0.0,0.0,0.0,0.0,0.0,0.0,0.0,0.0,0.0,0.0,0.0,0.0,0.0,0.0,0.0,0.0,0.0,0.0,0.0,0.0,0.0,0.0,0.0,0.0,0.0,0.0,0.0,0.0,0.0,0.0,0.0,0.0,0.0,0.0,0.0,0.0,0.0,0.0,0.0,0.0,0.0,0.0,0.0,0.0,0.0,0.0,0.0,0.0,0.0,0.0,0.0,0.0,0.0,0.0,0.0,0.0,0.0,0.0,0.0,0.0,0.0,0.0,0.0,0.0,0.0,0.0,0.0,0.0,0.0,0.0,0.0,0.0,0.0,0.0,0.0,0.0,0.0,0.0,0.0,0.0,0.0,0.0,0.0,0.0,0.0,0.0,0.0,0.0,0.0,0.0,0.0,0.0,0.0,0.0,0.0,0.0,0.0,0.0,0.0,0.0,0.0,0.0,0.0,0.0,0.0,0.0,0.0,0.0,0.0,0.0,0.0,0.0,0.0,0.0,0.0,0.0,0.0,0.0,0.0,0.0,0.0,0.0,0.0,0.0,0.0,0.0,0.0,0.0,0.0,0.0,0.0,0.0,0.0,0.0,0.0,0.0,0.0,0.0,0.0,0.0,0.0,0.0,0.0,0.0,0.0,0.0,0.0,0.0,0.0,0.0,0.0,0.0,0.0,0.0,0.0,0.0,0.0,0.0,0.0,0.0,0.0,0.0,0.0,0.0,0.0,0.0,0.0,0.0,0.0,0.0,0.0,0.0,0.0,0.0,0.0,0.0,0.0,0.0,0.0,0.0,0.0,0.0,0.0,0.0,0.0,0.0,0.0,0.0,0.0,0.0,0.0,0.0,0.0,0.0,0.0,0.0,0.0,0.0,0.0,0.0,0.0,0.0,0.0,0.0,0.0,0.0,0.0,0.0,0.0,0.0,0.0,0.0,0.0,0.0,0.0,0.0,0.0,0.0,0.0,0.0,0.0,0.0,0.0,0.0,0.0,0.0,0.0,0.0,0.0,0.0,0.0,0.0,0.0,0.0,0.0,0.0,0.0,0.0,0.0,0.0,0.0,0.0,0.0,0.0,0.0,0.0,0.0,0.0,0.0,0.0,0.0,0.0,0.0,0.0,0.0,0.0,0.0,0.0,0.0,0.0,0.0,0.0,0.0,0.0,0.0,0.0,0.0,0.0,0.0,0.0,0.0,0.0,0.0,0.0,0.0,0.0,0.0,0.0,0.0,0.0,0.0,0.0,0.0,0.0,0.0,0.0,0.0,0.0,0.0,0.0,0.0,0.0,0.0,0.0,0.0,0.0,0.0,0.0,0.0,0.0,0.0,0.0,0.0,0.0,0.0,0.0,0.0,0.0,0.0,0.0,0.0,0.0,0.0,0.0,0.0,0.0,0.0,0.0,0.0,0.0,0.0,0.0,0.0,0.0,0.0,0.0,0.0,0.0,0.0,0.0,0.0,0.0,0.0,0.0,0.0,0.0,0.0,0.0,0.0,0.0,0.0,0.0,0.0,0.0,0.0,0.0,0.0,0.0,0.0,0.0,0.0,0.0,0.0,0.0,0.0,0.0,0.0,0.0,0.0,0.0,0.0,0.0,0.0,0.0,0.0,0.0,0.0,0.0,0.0,0.0,0.0,0.0,0.0,0.0,0.0,0.0,0.0,0.0,0.0,0.0,0.0,0.0,0.0,0.0,0.0,0.0,0.0,0.0,0.0,0.0,0.0,0.0,0.0,0.0,0.0,0.0,0.0,0.0,0.0,0.0,0.0,0.0,0.0,0.0,0.0,0.0,0.0,0.0,0.0,0.0,0.0,0.0,0.0,0.0,0.0,0.0,0.0,0.0,0.0,0.0,0.0,0.0,0.0,0.0,0.0,0.0,0.0,0.0,0.0,0.0,0.0,0.0,0.0,0.0,0.0,0.0,0.0,0.0,0.0,0.0,0.0,0.0,0.0,0.0,0.0,0.0,0.0,0.0,0.0,0.0,0.0,0.0,0.0,0.0,0.0,0.0,0.0,0.0,0.0,0.0,0.0,0.0,0.0,0.0,0.0,0.0,0.0,0.0,0.0,0.0,0.0,0.0,0.0,0.0,0.0,0.0,0.0,0.0,0.0,0.0,0.0,0.0,0.0,0.0,0.0,0.0,0.0,0.0,0.0,0.0,0.0,0.0,0.0,0.0,0.0,0.0,0.0,0.0,0.0,0.0,0.0,0.0,0.0,0.0,0.0,0.0,0.0,0.0,0.0,0.0,0.0,0.0,0.0,0.0,0.0,0.0,0.0,0.0,0.0,0.0,0.0,0.0,0.0,0.0,0.0,0.0,0.0,-1.1441,-1.0938,0.0,0.0,0.0,0.0,0.0,0.0,0.0,0.0,0.0,0.0,0.0,0.0,0.0,0.0,0.0,0.0,0.0,0.0,0.0,0.0,0.0,0.0,0.0,0.1869,0.1488,0.1145,0.262,0.3595,0.3595,0.0,0.0,0.0,0.0,0.0,0.3932,0.2804,0.2203,0.2214,0.1113,0.0389,0.0,0.0,0.0,0.0,0.0,0.0,0.0,0.0,0.0,0.0,0.0,0.0,0.0,0.0,0.0,0.0,0.0,0.0,0.0,0.0,0.0,0.0,0.0,0.0,0.0,0.0,0.0,0.0,0.0,0.0,0.0,0.0,0.0,0.0,0.0,0.0,0.0,0.0,0.0,0.0,0.0,0.0,0.0,0.0,0.0,0.0,0.0,0.0,0.0,0.0,0.0,0.0,0.0,0.0,0.0,0.0,0.0,0.0,0.0,0.0,0.0,0.0,0.0,0.0,0.0,0.0,0.0,0.0,0.0,0.0,0.0,0.0,0.0,0.0,-1.4078,-1.3332,0.0,0.0,0.0,0.0,0.0,0.0,0.0,0.0,0.0,0.0,0.0,0.0,0.0,0.0,0.0,0.0,0.0,0.0,0.0,0.0,0.0,0.31,0.2278,0.2075,0.1709,0.0984,0.2319,0.3259,0.3427,0.4122,0.0,0.0,0.0,0.451,0.4341,0.2959,0.2176,0.2009,0.0648,0.0,0.0,0.0,0.0,0.0,0.0,0.0,0.0,0.0,0.0,0.0,0.0,0.0,0.0,0.0,0.0,0.0,0.0,0.0,0.0,0.0,0.0,0.0,0.0,0.0,0.0,0.0,0.0,0.0,0.0,0.0,0.0,0.0,0.0,0.0,0.0,0.0,0.0,0.0,0.0,0.0,0.0,0.0,0.0,0.0,0.0,0.0,0.0,0.0,0.0,0.0,0.0,0.0,0.0,0.0,0.0,0.0,0.0,0.0,0.0,0.0,0.0,0.0,0.0,0.0,0.0,0.0,0.0,0.0,-1.4541,-1.5429,-1.7903,-1.7943,-1.8116,-1.8195,-1.6242,-1.5686,-1.5997,-1.461,0.0,0.0,0.0,0.0,0.0,0.0,0.0,0.0,0.0,0.0,0.0,0.0,0.0,0.0,0.0,0.0,0.0,0.0,0.0,0.31,0.2293,0.1638,0.0961,0.0222,0.1054,0.1939,0.2777,0.3508,0.0,0.0,0.4908,0.4489,0.3731,0.2876,0.2068,0.1237,0.0414,0.0,0.0,0.0,0.0,0.0,0.0,0.0,0.0,0.0,0.0,0.0,0.0,0.0,0.0,0.0,0.0,0.0,0.0,0.0,0.0,0.0,0.0,0.0,0.0,0.0,0.0,0.0,0.0,0.0,0.0,0.0,0.0,0.0,0.0,0.0,0.0,0.0,0.0,0.0,0.0,0.0,0.0,0.0,0.0,0.0,0.0,0.0,0.0,0.0,-0.5826,-0.6485,0.0,0.0,0.0,0.0,0.0,0.0,0.0,0.0,0.0,0.0,0.0,0.0,0.0,-1.2096,-1.4137,-1.5693,-1.6537,-1.6803,-1.844,-1.9181,-1.9145,-1.9399,-1.9533,-1.9429,-1.7674,0.0,-1.7171,-1.4751,0.0,0.0,0.0,0.0,0.0,0.0,0.0,0.0,0.0,0.0,0.0,0.0,0.0,0.0,0.0,0.0,0.0,0.0,0.0,0.0,0.0,0.2016,0.1386,0.0103,0.0793,0.171,0.2637,0.3397,0.4177,0.5078,0.4961,0.4492,0.3622,0.2876,0.1848,0.048,0.0177,0.0,0.0,0.0,0.0,0.0,0.0,0.0,0.0,0.0,0.0,0.0,0.0,0.0,0.0,0.0,0.0,0.0,0.0,0.0,0.0,0.0,0.0,0.0,0.0,0.0,0.0,0.0,0.0,0.0,0.0,0.0,0.0,0.0,0.0,0.0,0.0,0.0,0.0,0.0,0.0,0.0,0.0,0.0,0.0,0.0,0.0,0.0,0.0,-0.557,-0.6668,-0.7034,-0.7041,-0.6946,0.0,0.0,0.0,0.0,0.0,0.0,0.0,0.0,0.0,-1.1196,-1.163,-1.3165,-1.5975,-1.6138,-1.7167,-1.9056,-1.9109,-1.9543,-2.0347,-2.0481,-2.0028,-1.9013,-1.8256,-1.7352,-1.633,-1.5349,-1.4636,-1.4277,0.0,0.0,0.0,0.0,-1.515,-1.519,0.0,0.0,0.0,0.0,0.0,0.0,0.0,0.0,0.0,0.0,0.0,0.0,0.2845,0.2927,0.2497,0.1092,0.1579,0.2351,0.332,0.3765,0.4393,0.5306,0.4893,0.4252,0.3383,0.2366,0.1261,0.0,0.0,0.0,0.0,0.0,0.0,0.0,0.0,0.0,0.0,0.0,0.0,0.0,0.0,0.0,0.0,0.0,0.0,0.0,0.0,0.0,0.0,0.0,0.0,0.0,0.0,0.0,0.0,0.0,0.0,0.0,0.0,0.0,0.0,0.0,0.0,0.0,0.0,0.0,0.0,0.0,0.0,0.0,0.0,0.0,0.0,0.0,0.0,0.0,0.0,-0.6283,-0.7251,-0.7509,-0.7712,-0.7706,0.0,0.0,0.0,0.0,0.0,0.0,-0.8757,-0.9214,-1.0215,-1.1887,-1.2317,-1.3952,-1.6976,-1.6517,-1.7662,-2.0308,-1.9574,-2.0005,-2.1336,-2.0796,-1.985,-1.8542,-1.756,-1.6337,-1.4964,-1.537,-1.5389,-1.5214,-1.5906,-1.6349,-1.6567,-1.6994,-1.7074,-1.7034,0.0,0.0,0.0,0.0,0.0,0.0,0.0,0.0,0.0,0.0,0.0,0.469,0.4159,0.4401,0.4327,0.3684,0.3642,0.4117,0.5177,0.476,0.4899,0.5902,0.4729,0.3623,0.2776,0.1017,0.009,0.0,0.0,0.0,0.0,0.0,0.0,0.0,0.0,0.0,0.0,0.0,0.0,0.0,0.0,0.0,0.0,0.0,0.0,0.0,0.0,0.0,0.0,0.0,0.0,0.0,0.0,0.0,0.0,0.0,0.0,0.0,0.0,0.0,0.0,0.0,0.0,0.0,0.0,0.0,0.0,0.0,0.0,0.0,0.0,0.0,0.0,0.0,0.0,0.0,0.0,0.0,0.0,-0.7934,-0.8262,0.0,0.0,0.0,0.0,-0.8635,-0.8933,-0.9296,-0.9537,-0.9842,-1.0941,-1.2961,-1.3276,-1.4423,-1.6422,-1.8128,-1.9084,-1.9295,-2.0976,-2.1858,-2.1872,-1.9989,-1.9072,-1.8799,-1.5156,-1.3513,-1.3461,-1.4299,-1.5459,-1.6658,-1.6146,-1.6895,-1.8357,-1.8384,-1.8571,-1.8758,0.0,0.0,0.0,0.0,0.0,0.4491,0.4491,0.4491,0.4511,0.4566,0.4962,0.4968,0.4268,0.4647,0.4676,0.3993,0.395,0.3995,0.4118,0.4435,0.44,0.3911,0.3955,0.3324,0.183,0.0638,0.0,0.0,0.0,0.0,0.0,0.0,0.0,0.0,0.0,0.0,0.0,0.0,0.0,0.0,0.0,0.0,0.0,0.0,0.0,0.0,0.0,0.0,0.0,0.0,0.0,0.0,0.0,0.0,0.0,0.0,0.0,0.0,0.0,0.0,0.0,0.0,0.0,0.0,0.0,0.0,0.0,0.0,0.0,0.0,0.0,0.0,0.0,0.0,0.0,0.0,0.0,0.0,0.0,-0.8716,-0.9022,0.0,-0.892,-0.9089,-0.9266,-0.9415,-0.9795,-1.0107,-1.031,-1.0602,-1.1147,-1.1851,-1.1969,-1.287,-1.4683,-1.5362,-1.631,-1.7389,-1.8061,-1.8396,-1.8396,-1.7639,-1.6727,-1.5644,-1.5234,-1.3834,-1.197,-1.4438,-1.5616,-1.6009,-1.6725,-1.804,-1.9613,-1.9613,-1.9679,-1.9687,0.0,0.0,0.0,0.0,0.4491,0.4491,0.4491,0.4491,0.4545,0.4696,0.5201,0.5412,0.5081,0.5591,0.575,0.5339,0.5293,0.4997,0.4296,0.4637,0.4273,0.2962,0.3002,0.2384,0.0885,0.0291,0.0,0.0,0.0,0.0,0.0,0.0,0.0,0.0,0.0,0.0,0.0,0.0,0.0,0.0,0.0,0.0,0.0,0.0,0.0,0.0,0.0,0.0,0.0,0.0,0.0,0.0,0.0,0.0,0.0,0.0,0.0,0.0,0.0,0.0,0.0,0.0,0.0,0.0,0.0,0.0,0.0,0.0,0.0,0.0,0.0,0.0,0.0,0.0,0.0,0.0,0.0,0.0,-0.8893,-0.9248,-0.9591,-0.9754,-0.9551,-0.9808,-1.0025,-1.012,-1.0493,-1.0765,-1.0867,-1.1104,-1.124,-1.124,-1.1287,-1.1867,-1.3036,-1.3722,-1.4613,-1.5706,-1.6392,-1.6666,-1.6666,-1.5972,-1.5055,-1.3959,-1.4314,-1.3461,-1.194,-1.4187,-1.5644,-1.6573,-1.7554,-1.8951,-2.0521,-2.0521,-2.0521,-2.0508,0.0,0.0,0.0,0.4491,0.4491,0.4491,0.4491,0.4491,0.4648,0.5036,0.5521,0.6037,0.6634,0.7244,0.7665,0.7807,0.7814,0.7276,0.6009,0.539,0.454,0.3293,0.1961,0.0855,0.0,0.0,0.0,0.0,0.0,0.0,0.0,0.0,0.0,0.0,0.0,0.0,0.0,0.0,0.0,0.0,0.0,0.0,0.0,0.0,0.0,0.0,0.0,0.0,0.0,0.0,0.0,0.0,0.0,0.0,0.0,0.0,0.0,0.0,0.0,0.0,0.0,0.0,0.0,0.0,0.0,0.0,0.0,0.0,0.0,0.0,0.0,0.0,0.0,0.0,0.0,0.0,-0.8029,-0.8716,-0.9296,-0.9395,-0.9937,-1.0181,-0.9883,-1.0392,-1.0738,-1.0738,-1.1002,-1.1241,-1.1241,-1.1314,-1.1396,-1.1396,-1.1545,-1.1619,-1.1619,-1.3381,-1.429,-1.4361,-1.6192,-1.7047,-1.6967,-1.5007,-1.4092,-1.4005,-1.2051,-1.2103,-1.3478,-1.3537,-1.5524,-1.8512,-1.8512,-1.9546,-2.1109,-2.1109,-2.1109,-2.1069,0.0,0.0,0.4491,0.4491,0.4491,0.4491,0.4491,0.4491,0.4614,0.4901,0.5521,0.6152,0.6647,0.7333,0.7814,0.7914,0.7875,0.6882,0.4692,0.4894,0.4134,0.1949,0.0906,0.025,0.0,0.0,0.0,0.0,0.0,0.0,0.0,0.0,0.0,0.0,0.0,0.0,0.0,0.0,0.0,0.0,0.0,0.0,0.0,0.0,0.0,0.0,0.0,0.0,0.0,0.0,0.0,0.0,0.0,0.0,0.0,0.0,0.0,0.0,0.0,0.0,0.0,0.0,0.0,0.0,0.0,0.0,0.0,0.0,0.0,0.0,0.0,0.0,0.0,0.0,0.0,-0.871,-0.8981,-0.9469,-0.9897,-1.0154,-1.0527,-1.0731,-1.0584,-1.088,-1.1043,-1.1043,-1.1219,-1.1328,-1.1328,-1.147,-1.1558,-1.1558,-1.1599,-1.1619,-1.1619,-1.2115,-1.2395,-1.2395,-1.2888,-1.3174,-1.3103,-1.2558,-1.233,-1.2244,-1.16,-1.2266,-1.379,-1.4919,-1.665,-1.8512,-1.8512,-1.9546,-2.1109,-2.1109,-2.1109,-2.1069,0.0,0.4759,0.4491,0.4491,0.4491,0.4491,0.4491,0.4491,0.4648,0.5047,0.5644,0.6209,0.6824,0.7387,0.778,0.788,0.7862,0.6714,0.4105,0.3336,0.2287,0.08,0.0249,0.0,0.0,0.0,0.0,0.0,0.0,0.0,0.0,0.0,0.0,0.0,0.0,0.0,0.0,0.0,0.0,0.0,0.0,0.0,0.0,0.0,0.0,0.0,0.0,0.0,0.0,0.0,0.0,0.0,0.0,0.0,0.0,0.0,0.0,0.0,0.0,0.0,0.0,0.0,0.0,0.0,0.0,0.0,0.0,0.0,0.0,0.0,0.0,0.0,0.0,0.0,-0.8859,-0.9435,-0.9795,-1.0019,-1.0276,-1.0643,-1.0839,-1.09,-1.1029,-1.1172,-1.126,-1.126,-1.1402,-1.1511,-1.1572,-1.166,-1.1735,-1.1803,-1.1803,-1.1803,-1.1803,-1.1803,-1.1769,-1.1708,-1.1708,-1.1681,-1.1619,-1.1619,-1.1619,-1.1613,-1.1525,-1.233,-1.3934,-1.5567,-1.7118,-1.8576,0.0,0.0,0.0,0.0,-2.1109,-2.1082,0.0,0.4491,0.4491,0.4491,0.4491,0.4491,0.4491,0.4491,0.4709,0.5317,0.5752,0.6269,0.6991,0.7407,0.7658,0.7801,0.7794,0.6661,0.3969,0.1405,0.0,0.0,0.0,0.0,0.0,0.0,0.0,0.0,0.0,0.0,0.0,0.0,0.0,0.0,0.0,0.0,0.0,0.0,0.0,0.0,0.0,0.0,0.0,0.0,0.0,0.0,0.0,0.0,0.0,0.0,0.0,0.0,0.0,0.0,0.0,0.0,0.0,0.0,0.0,0.0,0.0,0.0,0.0,0.0,0.0,0.0,0.0,0.0,0.0,0.0,0.0,0.0,0.0,0.0,-0.9496,-1.0025,-1.046,-1.0426,-1.0507,-1.0833,-1.0894,-1.1029,-1.1172,-1.1328,-1.1416,-1.1416,-1.1558,-1.1701,-1.1823,-1.1843,0.0,0.0,0.0,-1.2135,-1.2135,-1.2135,-1.1993,-1.1857,-1.1837,-1.1769,-1.164,-1.1626,-1.1619,-1.1619,-1.1619,-1.2433,-1.3976,-1.5508,-1.7047,-1.8704,-2.0386,-2.1109,-2.1109,-2.1109,-2.1109,-2.1109,0.0,0.4491,0.4491,0.4491,0.4491,0.4491,0.4491,0.4491,0.4709,0.5317,0.5752,0.6229,0.6856,0.7346,0.7658,0.7801,0.7706,0.6555,0.3989,0.1405,0.0,0.0,0.0,0.0,0.0,0.0,0.0,0.0,0.0,0.0,0.0,0.0,0.0,0.0,0.0,0.0,0.0,0.0,0.0,0.0,0.0,0.0,0.0,0.0,0.0,0.0,0.0,0.0,0.0,0.0,0.0,0.0,0.0,0.0,0.0,0.0,0.0,0.0,0.0,0.0,0.0,0.0,0.0,0.0,0.0,0.0,0.0,0.0,0.0,0.0,0.0,0.0,0.0,-0.9374,-0.9876,-1.0304,-1.0629,-1.0758,-1.0786,-1.0873,-1.105,-1.1179,-1.1335,-1.1484,-1.1572,-1.1572,-1.1708,-1.1803,-1.183,-1.1952,-1.2033,-1.2135,-1.2135,-1.2135,-1.2135,-1.2135,-1.2047,-1.2013,-1.1891,0.0,-1.1789,-1.1674,-1.1619,-1.1619,-1.1619,-1.2492,-1.3955,-1.4207,-1.5985,-1.8704,-2.0386,-2.1109,-2.1109,-2.1109,-2.1109,-2.1109,0.4491,0.4491,0.4491,0.4491,0.4491,0.4491,0.4491,0.4491,0.4682,0.5176,0.5576,0.601,0.6539,0.6858,0.7061,0.7136,0.6024,0.4863,0.3786,0.1369,0.0,0.0,0.0,0.0,0.0,0.0,0.0,0.0,0.0,0.0,0.0,0.0,0.0,0.0,0.0,0.0,0.0,0.0,0.0,0.0,0.0,0.0,0.0,0.0,0.0,0.0,0.0,0.0,0.0,0.0,0.0,0.0,0.0,0.0,0.0,0.0,0.0,0.0,0.0,0.0,0.0,0.0,0.0,0.0,0.0,0.0,0.0,0.0,0.0,-0.486,0.0,0.0,-0.9415,-0.9869,-1.0195,-1.0466,-1.069,-1.0853,-1.0907,-1.105,-1.1185,-1.1335,-1.1491,-1.1572,-1.1647,-1.1721,-1.1789,-1.1898,-1.2054,-1.2135,-1.221,-1.2277,-1.2284,-1.2284,-1.2284,-1.2284,-1.2244,-1.2176,-1.202,-1.1904,-1.1823,-1.1687,-1.1619,-1.1619,-1.1619,-1.2023,-1.2827,-1.4325,-1.6349,-1.8704,-2.0386,-2.1109,-2.1109,-2.1109,-2.1109,-2.1109,0.4491,0.4491,0.4491,0.4491,0.4491,0.4491,0.4491,0.4491,0.4641,0.5002,0.5352,0.574,0.6163,0.634,0.641,0.6504,0.443,0.326,0.0,0.1322,0.0,0.0,0.0,0.0,0.0,0.0,0.0,0.0,0.0,0.0,0.0,0.0,0.0,0.0,0.0,0.0,0.0,0.0,0.0,0.0,0.0,0.0,0.0,0.0,0.0,0.0,0.0,0.0,0.0,0.0,0.0,0.0,0.0,0.0,0.0,0.0,0.0,0.0,0.0,0.0,0.0,0.0,0.0,0.0,0.0,0.0,-0.105,-0.2004,-0.359,-0.5151,-0.6503,-0.848,-0.9998,-1.0276,-1.0439,-1.0582,-1.0704,-1.0853,-1.0989,-1.1104,-1.128,-1.145,-1.1606,-1.1619,-1.1681,-1.1823,-1.1857,-1.1999,-1.2277,-1.2318,-1.2386,-1.2501,-1.2501,-1.2501,-1.2501,-1.2501,-1.244,-1.2332,-1.2176,-1.2026,-1.187,-1.1728,-1.1647,-1.1619,-1.1619,-1.1531,-1.165,-1.4873,-1.691,-1.8249,-2.0284,-2.1109,-2.1109,-2.1109,-2.1109,-2.1109,0.0,0.4491,0.4491,0.4491,0.4491,0.4491,0.4491,0.4491,0.4607,0.4897,0.5203,0.5542,0.582,0.5989,0.6186,0.6491,0.4528,0.3365,0.36,0.1322,0.0,0.0,0.0,0.0,0.0,0.0,0.0,0.0,0.0,0.0,0.0,0.0,0.0,0.0,0.0,0.0,0.0,0.0,0.0,0.0,0.0,0.0,0.0,0.0,0.0,0.0,0.0,0.0,0.0,0.0,0.0,0.0,0.0,0.0,0.0,0.0,0.0,0.0,0.0,-0.0582,-0.1663,-0.3814,-0.4581,-0.5011,0.0,0.0,-0.3573,-0.3703,-0.4334,-0.5331,-0.6756,-0.8821,-1.0283,-1.0439,-1.0595,-1.0704,-1.0717,-1.0853,-1.0887,-1.09,-1.1219,-1.145,-1.1606,-1.1619,-1.1681,-1.1823,-1.1959,-1.2108,-1.2284,-1.2413,-1.2488,-1.2501,-1.2501,-1.2501,-1.2501,-1.2501,-1.2494,-1.2474,-1.2332,-1.2182,-1.2033,-1.1877,-1.1742,-1.1619,-1.1619,-1.1531,-1.1657,-1.5019,-1.6342,-1.6657,-1.9838,-2.1109,-2.1109,-2.1109,-2.1109,-2.1109,0.0,0.4491,0.4491,0.4491,0.4491,0.4491,0.4491,0.4491,0.4566,0.4755,0.4972,0.5148,0.527,0.5386,0.563,0.5935,0.4112,0.3052,0.3295,0.1213,0.0,0.0,0.0,0.0,0.0,0.0,0.0,0.0,0.0,0.0,0.0,0.0,0.0,0.0,0.0,0.0,0.0,0.0,0.0,0.0,0.0,0.0,0.0,0.0,0.0,0.0,0.0,0.0,0.0,0.0,0.0,0.0,0.0,0.0,0.0,0.0,0.0,0.0,0.0,-0.0287,0.0,0.0,-0.2659,-0.2546,-0.3638,-0.2724,-0.1649,-0.169,-0.3529,-0.5374,-0.5994,-0.8506,-1.0555,0.0,-1.0677,-1.0717,-1.0717,-1.0853,-1.088,-1.088,-1.1131,-1.1321,-1.147,-1.1565,-1.1714,-1.1945,-1.2026,-1.2162,-1.24,-1.2467,-1.2501,-1.2501,-1.2501,-1.2501,-1.2501,-1.2501,-1.2501,-1.2501,-1.2359,-1.2257,-1.2189,-1.1945,-1.1755,-1.1619,-1.1619,-1.1531,-1.1657,-1.5037,-1.6248,-1.6425,-1.9786,-2.1109,-2.1109,-2.1109,-2.1109,-2.1109,0.0,0.4491,0.4491,0.4491,0.4491,0.4491,0.4491,0.4491,0.4532,0.4641,0.4762,0.487,0.4881,0.5081,0.5284,0.5508,0.411,0.317,0.3049,0.1433,0.0369,0.0,0.0,0.0,0.0,0.0,0.0,0.0,0.0,0.0,0.0,0.0,0.0,0.0,0.0,0.0,0.0,0.0,0.0,0.0,0.0,0.0,0.0,0.0,0.0,0.0,0.0,0.0,0.0,0.0,0.0,0.0,0.0,0.0,0.0,0.0,0.0,0.0,0.0,0.0,0.0,-0.1734,-0.1367,-0.0955,-0.1856,-0.1339,-0.056,-0.0064,-0.29,-0.5411,-0.5402,-0.8315,-1.0717,-1.0717,-1.0758,-1.0765,-1.0724,-1.0853,-1.0867,-1.0826,-1.1016,-1.1145,-1.126,-1.1443,-1.1701,-1.204,-1.2135,-1.2189,-1.2488,-1.2501,-1.2501,-1.2501,-1.2501,-1.2501,-1.2501,-1.2501,-1.2501,-1.2501,-1.24,-1.2325,-1.2277,-1.1972,-1.1755,-1.1619,-1.1619,-1.1558,-1.1649,-1.4578,-1.5933,-1.6451,-1.9306,-2.0731,-2.1109,-2.1109,-2.1109,-2.1109,0.0,0.0,0.4491,0.4491,0.4491,0.4491,0.4491,0.4491,0.4491,0.4498,0.4634,0.4755,0.4874,0.5182,0.5392,0.5399,0.4801,0.4006,0.2981,0.2196,0.1231,0.0053,0.0,0.0,0.0,0.0,0.0,0.0,0.0,0.0,0.0,0.0,0.0,0.0,0.0,0.0,0.0,0.0,0.0,0.0,0.0,0.0,0.0,0.0,0.0,0.0,0.0,0.0,0.0,0.0,0.0,0.0,0.0,0.0,0.0,0.0,0.0,0.0,0.0,0.0,-0.0331,-0.1816,-0.2314,-0.2407,-0.2254,-0.2313,-0.1967,-0.0329,-0.2854,-0.5426,-0.5426,-0.8302,-1.0717,-1.0717,-1.0779,-1.0826,-1.0744,-1.0853,-1.0826,-1.0744,-1.086,-1.0887,0.0,-1.1226,-1.1586,-1.2101,-1.2135,-1.2189,-1.2488,-1.2501,-1.2501,-1.2501,-1.2501,-1.2501,-1.2501,-1.2501,-1.2501,-1.2501,-1.2501,-1.242,-1.2277,-1.1972,-1.1755,-1.1619,-1.1619,-1.1613,-1.1743,-1.3396,-1.4991,-1.654,-1.8126,-1.9717,-2.1109,-2.1109,-2.1109,-2.1109,0.0,0.0,0.0,0.4491,0.4491,0.4491,0.4491,0.4491,0.4525,0.4627,0.4748,0.0,0.0,0.0,0.0,0.0,0.0,0.4232,0.4097,0.2572,0.155,0.123,0.0428,0.0,0.0,0.0,0.0,0.0,0.0,0.0,0.0,0.0,0.0,0.0,0.0,0.0,0.0,0.0,0.0,0.0,0.0,0.0,0.0,0.0,0.0459,0.1023,0.0,0.0,0.0,0.0652,0.0476,0.0,0.0,0.0,0.0,0.0,0.0,0.0,0.0,0.0,-0.0118,-0.06,-0.081,-0.0839,-0.0778,-0.079,-0.0998,-0.1516,-0.356,-0.5533,-0.6653,-0.8921,-1.0568,-1.0568,-1.0778,-1.0826,-1.0744,-1.0934,-1.0995,-1.0751,-1.0786,0.0,0.0,0.0,0.0,-1.1884,-1.2006,-1.2189,-1.2488,-1.2501,-1.2501,-1.2501,-1.2501,-1.2501,-1.2501,-1.2501,-1.2501,-1.2501,-1.2501,-1.2372,-1.2135,-1.2033,-1.185,-1.1619,-1.1619,-1.1619,-1.1749,-1.3333,-1.4931,-1.655,-1.8072,-1.9665,-2.1109,-2.1109,-2.1109,-2.1109,0.0,0.0,0.0,0.0,0.0,0.0,0.0,0.0,0.0,0.0,0.0,0.0,0.0,0.0,0.0,0.0,0.0,0.0,0.4033,0.2839,0.1846,0.1182,0.0407,0.0,0.0,0.0,0.0,0.0,0.0,0.0,0.0,0.0,0.0,0.0,0.0,0.0,0.0,0.0,0.0,0.0,0.0,0.0,0.0054,0.041,0.0979,0.0,0.0,0.0,0.0649,0.1143,0.07,0.0,0.0,0.0,0.0,0.0,0.0,0.0,0.0,0.0,0.0,0.0,0.0,0.0,0.0,0.0,-0.0466,-0.2094,-0.3749,-0.5432,-0.7088,-0.8899,-1.0168,-1.0378,-1.0622,-1.0785,-1.0799,-1.1009,-1.109,-1.09,-1.0921,-1.09,0.0,0.0,0.0,-1.1735,-1.1945,-1.2169,-1.2413,-1.2474,-1.2501,-1.2501,-1.2501,-1.2501,-1.2501,-1.2501,-1.2501,-1.2501,-1.2501,-1.2345,-1.2135,-1.2135,-1.1898,-1.1619,-1.1619,-1.1619,-1.1685,-1.2705,-1.4492,-1.6604,-1.7529,-1.9268,-2.1256,-2.1149,-2.1109,-2.1109,0.0,0.0,0.0,0.0,0.0,0.0,0.0,0.0,0.0,0.0,0.0,0.0,0.0,0.0,0.0,0.0,0.0,0.0,0.0,0.0,0.0,0.0236,0.0093,0.0048,0.0,0.0,0.0,0.0,0.0055,0.011,0.0112,0.0167,0.0167,0.0167,0.0112,0.0111,0.0109,0.0,0.0054,0.0106,0.0104,0.0102,0.0251,0.1301,0.0,0.0,0.0,0.0,0.0,0.0,0.0,0.0,0.0,0.0,0.0,0.0,0.0,0.0,0.0,0.0,0.0,0.0,0.0,0.0,0.0,0.0,-0.0393,-0.1931,-0.3508,-0.5204,0.0,0.0,-0.9578,-1.0154,-1.0399,-1.0616,-1.084,-1.1084,-1.1248,0.0,0.0,0.0,0.0,0.0,0.0,-1.1619,0.0,-1.2135,-1.2291,-1.2427,-1.2501,-1.2501,-1.2501,-1.2501,-1.2501,-1.2501,-1.2501,-1.2501,-1.2501,-1.2352,-1.2074,-1.2067,-1.1904,-1.1633,-1.1619,-1.1619,-1.1619,-1.1619,-1.3625,-1.6736,-1.6526,-1.8515,-2.1574,-2.1216,-2.1109,-2.1109,0.0,0.0,0.0,0.0,0.0,0.0,0.0,0.0,0.0,0.0,0.0,0.0,0.0,0.0,0.0,0.0,0.0,0.0,0.0,0.0,0.0,0.0,0.1604,0.0811,0.0,0.0,0.0,0.0,0.0875,0.134,0.1346,0.2277,0.2691,0.2639,0.176,0.1343,0.1286,0.0361,0.0463,0.1173,0.0,0.165,0.2356,0.0,0.0,0.0,0.0,0.0,0.0,0.0,0.0,0.0,0.0,0.0,0.0,0.0,0.0,0.0,0.0,0.0,0.0,0.0,0.0,0.0,0.0,0.0,-0.0449,-0.2099,-0.3552,-0.4987,0.0,0.0,0.0,-0.9754,-1.0371,0.0,-1.0873,-1.1267,0.0,-1.1192,0.0,-1.1416,-1.1341,-1.1565,0.0,0.0,-1.1952,-1.2176,-1.2433,-1.2481,-1.2501,-1.2501,-1.2501,-1.2501,-1.2501,-1.2501,-1.2501,-1.2501,-1.2501,-1.2406,-1.223,-1.2115,-1.1959,-1.1769,-1.1667,-1.1619,-1.1619,-1.1619,-1.3625,-1.6736,-1.6526,-1.8515,-2.1574,-2.1216,-2.1109,-2.1109,0.0,0.0,0.0,0.0,0.0,0.0,0.0,0.0,0.0,0.0,0.0,0.0,0.0,0.0,0.0,0.0,0.0,0.0,0.0,0.0,0.0,0.3045,0.252,0.199,0.1352,0.149,0.1278,0.071,0.0,0.0,0.1724,0.2391,0.2967,0.3349,0.2678,0.2391,0.2344,0.1629,0.0,0.0,0.0,0.0,0.0,0.0,0.0,0.0,0.0,0.0,0.0,0.0,0.0,0.0,0.0,0.0,0.0,0.0,0.0,0.0,0.0,0.0,0.0,0.0,0.0,0.0,0.0,0.0,-0.0432,-0.2044,-0.3336,0.0,0.0,0.0,0.0,0.0,0.0,0.0,-1.0995,-1.126,-1.143,0.0,-1.1552,0.0,-1.1681,-1.1837,-1.1959,0.0,-1.2115,-1.2237,-1.24,-1.2467,-1.2501,-1.2501,-1.2501,-1.2501,-1.2501,-1.2501,-1.2501,-1.2501,-1.2501,-1.2427,-1.2284,-1.2135,-1.1979,-1.1823,-1.1681,-1.1619,-1.1619,-1.1619,-1.3744,-1.6966,-1.6666,-1.8675,-2.171,-2.1416,-2.1216,-2.1109,0.0,0.0,0.0,0.0,0.0,0.0,0.0,0.0,0.0,0.0,0.0,0.0,0.0,0.0,0.0,0.0,0.0,0.0,0.0,0.0,0.0,0.3147,0.3246,0.324,0.3122,0.3241,0.276,0.0,0.0,0.0,0.0,0.0,0.0,0.0,0.0,0.0,0.0,0.0,0.0,0.0,0.0,0.0,0.0,0.0,0.0,0.0,0.0,0.0,0.0,0.0,0.1,0.0,0.0,0.0,0.0,0.0,0.0,0.0,0.0,0.0,0.0,0.0,-0.0133,-0.0261,-0.0063,-0.0123,-0.0645,-0.1868,0.0,-0.4031,-0.5658,-0.7119,-0.8295,-0.8997,0.0,-1.0374,-1.1125,-1.1248,-1.1348,-1.1782,-1.1742,-1.1789,-1.2067,-1.2108,-1.2176,-1.2311,-1.2318,-1.2318,-1.2318,-1.2433,-1.2501,-1.2501,-1.2501,-1.2501,-1.2501,-1.2501,-1.2501,-1.2501,-1.2501,-1.2433,-1.2311,-1.2142,-1.1986,-1.185,-1.1687,-1.1619,-1.1619,-1.19,-1.4014,-1.7228,-1.7203,-1.9161,-2.1951,-2.1722,-2.1363,-2.1109,0.0,0.0,0.0,0.0,0.0,0.0,0.0,0.0,0.0,0.0,0.5815,0.5596,0.0,0.0,0.0,0.0,0.0,0.0,0.0,0.0,0.0,0.0,0.4335,0.3996,0.3133,0.0,0.0,0.0,0.0,0.0,0.0,0.0,0.0,0.0,0.0,0.0,0.0,0.0,0.0,0.0,0.0,0.0,0.0,0.0,0.0,0.0,0.0,0.0,0.0,0.0,0.0931,0.0,0.0,0.0,0.0,0.0,0.0,0.0,0.0,0.0,0.0,0.0,-0.0923,-0.1476,-0.025,-0.0948,0.0,0.0,0.0,-0.2649,-0.3847,-0.5594,0.0,-0.7438,0.0,0.0,0.0,0.0,-1.147,0.0,0.0,0.0,0.0,0.0,0.0,0.0,-1.2467,-1.2467,-1.2467,-1.2488,-1.2501,-1.2501,-1.2501,-1.2501,-1.2501,-1.2501,-1.2501,-1.2501,-1.2501,-1.2488,-1.2454,-1.2182,-1.2047,-1.2006,-1.1735,-1.1619,-1.1691,-1.3238,-1.5212,-1.7298,-1.8592,-2.0331,-2.1951,-2.1722,-2.1363,-2.1109,0.0,0.0,0.0,0.0,0.0,0.0,0.0,0.5711,0.5922,0.6532,0.6417,0.6227,0.6057,0.5895,0.58,0.0,0.0,0.0,0.0,0.0,0.0,0.0,0.0,0.0,0.0,0.0,0.0,0.0,0.0,0.0,0.0,0.0,0.0,0.0,0.0,0.0,0.0,0.0,0.0,0.0,0.0,0.0,0.0,0.0,0.0,0.0,0.0,0.0,0.0,0.0,0.0939,0.0,0.0,0.0,0.0,0.0,0.0,0.0,0.0,0.0,0.0,0.0,-0.1113,-0.1825,-0.0361,0.0,0.0,0.0,0.0,-0.3628,-0.3592,0.0,0.0,0.0,0.0,0.0,0.0,0.0,0.0,0.0,0.0,0.0,0.0,0.0,0.0,-1.2501,-1.2501,-1.2501,-1.2501,-1.2501,-1.2501,-1.2501,-1.2501,-1.2501,-1.2501,-1.2501,-1.2501,-1.2501,-1.2501,-1.2501,-1.2488,-1.2196,-1.2135,-1.2047,-1.1748,-1.1619,-1.1763,-1.3658,-1.5486,-1.7378,-1.9151,-2.0724,-2.1964,-2.183,-2.1496,-2.1109,0.0,0.0,0.0,0.0,0.0,0.0,0.0,0.6078,0.6315,0.6943,0.697,0.6837,0.6485,0.6179,0.5969,0.0,0.0,0.0,0.0,0.0,0.0,0.0,0.0,0.0,0.0,0.0,0.0,0.0,0.0,0.0,0.0,0.0,0.0,0.0,0.0,0.0,0.0,0.0,0.0,0.0,0.0,0.0,0.0,0.0,0.0,0.0,0.0,0.0,0.0,0.0,0.077,0.0,0.0,0.0,0.0,0.0,0.0,0.0,0.0,0.0,0.0,0.0,-0.1296,-0.2152,-0.0407,-0.1997,0.0,0.0,-0.3342,-0.4223,-0.3678,0.0,0.0,0.0,0.0,0.0,0.0,0.0,0.0,0.0,0.0,0.0,0.0,0.0,0.0,-1.2501,-1.2501,-1.2501,-1.2501,-1.2501,-1.2501,-1.2501,-1.2501,-1.2501,-1.2501,-1.2501,-1.2501,-1.2501,-1.2501,-1.2501,-1.2488,-1.2196,-1.2135,-1.2047,-1.1748,-1.1619,-1.1763,-1.3658,-1.5486,-1.7388,-1.9356,-2.0916,-2.1991,-2.1991,-2.1617,-2.1109,0.0,0.0,0.0,0.0,0.0,0.0,0.0,0.6279,0.6593,0.7421,0.7247,0.7058,0.7018,0.6797,0.6512,0.0,0.0,0.0,0.0,0.0,0.0,0.0,0.0,0.0,0.0,0.0,0.0,0.0,0.0,0.0,0.0,0.0,0.0,0.0,0.0,0.0,0.0,0.0,0.0,0.0,0.0,0.0,0.0,0.0,0.0,0.0,0.0,0.0,0.0,0.0,0.0,0.0,0.0,0.0,0.0,0.0,0.0,0.0,0.0,0.0,0.0,0.0,-0.2039,-0.3288,-0.0637,0.0,0.0,-0.3519,-0.2725,-0.2417,-0.3419,-0.3836,0.0,0.0,0.0,0.0,0.0,0.0,0.0,0.0,0.0,0.0,0.0,0.0,0.0,-1.2501,-1.2501,-1.2501,-1.2501,-1.2501,-1.2501,-1.2501,-1.2501,-1.2501,-1.2501,-1.2501,-1.2501,-1.2501,-1.2501,-1.2501,-1.2488,-1.2196,-1.2135,-1.2047,-1.1748,-1.1619,-1.1763,-1.3658,-1.5486,-1.7388,-1.9356,-2.0916,-2.1991,-2.1991,-2.1617,-2.1109,0.0,0.0,0.0,0.0,0.0,0.0,0.632,0.6354,0.6654,0.7597,0.755,0.7414,0.7414,0.7143,0.6776,0.634,0.0,0.0,0.0,0.0,0.0,0.0,0.0,0.0,0.0,0.0,0.0,0.0,0.0,0.0,0.0,0.0,0.0,0.0,0.0,0.0,0.0,0.0,0.0,0.0,0.0,0.0,0.0,0.0,0.0,0.0,0.0,0.0,0.0,0.0,0.0,0.0,0.0,0.0,0.0,0.0,0.0,0.0,0.0,0.0,-0.0269,-0.1264,-0.2841,-0.3731,-0.1915,0.0,-0.4652,-0.287,-0.3181,-0.3754,-0.364,-0.3653,-0.3608,-0.3401,-0.3758,-0.4535,0.0,0.0,0.0,0.0,0.0,0.0,0.0,0.0,-1.2501,-1.2501,-1.2501,-1.2501,-1.2501,-1.2501,-1.2501,-1.2501,-1.2501,-1.2501,-1.2501,-1.2501,-1.2501,-1.2501,-1.2501,-1.2501,-1.2488,-1.2196,-1.2135,-1.2047,-1.1748,-1.1619,-1.1763,-1.3658,-1.4858,-1.5698,-1.7599,-1.8501,-1.8741,-1.8741,-1.909,-1.9355,0.0,0.0,0.0,0.0,0.0,0.5631,0.634,0.6402,0.6689,0.7563,0.7631,0.7584,0.7536,0.7299,0.691,0.6498,0.6416,0.0,0.0,0.0,0.0,0.0,0.0,0.0,0.0,0.0,0.0,0.0,0.0,0.0,0.0,0.0,0.0,0.0,0.0,0.0,0.0,0.0,0.0,0.0,0.0,0.0,0.0,0.0,0.0,0.0,0.0,0.0,0.0,0.0,0.0,0.0,0.0,0.0,0.0,0.0,0.0,0.0,0.0,0.0,-0.04,-0.2109,-0.3005,-0.3347,0.0,0.0,-0.4146,-0.2208,-0.3031,-0.3917,-0.3203,-0.3074,-0.2994,-0.2697,-0.2377,-0.2649,-0.4058,0.0,0.0,0.0,0.0,0.0,0.0,0.0,-1.2501,-1.2501,-1.2501,-1.2501,-1.2501,-1.2501,-1.2501,-1.2501,-1.2501,-1.2501,-1.2501,-1.2501,-1.2501,-1.2501,-1.2501,-1.2481,-1.2433,-1.2176,-1.204,-1.1979,-1.1728,-1.1619,-1.1691,-1.3024,-1.3872,-1.4503,-1.5839,-1.6491,-1.6591,-1.6591,-1.7103,-1.7602,0.0,0.0,0.0,0.0,0.0,0.0,0.6211,0.6422,0.673,0.7344,0.7509,0.7543,0.7439,0.7238,0.7038,0.6889,0.6647,0.0,0.0,0.0,0.0,0.0,0.0,0.0,0.0,0.0,0.3588,0.3588,0.1177,0.0,0.0,0.0,0.0,0.0,0.0,0.0,0.0,0.0,0.0,0.0,0.0,0.0,0.0,0.0,0.0,0.0,0.0,0.0,0.0,0.0,0.0,0.0,0.0,0.0,0.0,0.0,0.0,0.0,0.0,0.0,-0.0395,-0.2104,-0.2239,-0.2087,0.0,-0.2258,-0.1974,-0.1843,-0.1804,-0.1832,-0.1829,-0.1836,-0.1408,-0.0237,-0.1426,-0.2546,-0.2719,0.0,0.0,0.0,0.0,0.0,0.0,0.0,-1.2501,-1.2501,-1.2501,-1.2501,-1.2501,-1.2501,-1.2501,-1.2501,-1.2501,-1.2501,-1.2501,-1.2501,-1.2501,-1.2501,-1.2501,-1.2427,-1.2284,-1.2135,-1.1979,-1.1823,-1.1681,-1.1619,-1.1619,-1.1619,-1.2745,-1.4432,-1.4432,-1.5311,-1.6591,-1.6591,-1.6297,-1.6172,0.0,0.0,0.0,0.0,0.0,0.0,0.0,0.6051,0.6268,0.698,0.7021,0.7041,0.7197,0.7038,0.697,0.7024,0.6803,0.0,0.0,0.0,0.0,0.0,0.0,0.0,0.0,0.0,0.3644,0.3741,0.1226,0.0197,0.0583,0.0,0.0,0.0,0.0,0.0,0.0,0.0,0.0,0.0,0.0,0.0,0.0,0.0,0.0,0.0,0.0,0.0,0.0,0.0,0.0,0.0,0.0,0.0,0.0,0.0,0.0,0.0,0.0,0.0,-0.0425,-0.2077,-0.2239,-0.2095,-0.2406,-0.222,-0.1729,-0.0769,-0.1248,-0.182,-0.1787,-0.1791,-0.1656,-0.1295,-0.0969,0.0,0.0,0.0,0.0,0.0,0.0,0.0,0.0,0.0,-1.2501,-1.2501,-1.2501,-1.2501,-1.2501,-1.2501,-1.2501,-1.2501,-1.2501,-1.2501,-1.2501,-1.2501,-1.2501,-1.2501,-1.2501,-1.2427,-1.2284,-1.2135,-1.1979,-1.1823,-1.1681,-1.1619,-1.1619,-1.1619,-1.1972,-1.2466,-1.2466,-1.2685,-1.2933,-1.2933,-1.3444,-1.4036,0.0,0.0,0.0,0.0,0.0,0.0,0.0,0.5874,0.6078,0.6607,0.6688,0.681,0.7065,0.697,0.6964,0.721,0.7061,0.0,0.0,0.0,0.0,0.0,0.0,0.0,0.7412,0.4882,0.3655,0.3805,0.1271,0.0,0.0051,0.1274,0.2308,0.0,0.0,0.0,0.0,0.0,0.0,0.0,0.0,0.0,0.0,0.0,0.0,0.0,0.0,0.0,0.0,0.0,0.0,0.0,0.0,0.0,0.0,0.0,0.0,0.0,0.0,0.0,-0.0403,-0.2096,-0.1879,-0.1442,-0.229,-0.1849,-0.1026,-0.0181,-0.0583,-0.1121,-0.1121,-0.1121,-0.1104,-0.1141,-0.0502,0.0,0.0,0.0,0.0,0.0,0.0,0.0,0.0,-1.2433,-1.2501,-1.2501,-1.2501,-1.2501,-1.2501,-1.2501,-1.2501,-1.2501,-1.2501,-1.2501,-1.2501,-1.2501,-1.2501,-1.2501,-1.2501,-1.24,-1.2203,-1.2108,-1.1945,-1.1748,-1.166,-1.1619,0.0,-1.1619,-1.1619,-1.1613,-1.1558,-1.1382,-1.1158,-1.1104,-1.1596,-1.2281,0.0,0.0,0.0,0.0,0.0,0.0,0.0,0.5833,0.6071,0.6259,0.6491,0.6776,0.7018,0.6943,0.7034,0.7326,0.0,0.0,0.0,0.0,0.0,0.0,0.0,0.0,0.7433,0.498,0.3774,0.383,0.1359,0.0107,0.0053,0.1299,0.1856,0.1915,0.4422,0.0,0.0,0.0,0.0,0.0,0.0,0.0,0.0,0.0,0.0,0.0,0.0,0.0,0.0,0.0,0.0,0.0,0.0,0.0,0.0,0.0,0.0,0.0,0.0,0.0,0.0,0.0,-0.1149,-0.0419,-0.1969,-0.1105,0.0,0.0,0.0,0.0,0.0,0.0,0.0,0.0,0.0,0.0,0.0,0.0,0.0,0.0,0.0,0.0,-1.2067,-1.2338,-1.2501,-1.2501,-1.2501,-1.2501,-1.2501,-1.2501,-1.2501,-1.2501,-1.2501,-1.2501,-1.2501,-1.2501,-1.2494,-1.2488,-1.2488,-1.2332,-1.2047,-1.2047,-1.1891,-1.1619,-1.1619,-1.1619,-1.1619,-1.1619,-1.1619,-1.1606,-1.145,-1.1301,-1.1214,-1.1002,-1.0853,-1.0916,0.0,0.0,0.0,0.0,0.0,0.0,0.0,0.0,0.0,0.0,0.6247,0.647,0.6607,0.6702,0.6871,0.0,0.0,0.0,0.0,0.0,0.0,0.0,0.0,0.0,0.7543,0.5962,0.472,0.3949,0.2333,0.0998,0.0,0.0321,0.1004,0.1952,0.2479,0.324,0.0,0.0,0.0,0.0,0.0,0.0,0.0,0.0,0.0,0.0,0.0,0.0,0.0,0.0,0.0,0.0,0.0,0.0,0.0,0.0,0.0,0.0,0.0,0.0,-0.0099,-0.049,-0.0293,-0.0097,0.0,-0.028,0.0,0.0,0.0,0.0,0.0,0.0,0.0,0.0,0.0,0.0,0.0,0.0,0.0,0.0,0.0,0.0,-1.2379,-1.2461,-1.2501,-1.2501,-1.2501,-1.2501,-1.2501,-1.2501,-1.2501,-1.2501,-1.2501,-1.2501,-1.2501,-1.2501,-1.2447,-1.2338,-1.2338,-1.2182,-1.1884,-1.1884,-1.1789,-1.1619,-1.1619,-1.1619,-1.1619,-1.1619,-1.1619,-1.1606,-1.145,-1.1301,-1.1214,-1.1002,-1.0853,-1.0784,0.0,0.0,0.0,0.0,0.0,0.0,0.0,0.0,0.0,0.0,0.0,0.6457,0.6559,0.6715,0.0,0.0,0.0,0.0,0.0,0.0,0.0,0.0,0.0,0.736,0.7597,0.6365,0.5138,0.4024,0.2638,0.1339,0.0,0.0,0.0699,0.204,0.2523,0.309,0.0,0.0,0.0,0.0,0.0,0.0,0.0,0.0,0.0,0.0,0.0,0.0,0.0,0.0,0.0,0.0,0.0,0.0,0.0,0.0,0.0,0.0,0.0,0.0,0.0,0.0,0.0,0.0,0.0,0.0,0.0,0.0,0.0,0.0,0.0,0.0,0.0,0.0,0.0,0.0,0.0,0.0,0.0,0.0,0.0,-1.2244,0.0,-1.2461,-1.2501,-1.2501,-1.2501,-1.2501,-1.2501,-1.2501,-1.2501,-1.2501,-1.244,-1.2433,-1.2501,-1.2433,-1.2366,-1.2291,-1.2216,-1.206,-1.183,-1.183,-1.1755,-1.1619,-1.1619,-1.1619,-1.1619,-1.1619,-1.1579,-1.1497,-1.1348,-1.1192,-1.105,-1.09,-1.0792,-1.0717,0.0,0.0,0.0,0.0,0.0,0.0,0.0,0.0,0.0,0.0,0.0,0.0,0.0,0.0,0.0,0.0,0.0,0.0,0.0,0.0,0.0,0.0,0.7439,0.7441,0.7597,0.6624,0.5413,0.4014,0.286,0.1486,0.0,0.0,0.0717,0.2068,0.333,0.3792,0.0,0.0,0.0,0.0,0.0,0.0,0.0,0.0,0.0,0.0,0.0,0.0,0.0,0.018,0.0137,0.0046,0.0183,0.0,0.0,0.0,0.0,0.0,0.0,0.0,0.0,0.0,0.0,0.0,0.0,0.0,0.0,0.0,0.0,0.0,0.0,0.0,0.0,0.0,0.0,0.0,0.0,0.0,0.0,0.0,0.0,0.0,-1.2244,-1.2366,-1.2433,-1.2433,-1.2433,-1.2433,-1.2433,-1.2433,-1.2433,-1.2433,-1.2318,-1.2311,-1.2433,-1.2318,-1.2244,-1.2216,-1.2088,-1.1945,-1.1796,-1.1796,-1.1735,-1.1619,-1.1619,-1.1619,-1.1619,-1.1592,-1.1511,-1.1375,-1.1199,-1.1056,-1.086,-1.0778,-1.0717,-1.0717,0.0,0.0,0.0,0.0,0.0,0.0,0.0,0.0,0.0,0.0,0.0,0.0,0.0,0.0,0.0,0.0,0.0,0.0,0.0,0.0,0.0,0.7746,0.7502,0.7441,0.7597,0.7548,0.6322,0.3992,0.3805,0.242,0.0,0.0,0.0725,0.207,0.352,0.3454,0.2304,0.2054,0.0,0.0,0.0,0.0,0.0,0.0,0.0,0.0,0.0,0.0,0.0,0.1057,0.0734,0.0175,0.1072,0.0,0.0,0.0,0.0,0.0,0.0,0.0,0.0,0.0,0.0,0.0,0.0,0.0,0.0,0.0,0.0,0.0,0.0,0.0,0.0,0.0,0.0,0.0,0.0,0.0,0.0,0.0,0.0,-1.1925,-1.2081,-1.2115,-1.2128,-1.2128,-1.2128,-1.2128,-1.2128,-1.2128,-1.2128,-1.2128,-1.2108,-1.2108,-1.2128,-1.2108,-1.2033,-1.1904,-1.1877,-1.1789,-1.1653,-1.1653,-1.164,-1.1619,-1.1619,-1.1619,-1.1606,-1.1477,-1.1409,-1.1362,-1.109,-1.09,-1.086,-1.0778,-1.0717,-1.0717,0.0,0.0,0.0,0.0,0.0,0.0,0.0,0.0,0.0,0.0,0.0,0.0,0.0,0.0,0.0,0.0,0.0,0.0,0.0,0.0,0.7848,0.788,0.7726,0.7645,0.7712,0.7143,0.5894,0.3984,0.3248,0.1924,0.0058,0.1466,0.2128,0.2042,0.3488,0.3293,0.1962,0.121,0.0,0.0,0.0,0.0,0.0,0.0,0.0,0.0,0.0,0.0,0.0,0.0,0.1673,0.1758,0.1633,0.0,0.0,0.0,0.0,0.0,0.0,0.0,0.0,0.0,0.0,0.0,0.0,0.0,0.0,0.0,0.0,0.0,0.0,0.0,0.0,0.0,0.0,0.0,0.0,0.0,-0.9257,0.0,0.0,-1.1857,-1.1932,-1.2013,-1.2135,-1.2135,-1.2135,-1.2135,-1.2135,-1.2135,-1.2135,-1.2135,-1.1979,-1.1938,-1.1938,-1.1864,-1.1823,-1.183,-1.1755,-1.1681,-1.1619,-1.1619,-1.1619,-1.1619,-1.1619,-1.1572,-1.1491,-1.1423,-1.1294,-1.1138,-1.0934,-1.0833,-1.0752,-1.0744,-1.0717,-1.0717,0.0,0.0,0.0,0.0,0.0,0.0,0.0,0.0,0.0,0.0,0.0,0.0,0.0,0.0,0.0,0.0,0.0,0.0,0.0,0.7733,0.7882,0.7982,0.7963,0.7916,0.7916,0.6642,0.5343,0.4054,0.2676,0.1286,0.0059,0.2481,0.3026,0.2028,0.3112,0.2977,0.1912,0.0555,0.0,0.0,0.0,0.0,0.0,0.0,0.0,0.0,0.0,0.0,0.0,0.0,0.0,0.0,0.0,0.0,0.0,0.0704,0.0202,0.0,0.0,0.0,0.0,0.0,0.0,0.0,0.0,0.0,0.0,0.0,0.0,0.0,0.0,0.0,0.0,0.0,0.0,0.0,-0.5488,-0.7357,-0.9292,-1.1384,-1.1714,-1.1782,-1.1782,-1.1891,-1.1959,-1.1959,-1.1959,-1.1959,-1.1959,-1.1959,-1.1959,-1.1959,-1.1843,-1.1782,-1.1782,-1.1674,-1.1674,-1.1782,-1.1674,-1.1619,-1.1619,-1.1619,-1.1599,-1.1565,-1.1565,-1.1477,-1.1335,-1.1301,-1.1151,-1.088,-1.084,-1.0759,-1.0717,-1.0717,-1.0717,-1.0717,0.0,0.0,0.0,0.0,0.0,0.0,0.0,0.0,0.0,0.0,0.0,0.0,0.0,0.0,0.0,0.0,0.0,0.0,0.0,0.7733,0.7882,0.7982,0.8167,0.8286,0.8286,0.6755,0.538,0.4182,0.2694,0.1321,0.006,0.1626,0.2225,0.2014,0.2238,0.22,0.1912,0.0555,0.0,0.0,0.0,0.0,0.0,0.0,0.0,0.0,0.0,0.0,0.0,0.0,0.0,0.0,0.0,0.0,0.1769,0.1685,0.0866,0.0,0.0,0.0,0.0,0.0,0.0,0.0,0.0,-0.0989,0.0,-0.2256,0.0,0.0,0.0,0.0,0.0,0.0,0.0,-0.3574,-0.5497,0.0,-0.9433,-1.1384,-1.1626,-1.1633,-1.1633,-1.1647,-1.1653,-1.1653,-1.1653,-1.1653,-1.1653,-1.1653,-1.1653,-1.1653,-1.164,-1.1633,-1.1633,-1.1626,-1.1626,-1.1633,-1.1626,-1.1619,-1.1619,-1.1619,-1.1545,-1.1409,-1.1409,-1.1321,-1.1172,-1.1036,-1.09,-1.0867,-1.0792,-1.0731,-1.0717,-1.0717,-1.0717,-1.0717,0.0,0.0,0.0,0.0,0.0,0.0,0.0,0.0,0.0,0.0,0.0,0.0,0.0,0.0,0.0,0.0,0.0,0.0,0.0,0.7678,0.7882,0.7982,0.8099,0.8214,0.8397,0.7197,0.6383,0.6018,0.361,0.1572,0.0059,0.142,0.1579,0.0785,0.1693,0.1572,0.0706,0.0202,0.0,0.0,0.0,0.0,0.0,0.0,0.0,0.0,0.0,0.0,0.0,0.0,0.4708,0.5344,0.4982,0.395,0.276,0.194,0.0868,0.0,0.0,0.0,0.0,0.0,0.0,0.0,0.0,-0.0391,-0.0797,-0.0941,-0.0829,0.0,0.0,0.0,0.0,0.0,0.0,-0.3545,-0.551,-0.6469,-0.7648,-0.9574,-0.8709,-0.8492,-0.9651,-0.9795,-1.0305,-1.1476,-1.1619,-1.1619,-1.1619,-1.1619,-1.1619,-1.1619,-1.1619,-1.1619,-1.1619,-1.1619,-1.1619,-1.1619,-1.1619,-1.1619,-1.1613,-1.1518,-1.1443,-1.1389,-1.1294,-1.1165,-1.1023,-1.09,-1.0826,-1.0799,-1.0744,-1.0717,-1.0717,-1.0717,-1.0717,-1.0717,0.0,0.0,0.0,0.0,0.0,0.0,0.0,0.0,0.0,0.0,0.0,0.0,0.0,0.0,0.0,0.0,0.0,0.0,0.7412,0.7556,0.776,0.7907,0.7961,0.818,0.8472,0.7913,0.7415,0.6966,0.4079,0.1995,0.07,0.1172,0.0861,0.0052,0.0968,0.086,0.0,0.0,0.0,0.0,0.0,0.0,0.0,0.0,0.0,0.0,0.0,0.0,0.0,0.0,0.5325,0.6504,0.5665,0.4522,0.3369,0.2467,0.1181,0.0,0.0,0.0,0.0,0.0,0.0,0.0,0.0,0.0,-0.0177,-0.0677,-0.08,0.0,0.0,0.0,0.0,0.0,-0.2104,-0.4033,-0.4748,-0.5408,-0.6285,-0.7612,-0.6604,-0.6532,-0.8487,-0.8703,-0.9502,-1.1476,-1.1619,-1.1619,-1.1619,-1.1619,-1.1619,-1.1619,-1.1619,-1.1619,-1.1619,-1.1619,-1.1592,-1.1545,-1.1545,-1.1545,-1.1545,-1.1436,-1.1341,-1.1246,-1.1138,-1.1009,-1.0806,-1.0806,-1.0745,-1.0717,-1.0717,-1.0717,-1.0717,-1.0717,-1.0717,-1.0717,0.0,0.0,0.0,0.0,0.0,0.0,0.0,0.0,0.0,0.0,0.0,0.0,0.0,0.0,0.0,0.0,0.0,0.0,0.7405,0.7419,0.7502,0.7794,0.7907,0.8174,0.8472,0.8968,0.8355,0.6677,0.3875,0.2402,0.2174,0.0666,0.0,0.0,0.0,0.0,0.0,0.0,0.0,0.0,0.0,0.0,0.0,0.0,0.0,0.0,0.0,0.0,0.0,0.0,0.4728,0.6566,0.6831,0.5276,0.3423,0.3552,0.1894,0.0,0.0,0.0,0.0,0.0,0.0,0.0,0.0,0.0,-0.0491,-0.2144,0.0,-0.1963,-0.0322,0.0,0.0,-0.0263,-0.3159,-0.4947,-0.3141,-0.4594,-0.5794,-0.5798,-0.5736,-0.6528,-0.8482,-0.8698,-0.9502,-1.1476,-1.1619,-1.1619,-1.1619,-1.1619,-1.1613,-1.1613,-1.1613,-1.1613,-1.1613,-1.1613,-1.1538,-1.1389,-1.1389,-1.1389,-1.1389,-1.1389,-1.1226,-1.088,-1.088,-1.0793,-1.0717,-1.0717,-1.0717,-1.0717,-1.0717,-1.0717,-1.0717,-1.0717,-1.0717,-1.0717,0.0,0.0,0.0,0.0,0.0,0.0,0.0,0.0,0.0,0.0,0.0,0.0,0.0,0.0,0.0,0.0,0.0,0.0,0.721,0.7312,0.7461,0.7651,0.7801,0.797,0.8167,0.8506,0.8072,0.6851,0.5149,0.3522,0.2011,0.0647,0.0,0.0,0.0,0.0,0.0,0.0,0.0,0.0,0.0,0.0,0.0,0.0,0.0,0.0,0.0,0.0,0.0,0.0,0.0,0.0,0.658,0.5803,0.4621,0.367,0.2435,0.1204,0.0263,0.0,0.0,0.0,0.0,0.0,0.0,0.0,0.0,0.0,-0.0725,-0.0586,-0.0065,0.0,0.0,-0.0066,-0.2087,-0.3499,-0.2963,-0.3418,-0.3733,-0.3747,-0.2549,-0.3053,-0.6365,-0.6658,-0.8045,-1.1319,-1.1619,-1.1572,-1.1463,-1.1457,-1.1409,-1.1301,-1.1301,-1.1301,-1.1301,-1.1301,-1.1274,-1.1233,-1.1233,-1.1233,-1.1226,-1.1124,-1.0961,-1.0873,-1.0766,-1.0765,-1.0717,-1.0717,-1.0717,-1.0717,-1.0717,-1.0717,-1.0717,-1.0717,-1.0717,-1.0717,0.0,0.0,0.0,0.0,0.0,0.0,0.0,0.0,0.0,0.0,0.0,0.0,0.0,0.0,0.0,0.0,0.0,0.0,0.0,0.7319,0.7441,0.759,0.7733,0.7909,0.8126,0.8364,0.8141,0.7482,0.5717,0.4159,0.2838,0.0909,0.0,0.0,0.0,0.0,0.0,0.0,0.0,0.0,0.0,0.0,0.0,0.0,0.0,0.0,0.0,0.0,0.0,0.0,0.0,0.0,0.6429,0.5543,0.432,0.3486,0.225,0.1034,0.0228,0.0,0.0,0.0,0.0,0.0,0.0,0.0,0.0,0.0,0.0,0.0,0.0,-0.0595,0.0,-0.0133,-0.1616,-0.2588,-0.1851,-0.1728,-0.174,-0.175,-0.0701,-0.1475,-0.5366,-0.5722,-0.7296,-1.1147,-1.1436,-1.1396,-1.1307,-1.1301,-1.126,-1.1165,-1.1234,-1.1234,-1.1234,-1.1234,-1.1131,-1.1077,-1.1077,-1.1043,-1.0989,-1.0962,-1.0847,-1.0853,-1.0758,-1.0717,-1.0717,-1.0717,-1.0717,-1.0717,-1.0717,-1.0717,-1.0717,-1.0717,-1.0717,-1.0717,0.0,0.0,0.0,0.0,0.0,0.0,0.0,0.0,0.0,0.0,0.7098,0.0,0.0,0.0,0.0,0.0,0.0,0.0,0.0,0.7439,0.7461,0.7611,0.7753,0.7963,0.8241,0.8377,0.8377,0.8248,0.5714,0.4376,0.4123,0.1286,0.0,0.0,0.0,0.0,0.0,0.0,0.0,0.0,0.0,0.0,0.0,0.0,0.0,0.0,0.0,0.0,0.0,0.0,0.0,0.0,0.6041,0.4701,0.312,0.3011,0.1643,0.0137,0.0,0.0,0.0,0.0,0.0,0.0,0.0,0.0,0.0,0.0,0.0,0.0,0.0,-0.133,-0.1919,-0.0269,-0.1411,-0.189,-0.0205,0.0,0.0,0.0,0.0,-0.1466,-0.5222,-0.557,-0.7174,-1.0951,-1.1234,-1.1158,-1.1145,-1.1145,-1.1138,-1.1124,-1.1124,-1.1124,-1.1124,-1.1124,-1.1056,-1.086,-1.086,-1.0786,-1.0724,-1.0799,-1.0853,-1.0717,-1.0717,-1.0717,-1.0717,-1.0717,-1.0717,-1.0717,-1.0717,-1.0717,-1.0717,-1.0717,-1.0717,-1.0717,0.0,0.0,0.0,0.0,0.0,0.0,0.0,0.0,0.0,0.0,0.0,0.0,0.0,0.0,0.0,0.0,0.0,0.0,0.0,0.755,0.7617,0.776,0.7909,0.7975,0.8085,0.8069,0.8069,0.8042,0.5661,0.4348,0.3994,0.1263,0.0,0.0,0.0,0.0,0.0,0.0,0.0,0.0,0.0,0.0,0.0,0.0,0.0,0.0,0.0,0.0,0.0,0.0,0.0,0.0,0.3993,0.3774,0.3301,0.2359,0.1835,0.1352,0.0,0.0,0.0,0.0,0.0,0.0,0.0,0.0,0.0,0.0,0.0,0.0,0.0,-0.0336,-0.0469,-0.0067,-0.0336,-0.0471,-0.0068,0.0,0.0,0.0,0.0,-0.1498,-0.5214,-0.5632,-0.7168,-1.0944,-1.1234,-1.1111,-1.1002,-1.0927,-1.0941,-1.0819,-1.0819,-1.0819,-1.0819,-1.0819,-1.0799,-1.0772,-1.0772,-1.0751,-1.0724,-1.0751,-1.0751,-1.0717,-1.0717,-1.0717,-1.0717,-1.0717,-1.0717,-1.0717,-1.0717,-1.0717,-1.0717,-1.0717,-1.0717,-1.0717,0.0,0.0,0.0,0.0,0.0,0.0,0.0,0.0,0.0,0.0,0.0,0.0,0.0,0.0,0.0,0.0,0.0,0.0,0.0,0.7665,0.7767,0.7867,0.7948,0.7988,0.7988,0.7921,0.7914,0.7988,0.5431,0.4129,0.3919,0.1229,0.0,0.0,0.0,0.0,0.0,0.0,0.0,0.0,0.0,0.0,0.0,0.0,0.0,0.0,0.0,0.0,0.0,0.0,0.0,0.0,0.0,0.0,0.2482,0.1765,0.1332,0.087,0.0,0.0,0.0,0.0,0.0,0.0,0.0,0.0,0.0,0.0,0.0,0.0,0.0,0.0,0.0,0.0,0.0,0.0,0.0,0.0,0.0,0.0,0.0,-0.1079,-0.3927,-0.42,-0.5366,-0.8204,-0.9166,-0.9617,-0.9551,-1.0363,-1.0806,-1.0724,-1.0717,-1.0717,-1.0717,-1.0717,-1.0717,-1.0717,-1.0717,-1.0717,-1.0717,-1.0717,-1.0717,-1.0717,-1.0717,-1.0717,-1.0717,-1.0717,-1.0717,-1.0717,-1.0717,-1.0717,-1.0717,-1.0717,-1.0717,-1.0717,0.0,0.0,0.0,0.0,0.0,0.0,0.0,0.0,0.0,0.0,0.0,0.0,0.0,0.0,0.0,0.0,0.0,0.0,0.0,0.7773,0.7909,0.7982,0.7988,0.7975,0.7948,0.7875,0.7875,0.7948,0.5415,0.4104,0.393,0.1258,0.0,0.0,0.0,0.0,0.0,0.0,0.0,0.0,0.0,0.0,0.0,0.0,0.0,0.0,0.0,0.0559,0.1333,0.1333,0.0,0.0,0.0,0.0,0.1297,0.1143,0.0566,0.0,0.0,0.0,0.0,0.0,0.0,0.0,0.0,0.0,0.0,0.0,0.0,0.0,0.0,0.0,0.0,0.0,0.0,0.0,0.0,0.0,0.0,0.0,-0.0269,-0.1076,-0.2551,-0.2954,-0.3756,-0.5295,-0.6765,-0.7698,-0.7964,-0.9437,-1.0386,-1.0717,-1.0717,-1.0717,-1.0717,-1.0717,-1.0717,-1.0717,-1.0717,-1.0717,-1.0717,-1.0717,-1.0717,-1.0717,-1.0717,-1.0717,-1.0717,-1.0717,-1.0717,-1.0717,-1.0717,-1.0717,-1.0717,-1.0717,-1.0717,-1.0717,0.0,0.0,0.0,0.0,0.0,0.0,0.0,0.0,0.0,0.0,0.0,0.7529,0.746,0.7502,0.0,0.0,0.0,0.0,0.7773,0.0,0.0,0.7988,0.7988,0.7928,0.7841,0.7821,0.7821,0.7841,0.6306,0.5001,0.3926,0.1265,0.0,0.0,0.0,0.0,0.0,0.0,0.0,0.0,0.0,0.0,0.0,0.0,0.0,0.0,0.0,0.0079,0.0196,0.0196,0.0314,0.0,0.0,0.0,0.0,0.019,0.0079,0.0,0.0,0.0,0.0,0.0,0.0,0.0,0.0,0.0,0.0,0.0,0.0,0.0,0.0,0.0,0.0,0.0,0.0,0.0,0.0,0.0,0.0,0.0,-0.1411,-0.2417,-0.2685,-0.4091,-0.5162,-0.5362,-0.5629,-0.6431,-0.7897,-0.823,-0.9105,-1.0651,-1.0717,-1.0717,-1.0717,-1.0717,-1.0717,-1.0717,-1.0717,-1.0717,-1.0717,-1.0717,-1.0717,-1.0717,-1.0717,-1.0717,-1.0717,-1.0717,-1.0717,-1.0717,-1.0717,-1.0717,-1.0717,-1.0717,-1.0717,-1.0717,0.0,0.0,0.0,0.0,0.0,0.0,0.0,0.0,0.0,0.0,0.0,0.7692,0.7624,0.7529,0.0,0.0,0.0,0.0,0.7685,0.7828,0.0,0.7909,0.7941,0.7921,0.7814,0.7733,0.7733,0.7814,0.6306,0.555,0.5431,0.2398,0.0628,0.0,0.0,0.0,0.0,0.0,0.0,0.0,0.0,0.0,0.0,0.0,0.0,0.0,0.0,0.0,0.0,0.0,0.0,0.0,0.0,0.0,0.0,0.0,0.0,0.0,0.0,0.0,0.0,0.0,0.0,0.0,0.0,0.0,0.0,0.0,0.0,0.0,0.0,0.0,0.0,0.0,0.0,0.0,0.0,0.0,0.0,0.0,-0.0672,-0.121,-0.121,-0.1881,-0.235,-0.235,-0.3287,-0.4693,-0.6431,-0.7498,-0.8834,-1.0651,-1.0717,-1.0717,-1.0717,-1.0717,-1.0717,-1.0717,-1.0717,-1.0717,-1.0717,-1.0717,-1.0717,-1.0717,-1.0717,-1.0717,-1.0717,-1.0717,-1.0717,-1.0717,-1.0717,-1.0717,-1.0717,-1.0717,-1.0717,-1.0717,0.0,0.0,0.0,0.0,0.0,0.0,0.0,0.0,0.0,0.0,0.0,0.0,0.7814,0.0,0.0,0.0,0.0,0.0,0.7529,0.0,0.0,0.0,0.7923,0.786,0.776,0.7651,0.7631,0.7699,0.6532,0.6216,0.6574,0.3692,0.178,0.064,0.0181,0.0,0.0,0.0,0.0,0.0,0.0,0.0,0.0,0.0,0.0,0.0,0.0,0.0,0.0,0.0,0.0,0.0,0.0,0.0,0.0,0.0,0.0,0.0,0.0,0.0,0.0,0.0,0.0,0.0,0.0,0.0,0.0,0.0,0.0,0.0,0.0,0.0,0.0,0.0,0.0,0.0,0.0,0.0,0.0,0.0,-0.0404,-0.0538,-0.0067,-0.0404,-0.0471,-0.0067,-0.1277,-0.3021,-0.5295,-0.6631,-0.8368,-1.0651,-1.0717,-1.0717,-1.0717,-1.0717,-1.0717,-1.0717,-1.0717,-1.0717,-1.0717,-1.0717,-1.0717,-1.0717,-1.0717,-1.0717,-1.0717,-1.0717,-1.0717,-1.0717,-1.0717,-1.0717,-1.0717,-1.0717,-1.0717,-1.0717,0.0,0.0,0.0,0.0,0.0,0.0,0.0,0.0,0.0,0.0,0.0,0.0,0.7828,0.7678,0.7529,0.7433,0.0,0.0,0.0,0.0,0.0,0.0,0.0,0.0,0.7611,0.7604,0.7536,0.7439,0.7476,0.7157,0.6469,0.4709,0.3384,0.247,0.0758,0.0,0.0,0.0,0.0,0.0,0.0,0.0,0.0,0.0,0.0,0.0,0.0,0.0,0.0,0.0,0.0,0.0,0.0,0.0,0.0,0.0,0.0,0.0,0.0,0.0,0.0,0.0,0.0,0.0,0.0,0.0,0.0,0.0,0.0,0.0,0.0,0.0,0.0,0.0,0.0,0.0,0.0,0.0,0.0,0.0,-0.1545,-0.1881,-0.0135,-0.1545,-0.1881,-0.0135,-0.0067,-0.168,-0.5228,-0.5496,-0.7102,-1.0585,-1.0717,-1.0717,-1.0717,-1.0717,-1.0717,-1.0717,-1.0717,-1.0717,-1.0717,-1.0717,-1.0717,-1.0717,-1.0717,-1.0717,-1.0717,-1.0717,-1.0717,-1.0717,-1.0717,-1.0717,-1.0717,-1.0717,-1.0717,-1.0717,0.0,0.0,0.0,0.0,0.0,0.0,0.0,0.0,0.0,0.0,0.0,0.0,0.0,0.7828,0.7678,0.7529,0.7285,0.0,0.0,0.0,0.0,0.0,0.0,0.0,0.0,0.7597,0.7522,0.7419,0.7326,0.745,0.7744,0.4994,0.3828,0.3886,0.1203,0.0,0.0,0.0,0.0,0.0,0.0,0.0,0.0,0.0,0.0,0.0,0.0,0.0,0.0,0.0,0.0,0.0,0.0,0.0,0.0,0.0,0.0,0.0,0.0,0.0,0.0,0.0,0.0,0.0,0.0,0.0,0.0,0.0,0.0,0.0,0.0,0.0,0.0,0.0,0.0,0.0,0.0,0.0,0.0,0.0,-0.0606,-0.074,-0.0067,-0.0606,-0.0672,-0.0067,0.0,-0.1076,-0.3555,-0.476,-0.6498,-0.8906,-1.0114,-1.0717,-1.0717,-1.0717,-1.0717,-1.0717,-1.0717,-1.0717,-1.0717,-1.0717,-1.0717,-1.0717,-1.0717,-1.0717,-1.0717,-1.0717,-1.0717,-1.0717,-1.0717,-1.0717,-1.0717,-1.0717,-1.0717,-1.0717,0.0,0.0,0.0,0.0,0.0,0.0,0.0,0.0,0.7672,0.7672,0.0,0.0,0.0,0.0,0.7753,0.7611,0.7366,0.7217,0.7217,0.7265,0.0,0.0,0.0,0.0,0.0,0.7645,0.757,0.7419,0.7319,0.7462,0.7711,0.4958,0.382,0.3891,0.1198,0.0,0.0,0.0,0.0,0.0,0.0,0.0,0.0,0.0,0.0,0.0,0.0,0.0,0.0,0.0,0.0,0.0,0.0,0.0,0.0,0.0,0.0,0.0,0.0,0.0,0.0,0.0,0.0,0.0,0.0,0.0,0.0,0.0,0.0,0.0,0.0,0.0,0.0,0.0,0.0,0.0,0.0,0.0,0.0,0.0,0.0,0.0,0.0,0.0,0.0,0.0,0.0,-0.0807,-0.2618,-0.4426,-0.6498,-0.8834,-1.0047,-1.0717,-1.0717,-1.0717,-1.0717,-1.0717,-1.0717,-1.0717,-1.0717,-1.0717,-1.0717,-1.0717,-1.0717,-1.0717,-1.0717,-1.0717,-1.0717,-1.0717,-1.0717,-1.0717,-1.0717,-1.0717,-1.0717,-1.0717,0.0,0.0,0.0,0.0,0.0,0.0,0.0,0.0,0.7814,0.7814,0.0,0.0,0.0,0.0,0.0,0.7624,0.7475,0.7426,0.7419,0.7231,0.0,0.0,0.0,0.0,0.7597,0.7733,0.7665,0.7419,0.7516,0.7158,0.6271,0.4575,0.3425,0.2678,0.0816,0.0,0.0,0.0,0.0,0.0,0.0,0.0,0.0,0.0,0.0,0.0,0.0,0.0,0.0,0.0,0.0,0.0,0.0,0.0,0.0,0.0,0.0,0.0,0.0,0.0,0.0,0.0,0.0,0.0,0.0,0.0,0.0,0.0,0.0,0.0,0.0,0.0,0.0,0.0,0.0,0.0,0.0,0.0,0.0,0.0,0.0,0.0,0.0,0.0,0.0,0.0,0.0,-0.074,-0.2551,-0.4359,-0.6898,-1.0452,-1.0585,-1.0651,-1.0651,-1.0651,-1.0717,-1.0717,-1.0717,-1.0717,-1.0717,-1.0717,-1.0717,-1.0717,-1.0717,-1.0717,-1.0717,-1.0717,-1.0717,-1.0717,-1.0717,-1.0717,-1.0717,-1.0717,-1.0717,-1.0717,0.0,0.0,0.0,0.0,0.0,0.7814,0.7814,0.7814,0.7814,0.0,0.0,0.0,0.7988,0.7948,0.7914,0.7874,0.778,0.7597,0.7433,0.7333,0.7326,0.7412,0.7516,0.7597,0.7597,0.7638,0.7563,0.7419,0.7299,0.7184,0.7042,0.4743,0.361,0.3396,0.1046,0.0,0.0,0.0,0.0,0.0,0.0,0.0,0.0,0.0,0.0,0.0,0.0,0.0,0.0,0.0,0.0,0.0,0.0,0.0,0.0,0.0,0.0,0.0,0.0,0.0,0.0,0.0,0.0,0.0,0.0,0.0,0.0,0.0,0.0,0.0,0.0,0.0,0.0,0.0,0.0,0.0,0.0,0.0,0.0,0.0,0.0,0.0,0.0,0.0,0.0,0.0,0.0,-0.0202,-0.074,-0.2484,-0.4492,-0.6769,-0.8102,-0.8767,-0.8767,-1.0047,-1.0717,-1.0717,-1.0717,-1.0717,-1.0717,-1.0717,-1.0717,-1.0717,-1.0717,-1.0717,-1.0717,-1.0717,-1.0717,-1.0717,-1.0717,-1.0717,-1.0717,-1.0717,-1.0717,-1.0717,0.0,0.0,0.0,0.7988,0.8018,0.8004,0.8004,0.8004,0.8004,0.0,0.0,0.0,0.8126,0.8251,0.8285,0.8153,0.7997,0.778,0.7489,0.7453,0.7346,0.7278,0.7482,0.7597,0.7597,0.7719,0.7434,0.6716,0.663,0.6303,0.5772,0.4316,0.3591,0.3502,0.1604,0.0737,0.0642,0.0188,0.0,0.0,0.0,0.0,0.0,0.0,0.0,0.0,0.0,0.0,0.0,0.0,0.0,0.0,0.0,0.0,0.0,0.0,0.0,0.0,0.0,0.0,0.0,0.0,0.0,0.0,0.0,0.0,0.0,0.0,0.0,0.0,0.0,0.0,0.0,0.0,0.0,0.0,0.0,0.0,0.0,0.0,0.0,0.0,0.0,0.0,0.0,0.0,0.0,-0.0336,-0.1076,-0.2148,-0.3555,-0.5362,-0.7098,-0.803,-0.803,-0.9775,-1.0717,-1.0717,-1.0717,-1.0717,-1.0717,-1.0717,-1.0717,-1.0717,-1.0717,-1.0717,-1.0717,-1.0717,-1.0717,-1.0717,-1.0717,-1.0717,-1.0717,-1.0717,-1.0717,-1.0717,0.0,0.0,0.7995,0.8015,0.818,0.8333,0.8316,0.8354,0.8251,0.0,0.7776,0.761,0.7819,0.8304,0.8471,0.8138,0.8093,0.7907,0.7645,0.7482,0.7319,0.7105,0.7434,0.759,0.7577,0.7862,0.7277,0.5764,0.5764,0.5097,0.3794,0.3685,0.3542,0.3476,0.2452,0.1848,0.1556,0.0578,0.0094,0.0,0.0,0.0,0.0,0.0,0.0,0.0,0.0,0.0,0.0,0.0,0.0,0.0,0.0,0.0,0.0,0.0,0.0,0.0,0.0,0.0,0.0,0.0,0.0,0.0,0.0,0.0,0.0,0.0,0.0,0.0,0.0,0.0,0.0,0.0,0.0,0.0,0.0,0.0,0.0,0.0,0.0,0.0,0.0,0.0,0.0,0.0,0.0,-0.0672,-0.2283,-0.2417,-0.3155,-0.476,-0.6498,-0.7498,-0.7698,-0.951,-1.0518,-1.0717,-1.0717,-1.0717,-1.0717,-1.0717,-1.0717,-1.0717,-1.0717,-1.0717,-1.0717,-1.0717,-1.0717,-1.0717,-1.0717,-1.0717,-1.0717,-1.0717,-1.0717,-1.0717,0.0,0.7988,0.8029,0.8201,0.8248,0.835,0.8587,0.852,0.8098,0.7013,0.566,0.4859,0.5002,0.6155,0.6925,0.6857,0.7814,0.8214,0.7794,0.7638,0.7428,0.7105,0.7434,0.7543,0.7421,0.7706,0.7133,0.5655,0.5655,0.5446,0.5043,0.4032,0.3997,0.4697,0.3573,0.2534,0.1584,0.1379,0.0781,0.0,0.0,0.0,0.0,0.0,0.0,0.0,0.0,0.0,0.0,0.0,0.0,0.0,0.0,0.0,0.0,0.0,0.0,0.0,0.0,0.0,0.0,0.0,0.0,0.0,0.0,0.0,0.0,0.0,0.0,0.0,0.0,0.0,0.0,0.0,0.0,0.0,0.0,0.0,0.0,0.0,0.0,0.0,0.0,0.0,0.0,0.0,0.0,-0.0135,-0.0538,-0.0538,-0.0672,-0.1076,-0.2819,-0.4426,-0.5897,-0.7631,-0.9238,-1.0717,-1.0717,-1.0717,-1.0717,-1.0717,-1.0717,-1.0717,-1.0717,-1.0717,-1.0717,-1.0717,-1.0717,-1.0717,-1.0717,-1.0717,-1.0717,-1.0717,-1.0717,-1.0717,0.7988,0.7988,0.8085,0.8241,0.8381,0.8479,0.8777,0.8757,0.8211,0.6776,0.5295,0.4309,0.4213,0.5751,0.6735,0.652,0.772,0.8323,0.795,0.7719,0.7495,0.7265,0.7407,0.7489,0.7489,0.7631,0.7058,0.5701,0.5547,0.5429,0.5228,0.4567,0.4913,0.6057,0.4813,0.366,0.2635,0.1976,0.1058,0.0,0.0,0.0,0.0,0.0,0.0,0.0,0.0,0.0,0.0,0.0,0.0,0.0,0.0,0.0,0.0,0.0,0.0,0.0,0.0,0.0,0.0,0.0,0.0,0.0,0.0,0.0,0.0,0.0,0.0,0.0,0.0,0.0,0.0,0.0,0.0,0.0,0.0,0.0,0.0,0.0,0.0,0.0,0.0,0.0,0.0,0.0,0.0,0.0,0.0,0.0,0.0,0.0,-0.1747,-0.3557,-0.5362,-0.7098,-0.89,-1.0717,-1.0717,-1.0717,-1.0717,-1.0717,-1.0717,-1.0717,-1.0717,-1.0717,-1.0717,-1.0717,-1.0717,-1.0717,-1.0717,-1.0717,-1.0717,-1.0717,-1.0717,-1.0717,0.7988,0.7988,0.8085,0.8241,0.8411,0.8628,0.8933,0.9001,0.8338,0.6563,0.4813,0.3698,0.3401,0.5352,0.6541,0.6313,0.7741,0.854,0.8269,0.7923,0.7645,0.7461,0.7428,0.7475,0.7597,0.7597,0.6995,0.5717,0.549,0.5298,0.5099,0.4972,0.5709,0.7001,0.5667,0.4603,0.0,0.0,0.0,0.0,0.0,0.0,0.0,0.0,0.0,0.0,0.0,0.0,0.0,0.0,0.0,0.0,0.0,0.0,0.0,0.0,0.0,0.0,0.0,0.0,0.0,0.0,0.0,0.0,0.0,0.0,0.0,0.0,0.0,0.0,0.0,0.0,0.0,0.0,0.0,0.0,0.0,0.0,0.0,0.0,0.0,0.0,0.0,0.0,0.0,0.0,0.0,0.0,0.0,0.0,0.0,0.0,-0.1406,-0.3078,-0.4894,-0.6631,-0.8435,-1.018,-1.0518,-1.0717,-1.0717,-1.0717,-1.0717,-1.0717,-1.0717,-1.0717,-1.0717,-1.0717,-1.0717,-1.0717,-1.0717,-1.0717,-1.0717,-1.0717,-1.0717,-1.0717,0.7988,0.7988,0.8085,0.8241,0.8499,0.8784,0.9139,0.9245,0.8295,0.5331,0.2375,0.0528,0.0472,0.3303,0.525,0.5478,0.7861,0.9205,0.9091,0.8559,0.8065,0.7773,0.7638,0.7584,0.7597,0.7597,0.6907,0.5439,0.5413,0.5298,0.5099,0.5089,0.5749,0.6867,0.5638,0.0,0.0,0.0,0.0991,0.0,0.0,0.0,0.0,0.0,0.0,0.0,0.0,0.0,0.0,0.0,0.0,0.0,0.0,0.0,0.0,0.0,0.0,0.0,0.0,0.0,0.0,0.0,0.0,0.0,0.0,0.0,0.0,0.0,0.0,0.0,0.0,0.0,0.0,0.0,0.0,0.0,0.0,0.0,0.0,0.0,0.0,0.0,0.0,0.0,0.0,0.0,0.0,0.0,0.0,0.0,0.0,0.0,-0.0198,-0.1195,-0.3019,-0.4827,-0.6564,-0.8302,-0.9915,-1.0717,-1.0717,-1.0717,-1.0717,-1.0717,-1.0717,-1.0717,-1.0717,-1.0717,-1.0717,-1.0717,-1.0717,-1.0717,-1.0717,-1.0717,-1.0717,-1.0717,0.7988,0.7988,0.8085,0.8241,0.837,0.8615,0.9139,0.7834,0.597,0.3692,0.1394,0.0,0.0,0.3111,0.5222,0.5257,0.7981,0.9673,0.9435,0.8859,0.8431,0.8208,0.7896,0.7726,0.7726,0.7556,0.7171,0.6551,0.6269,0.6123,0.6027,0.5942,0.5947,0.6025,0.5365,0.0,0.2719,0.0,0.1068,0.0,0.0,0.0,0.0,0.0,0.0,0.0,0.0,0.0,0.0,0.0,0.0,0.0,0.0,0.0,0.0,0.0,0.0,0.0,0.0,0.0,0.0,0.0,0.0,0.0,0.0,0.0,0.0,0.0,0.0,0.0,0.0,0.0,0.0,0.0,0.0,0.0,0.0,0.0,0.0,0.0,0.0,0.0,0.0,0.0,0.0,0.0,0.0,0.0,0.0,0.0,0.0,0.0,0.0,-0.0858,-0.2651,-0.3475,-0.476,-0.6498,-0.7236,-0.8169,-0.9105,-0.8102,-0.8773,-1.0651,-0.9576,-0.9709,-1.0717,-1.0717,-1.0717,-1.0717,-1.0717,-1.0717,-1.0717,-1.0717,-1.0717,-1.0717,0.7988,0.0,0.0,0.8187,0.8275,0.86,0.9234,0.6779,0.4438,0.3364,0.1347,0.0,0.0,0.2779,0.4848,0.5392,0.7915,0.9627,0.9936,0.9374,0.8947,0.8798,0.8241,0.7977,0.8058,0.7645,0.746,0.7419,0.6966,0.6783,0.6817,0.6668,0.6184,0.5445,0.4901,0.3716,0.2108,0.0,0.078,0.0,0.0,0.0,0.0,0.0,0.0,0.0,0.0,0.0,0.0,0.0,0.0,0.0,0.0,0.0,0.0,0.0,0.0,0.0,0.0,0.0,0.0,0.0,0.0,0.0,0.0,0.0,0.0,0.0,0.0,0.0,0.0,0.0,0.0,0.0,0.0,0.0,0.0,0.0,0.0,0.0,0.0,0.0,0.0,0.0,0.0,0.0,0.0,0.0,0.0,0.0,0.0,0.0,0.0,-0.0656,-0.1972,-0.2467,-0.3354,-0.4693,-0.5162,-0.603,-0.7231,-0.5964,-0.6836,-0.9178,-0.8368,-0.8767,-0.9981,-1.0518,-1.0717,-1.0717,-1.0717,-1.0717,-1.0717,-1.0717,-1.0717,-1.0717,0.7988,0.7988,0.0,0.7995,0.8282,0.873,0.9483,0.6817,0.4755,0.4956,0.2064,0.0,0.0,0.1671,0.3697,0.6048,0.7516,0.9101,1.0731,1.0139,0.972,0.9578,0.873,0.8391,0.8676,0.7963,0.7522,0.7419,0.7068,0.695,0.7078,0.6937,0.6411,0.5542,0.4208,0.3057,0.1916,0.0622,0.0061,0.0,0.0,0.0,0.0,0.0,0.0,0.0,0.0,0.0,0.0,0.0,0.0,0.0,0.0,0.0,0.0,0.0,0.0,0.0,0.0,0.0,0.0,0.0,0.0,0.0,0.0,0.0,0.0,0.0,0.0,0.0,0.0,0.0,0.0,0.0,0.0,0.0,0.0,0.0,0.0,0.0,0.0,0.0,0.0,0.0,0.0,0.0,0.0,0.0,0.0,0.0,0.0,0.0,0.0,0.0,-0.0066,-0.1801,-0.2752,-0.2819,-0.4559,-0.5429,-0.5496,-0.5429,-0.5429,-0.5629,-0.7298,-0.803,-0.823,-0.9981,-1.0717,-1.0717,-1.0717,-1.0717,-1.0717,-1.0717,-1.0717,-1.0717,0.0,0.0,0.0,0.0,0.0,0.8073,0.7749,0.7137,0.6523,0.5794,0.3448,0.1904,0.2233,0.3991,0.5489,0.6224,0.9243,1.1182,1.1487,1.086,1.05,1.0351,0.9585,0.911,0.9008,0.8465,0.8011,0.7658,0.7366,0.7244,0.7292,0.7092,0.6054,0.4238,0.3794,0.2516,0.0,0.0,0.0,0.0,0.0,0.0,0.0,0.0,0.0,0.0,0.0,0.0,0.0,0.0,0.0,0.0,0.0,0.0,0.0,0.0,0.0,0.0,0.0,0.0,0.0,0.0,0.0,0.0,0.0,0.0,0.0,0.0,0.0,0.0,0.0,0.0,0.0,0.0,0.0,0.0,0.0,0.0,0.0,0.0,0.0,0.0,0.0,0.0,0.0,0.0,0.0,0.0,0.0,0.0,0.0,0.0,0.0,0.0,0.0,-0.0593,-0.0932,-0.0941,-0.1545,-0.2484,-0.3557,-0.235,-0.3155,-0.5429,-0.603,-0.6965,-0.8163,-0.9981,-1.0717,-1.0717,-1.0717,-1.0717,-1.0717,-1.0717,-1.0717,-1.0717,0.8343,0.8354,0.8241,0.814,0.8204,0.8196,0.7772,0.7864,0.7707,0.7078,0.4603,0.3355,0.444,0.5082,0.5985,0.7394,1.0036,1.1618,1.1797,1.1477,1.1145,1.0887,1.0263,0.9829,0.9692,0.8508,0.7962,0.8052,0.7172,0.701,0.7522,0.7373,0.5994,0.3751,0.0,0.2288,0.0,0.0,0.0,0.0,0.0,0.0,0.0,0.0,0.0,0.0,0.0,0.0,0.0,0.0,0.0,0.0,0.0,0.0,0.0,0.0,0.0,0.0,0.0,0.0,0.0,0.0,0.0,0.0,0.0,0.0,0.0,0.0,0.0,0.0,0.0,0.0,0.0,0.0,0.0,0.0,0.0,0.0,0.0,0.0,0.0,0.0,0.0,0.0,0.0,0.0,0.0,0.0,0.0,0.0,0.0,0.0,0.0,0.0,0.0,0.0,0.0,0.0,0.0,-0.0602,-0.168,-0.0538,-0.1277,-0.3488,-0.4158,-0.5429,-0.7231,-0.8972,-1.0114,-1.0651,-0.9981,-0.9709,-0.9709,-0.9709,-0.9709,-0.9842,0.8492,0.8404,0.8374,0.8374,0.8676,0.9053,0.9564,0.8945,0.8565,0.8818,0.5823,0.4432,0.6612,0.5005,0.5384,0.9472,0.9886,1.0486,1.1804,1.1884,1.1681,1.1246,1.0799,1.0482,1.0397,0.8128,0.741,0.8428,0.652,0.639,0.7841,0.7685,0.6339,0.3974,0.3882,0.0,0.0,0.0,0.0,0.0,0.0,0.0,0.0,0.0,0.0,0.0,0.0,0.0,0.0,0.0,0.0,0.0,0.0,0.0,0.0,0.0,0.0,0.0,0.0,0.0,0.0,0.0,0.0,0.0,0.0,0.0,0.0,0.0,0.0,0.0,0.0,0.0,0.0,0.0,0.0,0.0,0.0,0.0,0.0,0.0,0.0,0.0,0.0,0.0,0.0,0.0,0.0,0.0,0.0,0.0,0.0,0.0,0.0,0.0,0.0,0.0,0.0,0.0,0.0,0.0,0.0,0.0,0.0,-0.0067,-0.1881,-0.3756,-0.5496,-0.7165,-0.89,-1.0386,-0.8568,-0.7831,-0.7764,-0.7964,-0.7964,-0.8097,0.8676,0.8893,0.9096,0.9096,0.9191,0.9422,0.9808,1.0117,1.0512,1.1286,0.9434,0.8352,0.9445,0.8937,0.9002,1.0042,1.1558,1.2615,1.2847,1.2623,1.24,1.2169,1.1728,1.062,0.8933,0.8039,0.7417,0.7154,0.6294,0.6724,0.8303,0.7929,0.6409,0.3993,0.0,0.0,0.0,0.0,0.0,0.0,0.0,0.0,0.0,0.0,0.0,0.0,0.0,0.0,0.0,0.0,0.0,0.0,0.0,0.0,0.0,0.0,0.0,0.0,0.0,0.0,0.0,0.0,0.0,0.0,0.0,0.0,0.0,0.0,0.0,0.0,0.0,0.0,0.0,0.0,0.0,0.0,0.0,0.0,0.0,0.0,0.0,0.0,0.0,0.0,0.0,0.0,0.0,0.0,0.0,0.0,0.0,0.0,0.0,0.0,0.0,0.0,0.0,0.0,0.0,0.0,0.0,0.0,0.0,-0.0067,-0.1881,-0.3756,-0.5429,-0.5897,-0.7098,-0.8501,-0.6765,-0.5228,-0.4356,-0.7027,-0.7165,-0.6297,0.9008,0.9469,0.9849,0.9788,0.9985,1.0222,1.0348,1.0839,1.1396,1.2101,1.0701,1.0106,1.1409,1.0848,1.0752,1.1673,1.2785,1.3356,1.3003,1.2942,1.2773,1.2427,1.2223,1.102,0.8596,0.7573,0.697,0.6788,0.5664,0.6256,0.8384,0.0,0.0,0.0,0.0,0.2442,0.0,0.0,0.0,0.0,0.0,0.0,0.0,0.0,0.0,0.0,0.0,0.0,0.0,0.0,0.0,0.0,0.0,0.0,0.0,0.0,0.0,0.0,0.0,0.0,0.0,0.0,0.0,0.0,0.0,0.0,0.0,0.0,0.0,0.0,0.0,0.0,0.0,0.0,0.0,0.0,0.0,0.0,0.0,0.0,0.0,0.0,0.0,0.0,0.0,0.0,0.0,0.0,0.0,0.0,0.0,0.0,0.0,0.0,0.0,0.0,0.0,0.0,0.0,0.0,0.0,0.0,0.0,-0.0067,-0.1076,-0.2551,-0.4225,-0.4225,-0.5295,-0.6698,-0.4894,-0.3088,-0.1881,-0.4623,-0.5091,-0.4492,0.9442,1.0053,1.05,1.0337,1.0812,1.1199,1.1131,1.1362,1.1708,1.2176,1.1078,1.0924,1.2983,1.1889,1.1686,1.3512,1.3641,1.3397,1.2854,1.3057,1.2963,1.2427,1.2508,1.1351,0.8652,0.6933,0.619,0.6566,0.4819,0.5489,0.832,0.0,0.0,0.0,0.0,0.0,0.0,0.0064,0.0,0.0,0.0,0.0,0.0,0.0,0.0,0.0,0.0,0.0,0.0,0.0,0.0,0.0,0.0,0.0,0.0,0.0,0.0,0.0,0.0,0.0,0.0,0.0,0.0,0.0,0.0,0.0,0.0,0.0,0.0,0.0,0.0,0.0,0.0,0.0,0.0,0.0,0.0,0.0,0.0,0.0,0.0,0.0,0.0,0.0,0.0,0.0,0.0,0.0,0.0,0.0,0.0,0.0,0.0,0.0,0.0,0.0,0.0,0.0,0.0,0.0,0.0,0.0,0.0,0.0,0.0,-0.1009,-0.2685,-0.2417,-0.3289,-0.4559,-0.2954,-0.1545,-0.0538,-0.1881,-0.2484,-0.2954,0.9862,1.0375,1.0778,1.0507,1.1056,1.1653,1.1999,1.2196,1.2515,1.3091,1.3257,1.3515,1.4055,1.3713,1.3561,1.3732,1.3695,1.3532,1.3295,1.3329,1.3261,1.303,1.2929,1.1051,0.6976,0.646,0.5812,0.4933,0.4319,0.5473,0.832,0.8113,0.0,0.0,0.0,0.0,0.1552,0.0449,0.0,0.0,0.0,0.0,0.0,0.0,0.0,0.0,0.0,0.0,0.0,0.0,0.0,0.0,0.0,0.0,0.0,0.0,0.0,0.0,0.0,0.0,0.0,0.0,0.0,0.0,0.0,0.0,0.0,0.0,0.0,0.0,0.0,0.0,0.0,0.0,0.0,0.0,0.0,0.0,0.0,0.0,0.0,0.0,0.0,0.0,0.0,0.0,0.0,0.0,0.0,0.0,0.0,0.0,0.0,0.0,0.0,0.0,0.0,0.0,0.0,0.0,0.0,0.0,0.0,0.0,0.0,-0.1009,-0.2551,-0.1076,-0.0672,-0.0941,-0.0606,-0.121,-0.2083,-0.0874,-0.1411,-0.2752,1.0731,0.0,0.0,1.1307,1.1803,1.2345,1.28,1.3125,1.3308,1.3288,1.3539,1.3749,1.3824,1.4048,1.4129,1.3973,1.3824,1.3675,1.3532,1.3444,1.3336,1.318,1.3037,1.1451,0.821,0.7929,0.727,0.61,0.5686,0.6502,0.8377,0.8147,0.726,0.0,0.0,0.3248,0.0,0.058,0.0,0.0,0.0,0.0,0.0,0.0,0.0,0.0146,0.1158,0.1496,0.1328,0.0345,0.0,0.0,0.0,0.0,0.0,0.0,0.0,0.0,0.0,0.0,0.0,0.0,0.0,0.0,0.0,0.0,0.0,0.0,0.0,0.0,0.0,0.0,0.0,0.0,0.0,0.0,0.0,0.0,0.0,0.0,0.0,0.0,0.0,0.0,0.0,0.0,0.0,0.0,0.0,0.0,0.0,0.0,0.0,0.0,0.0,0.0,0.0,0.0,0.0,0.0,0.0,0.0,0.0,0.0,0.0,-0.0471,-0.121,-0.0336,0.0,0.0,0.0,-0.0538,-0.121,-0.0336,-0.0538,-0.1277,1.1504,1.166,1.1843,1.2108,1.2556,1.299,1.3349,1.381,1.3953,1.3471,1.3519,1.3593,1.3593,1.4014,1.4238,1.4089,1.3933,1.3783,1.3641,1.3485,1.3349,1.3227,1.3085,1.1991,0.9688,0.9397,0.8734,0.7675,0.7155,0.7456,0.8479,0.8241,0.7598,0.6509,0.4129,0.2943,0.2616,0.1166,0.0338,0.0,0.0,0.0,0.0,0.0,0.0292,0.0802,0.2328,0.3177,0.328,0.1744,0.1241,0.1096,0.0746,0.0607,0.0471,0.0135,0.0,0.0,0.0,0.0,0.0,0.0,0.0,0.0,0.0,0.0,0.0135,0.0471,0.0592,0.0697,0.0956,0.0464,0.0113,0.0447,0.0216,0.0106,0.0426,0.0,0.0,0.0,0.0,0.0,0.0,0.0,0.0,0.0,0.0,0.0,0.0,0.0,0.0,0.0,0.0,0.0,0.0,0.0,0.0,0.0,0.0,0.0,0.0,0.0,0.0,0.0,0.0,0.0,0.0,0.0,0.0,0.0,0.0,-0.0202,-0.0538,-0.0135,-0.0269,-0.0538,1.1965,1.2121,1.2277,1.2433,1.2949,1.3349,1.3397,1.3899,1.4258,1.4204,1.4204,1.4217,1.4217,1.4265,1.4238,1.4089,1.3933,1.3783,1.3641,1.3485,1.3397,1.3376,1.3234,1.2093,0.9838,0.9555,0.8884,0.7757,0.7302,0.7597,0.8479,0.8452,0.8528,0.8565,0.7107,0.5716,0.436,0.3002,0.1494,0.0,0.0,0.0,0.0,0.0,0.1093,0.2618,0.2836,0.4066,0.5496,0.5347,0.5166,0.4786,0.3147,0.2577,0.2148,0.0471,0.0,0.0,0.0,0.0,0.0,0.0,0.0,0.0,0.0,0.0,0.0471,0.2081,0.2429,0.2854,0.4171,0.2036,0.047,0.2043,0.0994,0.0441,0.1816,0.0,0.0511,0.0,0.0,0.0,0.0,0.0,0.0,0.0,0.0,0.0,0.0,0.0,0.0,0.0,0.0,0.0,0.0,0.0,0.0,0.0,0.0,0.0,0.0,0.0,0.0,0.0,0.0,0.0,0.0,0.0,0.0,0.0,0.0,-0.1009,-0.2216,-0.0606,-0.1009,-0.2216,1.2854,1.2773,1.282,1.3234,1.3356,1.3526,1.3885,1.4143,1.4299,1.4299,1.4299,1.4299,1.4299,1.4299,1.4278,1.4211,1.398,1.3817,1.3756,1.3532,1.3403,1.3403,1.3254,1.2774,1.174,1.1442,1.0829,0.9944,0.951,0.9205,0.9157,0.9062,0.9137,0.9231,0.7903,0.6407,0.476,0.3367,0.1738,0.0,0.0,0.0,0.0146,0.1311,0.2256,0.3197,0.5515,0.6894,0.7684,0.8873,0.7681,0.5381,0.3512,0.2868,0.2445,0.0539,0.0,0.0,0.0,0.0,0.0,0.0,0.0,0.0,0.0,0.0,0.0538,0.235,0.3476,0.4319,0.478,0.3839,0.3135,0.3816,0.257,0.2018,0.3495,0.2277,0.0,0.3243,0.0,0.0,0.0,0.0482,0.0,0.0,0.0,0.0,0.0,0.0,0.0,0.0,0.0,0.0,0.0,0.0,0.0,0.0,0.0,0.0,0.0,0.0,0.0,0.0,0.0,0.0,0.0,0.0,0.0,0.0,0.0,-0.0471,-0.1009,-0.0269,-0.0471,-0.1009,1.3505,1.3329,1.3329,1.3878,1.3804,1.381,1.4238,1.4299,1.4299,1.4299,1.4299,1.4299,1.4299,1.4299,1.4299,1.4299,1.4061,1.3885,1.3759,1.3607,1.3451,1.3403,1.3295,1.3173,1.3024,1.2725,1.2271,1.1653,1.1111,1.0534,0.993,0.9693,0.9707,0.9883,0.8941,0.7238,0.5053,0.4098,0.227,0.0,0.0,0.0,0.0219,0.2183,0.327,0.4213,0.7544,0.9064,0.9795,1.1109,0.981,0.7061,0.4536,0.3723,0.3213,0.0747,0.0,0.0,0.0,0.0,0.0135,0.0672,0.0404,0.0135,0.0672,0.0404,0.0672,0.2937,0.4704,0.599,0.6337,0.5569,0.4896,0.4902,0.3564,0.302,0.4444,0.3141,0.0,0.4579,0.3146,0.1998,0.1945,0.0758,0.0,0.0,0.0,0.0,0.0,0.0,0.0,0.0,0.0,0.0,0.0,0.0,0.0,0.0,0.0,0.0,0.0,0.0,0.0,0.0,0.0,0.0,0.0,0.0,0.0,0.0,0.0,0.0,0.0,0.0,0.0,0.0,1.3749,1.3722,1.3763,1.4217,1.4292,1.4292,1.4299,1.4299,1.4299,1.4299,1.4299,1.4299,1.4299,1.4299,1.4299,1.4299,1.4156,1.4007,1.3851,1.3709,1.3559,1.341,1.3397,1.3329,1.3173,1.2881,1.2583,1.2277,1.1525,1.1002,1.0697,1.0186,1.0213,1.0704,1.0644,0.8764,0.5618,0.555,0.3447,0.0,0.0,0.0,0.0219,0.2183,0.4068,0.6025,0.7977,0.9939,1.1548,1.1619,1.1548,1.0862,0.7002,0.566,0.4857,0.1098,0.0,0.0,0.0,0.0,0.0404,0.2216,0.1344,0.0471,0.2283,0.1277,0.0938,0.4344,0.6485,0.824,0.9699,0.7192,0.4926,0.4895,0.3579,0.296,0.4326,0.304,0.0,0.5948,0.3726,0.1941,0.1801,0.0713,0.0,0.0,0.0,0.0,0.0,0.0,0.0,0.0,0.0,0.0,0.0,0.0,0.0,0.0,0.0,0.0,0.0,0.0,0.0,0.0,0.0,0.0,0.0,0.0,0.0,0.0,0.0,0.0,0.0,0.0,0.0,0.0,1.4122,1.4116,1.4129,1.4278,1.4299,1.4299,1.4299,1.4299,1.4299,1.4299,1.4299,1.4299,1.4299,1.4299,1.4299,1.4299,1.4061,1.3892,1.3759,1.3607,1.3451,1.3403,1.3403,1.3329,1.3173,1.3078,1.2834,1.2433,1.2094,1.1728,1.1328,1.1077,1.1097,1.1335,1.1436,1.0108,0.7747,0.6415,0.4381,0.2018,0.0598,0.0818,0.2211,0.4123,0.6071,0.8054,1.0011,1.1038,1.1619,1.1619,1.1619,1.0953,0.7005,0.5777,0.4975,0.1104,0.0,0.0272,0.1482,0.1814,0.2283,0.4091,0.4091,0.3488,0.2819,0.3222,0.3942,0.4935,0.7458,0.9589,0.9955,0.9051,0.7889,0.6784,0.523,0.4596,0.5808,0.4477,0.4425,0.7295,0.5094,0.3361,0.3313,0.2206,0.1067,0.0094,0.0928,0.1064,0.0047,0.0,0.0,0.0,0.0,0.0,0.0,0.0,0.0,0.0,0.0,0.0,0.0,0.0,0.0,0.0,0.0,0.0,0.0,0.0,0.0,0.0,0.0,0.0,0.0,0.0,0.0,0.0,1.4299,1.4299,1.4299,1.4299,1.4299,1.4299,1.4299,1.4299,1.4299,1.4299,1.4299,1.4299,1.4299,1.4299,1.4299,1.4299,1.4075,1.3905,1.3759,1.362,1.3458,1.3403,1.3403,1.3356,1.3261,1.32,1.3037,1.2752,1.2494,1.2169,1.1782,1.1687,1.1694,1.1789,1.1877,1.0798,0.8938,0.773,0.6105,0.4226,0.287,0.3081,0.4399,0.6333,0.7759,0.906,1.0964,1.1667,1.1619,1.1619,1.1619,1.0894,0.7042,0.5777,0.5003,0.1122,0.0,0.0274,0.1357,0.2158,0.3155,0.4961,0.5429,0.5095,0.3957,0.4559,0.5549,0.6093,0.8432,1.031,1.0161,1.0012,0.9326,0.7673,0.6455,0.5942,0.6588,0.5641,0.567,0.7896,0.5708,0.4185,0.4696,0.3185,0.2063,0.1719,0.2573,0.2472,0.0929,0.0301,0.0,0.0,0.0,0.0,0.0,0.0,0.0,0.0,0.0,0.0,0.0,0.0,0.0,0.0,0.0,0.0,0.0,0.0,0.0,0.0,0.0,0.0,0.0,0.0,0.0,0.0,1.4299,1.4299,1.4299,1.4299,1.4299,1.4299,1.4299,1.4299,1.4299,1.4299,1.4299,1.4299,1.4299,1.4299,1.4299,1.4299,1.4156,1.4007,1.3851,1.3709,1.3559,1.341,1.3403,1.3403,1.3403,1.3261,1.3186,1.3173,1.2732,1.2379,1.2108,1.2094,1.2169,1.2169,1.2169,1.1102,0.9436,0.928,0.8154,0.6499,0.6348,0.6344,0.6713,0.852,0.9202,0.9329,1.1171,1.1748,1.1633,1.1619,1.1619,1.0966,0.7187,0.5881,0.5072,0.1148,0.0,0.0,0.0137,0.1495,0.3291,0.5098,0.5563,0.5563,0.5563,0.5563,0.603,0.7698,0.9336,1.0446,1.0304,1.0154,0.9428,0.7678,0.7228,0.6985,0.6739,0.6349,0.6599,0.7735,0.5596,0.451,0.5757,0.3865,0.3065,0.4398,0.4611,0.3966,0.2299,0.0791,0.0,0.0,0.0,0.0,0.0,0.0,0.0,0.0,0.0,0.0,0.0,0.0,0.0,0.0,0.0,0.0,0.0,0.0,0.0,0.0,0.0,0.0,0.0,0.0,0.0,0.0,1.4299,1.4299,1.4299,1.4299,1.4299,1.4299,1.4299,1.4299,1.4299,1.4299,1.4299,1.4299,1.4299,1.4299,1.4299,1.4299,1.4156,1.4007,1.3851,1.3709,1.3559,1.341,1.3403,1.3403,1.3403,1.3363,1.3288,1.3173,1.284,1.2637,1.2569,1.2454,1.24,1.24,1.24,1.2163,1.1619,1.0064,0.9064,0.852,0.6976,0.7164,0.8555,0.901,1.008,1.1392,1.1724,1.1809,1.1762,1.1653,1.1619,1.1181,0.8776,0.6966,0.5072,0.1148,0.0,0.0282,0.1657,0.335,0.5163,0.6915,0.7365,0.7365,0.7365,0.7365,0.7498,0.7897,0.9336,1.0446,1.0304,1.0154,0.9403,0.7451,0.7123,0.6929,0.6478,0.5393,0.5124,0.6338,0.5256,0.4461,0.4586,0.5318,0.5476,0.4703,0.4593,0.3953,0.2486,0.0904,0.0,0.0,0.0,0.0,0.0,0.0,0.0,0.0,0.0,0.0,0.0,0.0,0.0,0.0,0.0,0.0,0.0,0.0,0.0,0.0,0.0,0.0,0.0,0.0,0.0,0.0,1.4299,1.4299,1.4299,1.4299,1.4299,1.4299,1.4299,1.4299,1.4299,1.4299,1.4299,1.4299,1.4299,1.4299,1.4299,1.4299,1.4156,1.4007,1.3851,1.3709,1.3559,1.341,1.3403,1.3403,1.3403,1.3403,1.3322,1.3173,1.301,1.2861,1.2725,1.2644,1.2569,1.2501,1.2501,1.2501,1.2424,1.1327,1.0856,1.0701,0.9609,0.9805,1.0673,1.0673,1.1365,1.2155,1.2074,1.1993,1.1911,1.1769,1.1714,1.1187,0.8285,0.6677,0.5005,0.1156,0.0,0.0428,0.2314,0.408,0.6002,0.86,0.8634,0.823,0.9039,0.8568,0.823,0.9039,0.9984,1.0555,1.0405,1.0256,0.9741,0.8527,0.8207,0.7973,0.7535,0.6779,0.6486,0.7159,0.6231,0.5781,0.6424,0.6801,0.6628,0.5788,0.5694,0.4721,0.246,0.1606,0.0784,0.0,0.0,0.0,0.0,0.0,0.0,0.0,0.0,0.0,0.0,0.0,0.0,0.0,0.0,0.0,0.0,0.0,0.0,0.0,0.0,0.0,0.0,0.0,0.0,0.0,1.4299,1.4299,1.4299,1.4299,1.4299,1.4299,1.4299,1.4299,1.4299,1.4299,1.4299,1.4299,1.4299,1.4299,1.4299,1.4299,1.4183,1.4027,1.3851,1.3729,1.3587,1.341,1.3403,1.3403,1.3403,1.3403,1.3336,1.3207,1.3186,1.3044,1.2793,1.2752,1.2664,1.2535,1.2515,1.2501,1.2501,1.2501,1.2501,1.2501,1.2501,1.2501,1.2501,1.2501,1.2427,1.2318,1.2298,1.2203,1.2074,1.1918,1.185,1.1218,0.7811,0.6471,0.5518,0.1966,0.0868,0.1146,0.2497,0.4332,0.6617,0.991,0.9588,0.8834,1.0319,0.951,0.8834,1.0386,1.0717,1.067,1.0521,1.0378,1.0175,0.9842,0.9557,0.9273,0.8892,0.8606,0.8438,0.8419,0.7465,0.7376,0.8773,0.8037,0.7349,0.6935,0.6788,0.5439,0.2435,0.2159,0.1444,0.0062,0.0,0.0,0.0,0.0,0.0,0.0,0.0,0.0,0.0,0.0,0.0,0.0,0.0,0.0,0.0,0.0,0.0,0.0,0.0,0.0,0.0,0.0,0.0,0.0,1.4299,1.4299,1.4299,1.4299,1.4299,1.4299,1.4299,1.4299,1.4299,1.4299,1.4299,1.4299,1.4299,1.4299,1.4299,1.4299,1.4278,1.4143,1.3858,1.3817,1.3688,1.341,1.3403,1.3403,1.3403,1.3403,1.339,1.3363,1.3234,1.3152,1.3098,1.2847,1.2718,1.2691,1.2562,1.2501,1.2501,1.2501,1.2501,1.2501,1.2501,1.2501,1.2501,1.2501,1.2488,1.2454,1.2332,1.2277,1.223,1.2074,1.1938,1.1677,1.1065,0.9658,0.7833,0.5591,0.4933,0.4624,0.3288,0.5305,0.8335,1.0367,1.0545,1.0319,1.0651,1.0452,1.0386,1.0651,1.0717,1.067,1.0521,1.0378,1.0141,0.9713,0.9496,0.9232,0.8804,0.782,0.7113,0.7022,0.7174,0.7333,0.7422,0.8531,0.861,0.7174,0.5813,0.431,0.2552,0.1131,0.0255,0.0,0.0,0.0,0.0,0.0,0.0,0.0,0.0,0.0,0.0,0.0,0.0,0.0,0.0,0.0,0.0,0.0,0.0,0.0,0.0,0.0,0.0,0.0,0.0,0.0,1.4299,1.4299,1.4299,1.4299,1.4299,1.4299,1.4299,1.4299,1.4299,1.4299,1.4299,1.4299,1.4299,1.4299,1.4299,1.4299,1.4299,1.4204,1.398,1.3885,1.3743,1.3532,1.3444,1.3403,1.3403,1.3403,1.3403,1.3403,1.3329,1.3254,1.3166,1.303,1.2929,1.2847,1.2691,1.2623,1.2617,1.2535,1.2501,1.2501,1.2501,1.2501,1.2501,1.2501,1.2501,1.2494,1.2427,1.2406,1.2379,1.2237,1.2135,1.1836,1.0773,0.9696,0.8426,0.6451,0.5839,0.5791,0.5926,0.7893,1.0097,1.071,1.0826,1.0819,1.0738,1.0717,1.0717,1.0717,1.0717,1.0697,1.0629,1.0432,1.0215,1.0005,0.9639,0.9334,0.9211,0.8597,0.8178,0.8335,0.8575,0.8721,0.8806,0.9494,0.8903,0.6226,0.5353,0.3826,0.1276,0.045,0.0,0.0,0.0,0.0,0.0,0.0,0.0,0.0,0.0,0.0,0.0,0.0,0.0,0.0,0.0,0.0,0.0,0.0,0.0,0.0,0.0,0.0,0.0,0.0,0.0,0.0,1.4299,1.4299,1.4299,1.4299,1.4299,1.4299,1.4299,1.4299,1.4299,1.4299,1.4299,1.4299,1.4299,1.4299,1.4299,1.4299,1.4299,1.4251,1.4136,1.398,1.3817,1.3634,1.3485,1.3403,1.3403,1.3403,1.3403,1.3403,1.3403,1.3342,1.3227,1.3186,1.3112,1.3003,1.2854,1.2786,1.2773,1.2617,1.2556,1.2549,1.2515,1.2501,1.2501,1.2501,1.2501,1.2501,1.2501,1.2501,1.2488,1.2379,1.2318,1.2036,1.0393,0.9824,0.9276,0.7252,0.6597,0.6805,0.8164,0.9912,1.1335,1.1111,1.0934,1.0847,1.0799,1.0744,1.0717,1.0717,1.0717,1.0717,1.0717,1.0507,1.0304,1.0236,0.9808,0.951,0.9598,0.9435,0.9449,0.9829,0.9903,1.0019,1.0256,1.0283,0.9054,0.597,0.5326,0.3796,0.0778,0.0196,0.0,0.0,0.0,0.0,0.0,0.0,0.0,0.0,0.0,0.0,0.0,0.0,0.0,0.0,0.0,0.0,0.0,0.0,0.0,0.0,0.0,0.0,0.0,0.0,0.0,0.0,1.4299,1.4299,1.4299,1.4299,1.4299,1.4299,1.4299,1.4299,1.4299,1.4299,1.4299,1.4299,1.4299,1.4299,1.4299,1.4299,1.4299,1.4292,1.4285,1.4143,1.3926,1.3641,1.3485,1.3403,1.3403,1.3403,1.3403,1.3403,1.3403,1.3397,1.3383,1.3241,1.3166,1.3152,1.301,1.2942,1.2935,1.2779,1.2712,1.2698,1.2562,1.2501,1.2501,1.2501,1.2501,1.2501,1.2501,1.2501,1.2501,1.2488,1.24,1.2291,1.2126,1.2012,1.1418,0.935,0.8572,0.8482,0.8621,0.9983,1.1389,1.1362,1.1151,1.088,1.0867,1.0819,1.0717,1.0717,1.0717,1.0717,1.0717,1.0588,1.0385,1.0051,0.991,0.9747,0.9625,0.97,0.9836,0.995,1.0161,1.0256,1.0276,1.0283,0.957,0.7768,0.6034,0.433,0.2622,0.0921,0.0,0.0,0.0,0.0,0.0,0.0,0.0,0.0,0.0,0.0,0.0,0.0,0.0,0.0,0.0,0.0,0.0,0.0,0.0,0.0,0.0,0.0,0.0,0.0,0.0,0.0,1.4299,1.4299,1.4299,1.4299,1.4299,1.4299,1.4299,1.4299,1.4299,1.4299,1.4299,1.4299,1.4299,1.4299,1.4299,1.4299,1.4299,1.4299,1.4299,1.4156,1.3939,1.3641,1.3485,1.3403,1.3403,1.3403,1.3403,1.3403,1.3403,1.3403,1.3397,1.3342,1.3315,1.3308,1.3159,1.3091,1.3085,1.2935,1.2874,1.2861,1.2705,1.2644,1.263,1.2535,1.2501,1.2501,1.2501,1.2501,1.2501,1.2501,1.2467,1.242,1.242,1.2318,1.1998,1.1013,1.0681,1.0626,1.0546,1.0992,1.1511,1.1416,1.1307,1.1172,1.0921,1.0833,1.0766,1.0738,1.0717,1.0717,1.0717,1.0595,1.0487,1.0466,1.0118,1.0005,1.0141,1.0046,0.999,1.0297,1.0378,1.0453,1.0541,1.0555,0.9823,0.8039,0.6263,0.4499,0.2796,0.1,0.0,0.0,0.0,0.0,0.0,0.0,0.0,0.0,0.0,0.0,0.0,0.0,0.0,0.0,0.0,0.0,0.0,0.0,0.0,0.0,0.0,0.0,0.0,0.0,0.0,0.0,1.4299,1.4299,1.4299,1.4299,1.4299,1.4299,1.4299,1.4299,1.4299,1.4299,1.4299,1.4299,1.4299,1.4299,1.4299,1.4299,1.4299,1.4299,1.4299,1.4156,1.396,1.3709,1.3553,1.3471,1.3471,1.3424,1.3403,1.3403,1.3403,1.3403,1.3403,1.3403,1.3403,1.3397,1.3295,1.3247,1.3234,1.3091,1.303,1.3017,1.2861,1.28,1.2793,1.2684,1.2617,1.2576,1.2576,1.2542,1.2501,1.2501,1.2501,1.2501,1.2501,1.2406,1.225,1.204,1.1904,1.1809,1.1714,1.1653,1.1592,1.1491,1.1423,1.1335,1.1131,1.0948,1.0853,1.0812,1.0751,1.0717,1.0717,1.0636,1.0582,1.0636,1.0392,1.0263,1.0466,1.0317,1.0283,1.0534,1.0561,1.0602,1.0711,1.0717,1.018,0.8972,0.6698,0.4359,0.1947,0.0672,0.0,0.0,0.0,0.0,0.0,0.0,0.0,0.0,0.0,0.0,0.0,0.0,0.0,0.0,0.0,0.0,0.0,0.0,0.0,0.0,0.0,0.0,0.0,0.0,0.0,0.0,1.4299,1.4299,1.4299,1.4299,1.4299,1.4299,1.4299,1.4299,1.4299,1.4299,1.4299,1.4299,1.4299,1.4299,1.4299,1.4299,1.4299,1.4299,1.4299,1.4156,1.4007,1.3851,1.3709,1.3634,1.3627,1.3478,1.3403,1.3403,1.3403,1.3403,1.3403,1.3403,1.3403,1.3403,1.3403,1.3403,1.339,1.3241,1.3173,1.3159,1.3097,1.2963,1.2963,1.2963,1.2868,1.2732,1.2732,1.263,1.2501,1.2501,1.2501,1.2501,1.2501,1.2406,1.2291,1.2291,1.2074,1.1837,1.183,1.1728,1.1619,1.1619,1.1504,1.1396,1.1389,1.1165,1.0887,1.088,1.0759,1.0724,1.0717,1.0717,1.067,1.0521,1.0493,1.0493,1.0493,1.0493,1.0548,1.0704,1.0717,1.0717,1.0717,1.0717,1.0717,1.0651,0.7369,0.3823,0.0202,0.0,0.0,0.0,0.0,0.0,0.0,0.0,0.0,0.0,0.0,0.0,0.0,0.0,0.0,0.0,0.0,0.0,0.0,0.0,0.0,0.0,0.0,0.0,0.0,0.0,0.0,0.0,1.4299,1.4299,1.4299,1.4299,1.4299,1.4299,1.4299,1.4299,1.4299,1.4299,1.4299,1.4299,1.4299,1.4299,1.4299,1.4299,1.4299,1.4299,1.4299,1.4258,1.4211,1.4163,1.3912,1.3729,1.3634,1.3587,1.3505,1.3403,1.3403,1.3403,1.3403,1.3403,1.3403,1.3403,1.3403,1.3403,1.3397,1.3349,1.3336,1.3322,1.3166,1.3112,1.3098,1.3077,1.2935,1.2874,1.2766,1.2698,1.2644,1.2535,1.2501,1.2501,1.2501,1.2474,1.242,1.2318,1.2223,1.2108,1.1891,1.1796,1.1742,1.1647,1.1586,1.1525,1.1416,1.1321,1.1199,1.0921,1.0847,1.0779,1.0738,1.0717,1.0704,1.0656,1.0649,1.0649,1.0649,1.0649,1.067,1.0717,1.0717,1.0717,1.0717,1.0717,1.018,0.89,0.5492,0.2484,0.0135,0.0,0.0,0.0,0.0,0.0,0.0,0.0,0.0,0.0,0.1277,0.1881,0.1881,0.1881,0.1881,0.1814,0.0538,0.0,0.0,0.0,0.0,0.0,0.0,0.0,0.0,0.0,0.0,0.0,1.4299,1.4299,1.4299,1.4299,1.4299,1.4299,1.4299,1.4299,1.4299,1.4299,1.4299,1.4299,1.4299,1.4299,1.4299,1.4299,1.4299,1.4299,1.4299,1.4299,1.4299,1.4299,1.4122,1.3926,1.3715,1.3654,1.3553,1.3403,1.3403,1.3403,1.3403,1.3403,1.3403,1.3403,1.3403,1.3403,1.3403,1.3403,1.3403,1.339,1.3302,1.3261,1.3254,1.3166,1.3098,1.303,1.2942,1.2827,1.2718,1.2623,1.2556,1.2501,1.2501,1.2501,1.2481,1.24,1.2332,1.225,1.206,1.1925,1.1809,1.1728,1.166,1.1592,1.1504,1.1436,1.1341,1.1158,1.0961,1.0853,1.0759,1.0758,1.0717,1.0717,1.0717,1.0717,1.0717,1.0717,1.0717,1.0717,1.0717,1.0717,1.0717,1.0047,0.8568,0.6093,0.389,0.1881,0.0067,0.0,0.0336,0.1076,0.1076,0.1411,0.2148,0.2148,0.1747,0.1076,0.2148,0.3088,0.3689,0.2283,0.2016,0.2618,0.0807,0.0,0.0067,0.074,0.1076,0.1143,0.1881,0.168,0.1076,0.1076,0.0605,0.0,1.4299,1.4299,1.4299,1.4299,1.4299,1.4299,1.4299,1.4299,1.4299,1.4299,1.4299,1.4299,1.4299,1.4299,1.4299,1.4299,1.4299,1.4299,1.4299,1.4299,1.4299,1.4299,1.4299,1.4163,1.3865,1.3722,1.3573,1.3424,1.341,1.3403,1.3403,1.3403,1.3403,1.3403,1.3403,1.3403,1.3403,1.3403,1.3403,1.3403,1.3403,1.3403,1.3403,1.3403,1.3315,1.3193,1.318,1.2996,1.2766,1.2739,1.263,1.2501,1.2501,1.2501,1.2501,1.2501,1.2413,1.2305,1.2291,1.2088,1.1864,1.1837,1.1735,1.1633,1.1619,1.1511,1.1409,1.1396,1.1179,1.0914,1.0887,1.0766,1.0738,1.0724,1.0717,1.0717,1.0717,1.0717,1.0717,1.0717,1.0717,1.0651,1.0452,0.8701,0.616,0.2954,0.2551,0.1814,0.0336,0.0269,0.1076,0.2887,0.2954,0.3756,0.5362,0.5563,0.476,0.2954,0.3086,0.4024,0.5496,0.2216,0.1613,0.3086,0.1277,0.0471,0.0605,0.2283,0.2954,0.3088,0.476,0.4426,0.2954,0.2752,0.168,0.0202,1.4299,1.4299,1.4299,1.4299,1.4299,1.4299,1.4299,1.4299,1.4299,1.4299,1.4299,1.4299,1.4299,1.4299,1.4299,1.4299,1.4299,1.4299,1.4299,1.4299,1.4299,1.4299,1.4299,1.4211,1.4027,1.3871,1.3722,1.358,1.3458,1.3403,1.3403,1.3403,1.3403,1.3403,1.3403,1.3403,1.3403,1.3403,1.3403,1.3403,1.3403,1.3403,1.3403,1.3403,1.3376,1.3336,1.3214,1.3132,1.3044,1.2807,1.263,1.2501,1.2501,1.2501,1.2501,1.2501,1.2481,1.2433,1.2318,1.2244,1.2135,1.1891,1.1809,1.1755,1.1647,1.1592,1.1538,1.1416,1.1341,1.1226,1.0921,1.0853,1.0793,1.0738,1.0717,1.0717,1.0717,1.0717,1.0717,1.0717,1.0717,1.0114,0.8701,0.5693,0.3555,0.2752,0.1411,0.1009,0.2083,0.2081,0.2954,0.476,0.4827,0.5028,0.5362,0.6765,0.6564,0.4827,0.6227,0.7027,0.7431,0.6627,0.6494,0.676,0.4961,0.4225,0.4292,0.4626,0.4827,0.4827,0.5228,0.5162,0.4626,0.3222,0.2484,0.1881,1.4299,1.4299,1.4299,1.4299,1.4299,1.4299,1.4299,1.4299,1.4299,1.4299,1.4299,1.4299,1.4299,1.4299,1.4299,1.4299,1.4299,1.4299,1.4299,1.4299,1.4299,1.4299,1.4299,1.4265,1.4183,1.4027,1.3844,1.3627,1.3546,1.3471,1.3403,1.3403,1.3403,1.3403,1.3403,1.3403,1.3403,1.3403,1.3403,1.3403,1.3403,1.3403,1.3403,1.3403,1.3403,1.339,1.3308,1.3234,1.3125,1.2834,1.2678,1.2596,1.2522,1.2501,1.2501,1.2501,1.2501,1.2488,1.2413,1.2338,1.225,1.2088,1.1938,1.1796,1.1653,1.1619,1.1599,1.1518,1.1443,1.1341,1.1185,1.1097,1.1002,1.0786,1.0826,1.0806,1.0731,1.0717,1.0717,1.0717,0.9915,0.8368,0.5759,0.3823,0.235,0.1478,0.1344,0.168,0.2618,0.3488,0.4827,0.6564,0.6631,0.7031,0.7902,0.8839,0.8839,0.7902,0.7964,0.8435,0.9238,0.7564,0.7231,0.7897,0.6164,0.5429,0.5496,0.6297,0.6631,0.6698,0.7569,0.7436,0.6431,0.4626,0.2887,0.1277,1.4299,1.4299,1.4299,1.4299,1.4299,1.4299,1.4299,1.4299,1.4299,1.4299,1.4299,1.4299,1.4299,1.4299,1.4299,1.4299,1.4299,1.4299,1.4299,1.4299,1.4299,1.4299,1.4299,1.4299,1.4299,1.4177,1.398,1.3709,1.3682,1.36,1.3478,1.3451,1.3437,1.3437,1.341,1.3403,1.3403,1.3403,1.3403,1.3403,1.3403,1.3403,1.3403,1.3403,1.3403,1.3403,1.3403,1.3302,1.3132,1.2888,1.2793,1.2745,1.2589,1.2542,1.2535,1.2508,1.2501,1.2501,1.2501,1.2413,1.2318,1.2298,1.2094,1.187,1.1728,1.1653,1.1619,1.1619,1.1518,1.1423,1.1396,1.1287,1.1158,1.1009,1.0921,1.0934,1.0778,1.0758,1.0618,1.0253,0.8368,0.596,0.2952,0.2685,0.2083,0.0606,0.2148,0.3287,0.3622,0.5028,0.6631,0.8435,0.8435,0.9172,1.0717,1.0717,1.0717,1.0651,0.9172,0.9238,1.0585,0.7636,0.7098,0.8368,0.6965,0.6297,0.6431,0.7831,0.8435,0.8634,1.0114,0.9775,0.823,0.6164,0.3289,0.0404,1.4299,1.4299,1.4299,1.4299,1.4299,1.4299,1.4299,1.4299,1.4299,1.4299,1.4299,1.4299,1.4299,1.4299,1.4299,1.4299,1.4299,1.4299,1.4299,1.4299,1.4299,1.4299,1.4299,1.4299,1.4299,1.4278,1.4183,1.4014,1.3878,1.3804,1.3777,1.3654,1.36,1.3593,1.3458,1.3403,1.3403,1.3403,1.3403,1.3403,1.3403,1.3403,1.3403,1.3403,1.3403,1.3403,1.3403,1.3302,1.3166,1.3125,1.303,1.2901,1.2745,1.2698,1.2671,1.2542,1.2501,1.2501,1.2501,1.2488,1.244,1.2318,1.2257,1.2189,1.204,1.1803,1.1619,1.1619,1.1606,1.1545,1.1416,1.1375,1.1307,1.1158,1.1131,1.1084,1.0873,1.0847,1.0255,0.8579,0.5426,0.322,0.2752,0.2685,0.2618,0.235,0.4024,0.5696,0.7227,0.7498,0.8501,1.0246,1.0319,1.0452,1.0717,1.0717,1.0717,1.0717,1.0452,1.0452,1.0651,1.018,1.0114,1.0313,1.0114,0.9981,0.9981,1.0246,1.0319,1.0386,1.0585,1.0518,0.9915,0.6631,0.4091,0.2081,1.4299,1.4299,1.4299,1.4299,1.4299,1.4299,1.4299,1.4299,1.4299,1.4299,1.4299,1.4299,1.4299,1.4299,1.4299,1.4299,1.4299,1.4299,1.4299,1.4299,1.4299,1.4299,1.4299,1.4299,1.4299,1.4299,1.4265,1.4197,1.4048,1.3926,1.3838,1.3777,1.3702,1.3627,1.3559,1.3485,1.3403,1.3403,1.3403,1.3403,1.3403,1.3403,1.3403,1.3403,1.3403,1.3403,1.3403,1.3356,1.3288,1.32,1.3132,1.3051,1.2908,1.28,1.2718,1.2651,1.2569,1.2501,1.2501,1.2501,1.2488,1.2427,1.2345,1.2271,1.2203,1.1952,1.1735,1.1735,1.1674,1.1599,1.1531,1.1518,1.147,1.1314,1.1294,1.124,1.109,1.0995,1.0206,0.8246,0.6627,0.5292,0.4292,0.4225,0.4225,0.4225,0.583,0.7165,0.7964,0.8972,0.9842,1.0651,1.0717,1.0717,1.0717,1.0717,1.0717,1.0717,1.0717,1.0717,1.0717,1.0717,1.0717,1.0717,1.0717,1.0717,1.0717,1.0717,1.0717,1.0717,1.0717,1.0047,0.8906,0.6364,0.4225,0.2417]}]]